<?xml version='1.0' encoding='UTF-8'?><gpx version="1.1" creator="JPX - https://github.com/jenetics/jpx" xmlns="http://www.topografix.com/GPX/1/1"><trk><trkseg><trkpt lat="43.1365886" lon="13.7485886"><ele>29.0</ele><time>2026-04-05T14:44:24.7Z</time></trkpt><trkpt lat="43.1363893" lon="13.7487258"><ele>30.0</ele><time>2026-04-05T14:44:27.695Z</time></trkpt><trkpt lat="43.1362908" lon="13.7487848"><ele>31.0</ele><time>2026-04-05T14:44:28.691Z</time></trkpt><trkpt lat="43.1361898" lon="13.7488604"><ele>32.0</ele><time>2026-04-05T14:44:29.692Z</time></trkpt><trkpt lat="43.1360878" lon="13.7489376"><ele>32.0</ele><time>2026-04-05T14:44:30.701Z</time></trkpt><trkpt lat="43.1359775" lon="13.749048"><ele>32.0</ele><time>2026-04-05T14:44:31.7Z</time></trkpt><trkpt lat="43.1358673" lon="13.7491554"><ele>32.0</ele><time>2026-04-05T14:44:32.699Z</time></trkpt><trkpt lat="43.1357555" lon="13.7492629"><ele>32.0</ele><time>2026-04-05T14:44:33.702Z</time></trkpt><trkpt lat="43.1356398" lon="13.7493655"><ele>32.0</ele><time>2026-04-05T14:44:34.696Z</time></trkpt><trkpt lat="43.1355223" lon="13.7494697"><ele>32.0</ele><time>2026-04-05T14:44:35.721Z</time></trkpt><trkpt lat="43.1354064" lon="13.7495746"><ele>32.0</ele><time>2026-04-05T14:44:36.701Z</time></trkpt><trkpt lat="43.1352904" lon="13.7496782"><ele>32.0</ele><time>2026-04-05T14:44:37.702Z</time></trkpt><trkpt lat="43.1351755" lon="13.7497795"><ele>32.0</ele><time>2026-04-05T14:44:38.696Z</time></trkpt><trkpt lat="43.1350589" lon="13.7498821"><ele>32.0</ele><time>2026-04-05T14:44:39.705Z</time></trkpt><trkpt lat="43.1349472" lon="13.7499871"><ele>32.0</ele><time>2026-04-05T14:44:40.701Z</time></trkpt><trkpt lat="43.1348378" lon="13.7500903"><ele>32.0</ele><time>2026-04-05T14:44:41.734Z</time></trkpt><trkpt lat="43.1347264" lon="13.7501889"><ele>31.75</ele><time>2026-04-05T14:44:42.698Z</time></trkpt><trkpt lat="43.134609" lon="13.7502694"><ele>31.5</ele><time>2026-04-05T14:44:43.699Z</time></trkpt><trkpt lat="43.1344806" lon="13.7503215"><ele>31.25</ele><time>2026-04-05T14:44:44.698Z</time></trkpt><trkpt lat="43.1343475" lon="13.7503415"><ele>31.0</ele><time>2026-04-05T14:44:45.702Z</time></trkpt><trkpt lat="43.1342113" lon="13.7503412"><ele>31.0</ele><time>2026-04-05T14:44:46.7Z</time></trkpt><trkpt lat="43.1340748" lon="13.7503339"><ele>31.0</ele><time>2026-04-05T14:44:47.701Z</time></trkpt><trkpt lat="43.1339371" lon="13.7503206"><ele>31.0</ele><time>2026-04-05T14:44:48.698Z</time></trkpt><trkpt lat="43.1338023" lon="13.7502966"><ele>31.0</ele><time>2026-04-05T14:44:49.699Z</time></trkpt><trkpt lat="43.133671" lon="13.7502604"><ele>31.25</ele><time>2026-04-05T14:44:50.7Z</time></trkpt><trkpt lat="43.1335408" lon="13.7502184"><ele>31.5</ele><time>2026-04-05T14:44:51.698Z</time></trkpt><trkpt lat="43.1334099" lon="13.7501758"><ele>31.75</ele><time>2026-04-05T14:44:52.698Z</time></trkpt><trkpt lat="43.1332768" lon="13.7501327"><ele>32.0</ele><time>2026-04-05T14:44:53.698Z</time></trkpt><trkpt lat="43.1331417" lon="13.7500878"><ele>32.5</ele><time>2026-04-05T14:44:54.699Z</time></trkpt><trkpt lat="43.1330053" lon="13.7500428"><ele>33.0</ele><time>2026-04-05T14:44:55.703Z</time></trkpt><trkpt lat="43.1328686" lon="13.7499993"><ele>33.5</ele><time>2026-04-05T14:44:56.697Z</time></trkpt><trkpt lat="43.1327337" lon="13.7499535"><ele>34.0</ele><time>2026-04-05T14:44:57.703Z</time></trkpt><trkpt lat="43.1326081" lon="13.7499113"><ele>34.0</ele><time>2026-04-05T14:44:58.698Z</time></trkpt><trkpt lat="43.1324934" lon="13.7498727"><ele>34.0</ele><time>2026-04-05T14:44:59.699Z</time></trkpt><trkpt lat="43.1323884" lon="13.74984"><ele>34.0</ele><time>2026-04-05T14:45:00.696Z</time></trkpt><trkpt lat="43.1322876" lon="13.7498216"><ele>34.0</ele><time>2026-04-05T14:45:01.702Z</time></trkpt><trkpt lat="43.1321978" lon="13.7498311"><ele>34.0</ele><time>2026-04-05T14:45:02.698Z</time></trkpt><trkpt lat="43.1321235" lon="13.7498794"><ele>33.6</ele><time>2026-04-05T14:45:03.7Z</time></trkpt><trkpt lat="43.1320688" lon="13.7499653"><ele>33.2</ele><time>2026-04-05T14:45:04.697Z</time></trkpt><trkpt lat="43.1320342" lon="13.750078"><ele>32.800000000000004</ele><time>2026-04-05T14:45:05.706Z</time></trkpt><trkpt lat="43.1320043" lon="13.7501991"><ele>32.4</ele><time>2026-04-05T14:45:06.699Z</time></trkpt><trkpt lat="43.1319674" lon="13.7503205"><ele>32.0</ele><time>2026-04-05T14:45:07.701Z</time></trkpt><trkpt lat="43.131913" lon="13.7504307"><ele>33.0</ele><time>2026-04-05T14:45:08.7Z</time></trkpt><trkpt lat="43.1318351" lon="13.7505134"><ele>34.0</ele><time>2026-04-05T14:45:09.701Z</time></trkpt><trkpt lat="43.1317437" lon="13.7505682"><ele>35.0</ele><time>2026-04-05T14:45:10.729Z</time></trkpt><trkpt lat="43.1316464" lon="13.7506019"><ele>36.0</ele><time>2026-04-05T14:45:11.701Z</time></trkpt><trkpt lat="43.131547" lon="13.7506224"><ele>37.0</ele><time>2026-04-05T14:45:12.701Z</time></trkpt><trkpt lat="43.131446" lon="13.7506364"><ele>37.2</ele><time>2026-04-05T14:45:13.7Z</time></trkpt><trkpt lat="43.1313438" lon="13.7506512"><ele>37.400000000000006</ele><time>2026-04-05T14:45:14.703Z</time></trkpt><trkpt lat="43.1312383" lon="13.7506669"><ele>37.599999999999994</ele><time>2026-04-05T14:45:15.703Z</time></trkpt><trkpt lat="43.1311285" lon="13.7506771"><ele>37.8</ele><time>2026-04-05T14:45:16.702Z</time></trkpt><trkpt lat="43.1310155" lon="13.7506858"><ele>38.0</ele><time>2026-04-05T14:45:17.701Z</time></trkpt><trkpt lat="43.130899" lon="13.7506964"><ele>38.0</ele><time>2026-04-05T14:45:18.709Z</time></trkpt><trkpt lat="43.1307795" lon="13.7507131"><ele>38.0</ele><time>2026-04-05T14:45:19.702Z</time></trkpt><trkpt lat="43.1306577" lon="13.75073"><ele>38.0</ele><time>2026-04-05T14:45:20.706Z</time></trkpt><trkpt lat="43.1305343" lon="13.750744"><ele>38.0</ele><time>2026-04-05T14:45:21.701Z</time></trkpt><trkpt lat="43.1304107" lon="13.7507633"><ele>39.0</ele><time>2026-04-05T14:45:22.701Z</time></trkpt><trkpt lat="43.1302875" lon="13.7507822"><ele>40.0</ele><time>2026-04-05T14:45:23.702Z</time></trkpt><trkpt lat="43.1301649" lon="13.7507915"><ele>41.0</ele><time>2026-04-05T14:45:24.701Z</time></trkpt><trkpt lat="43.1300409" lon="13.7507871"><ele>42.0</ele><time>2026-04-05T14:45:25.703Z</time></trkpt><trkpt lat="43.1299162" lon="13.7507708"><ele>43.5</ele><time>2026-04-05T14:45:26.702Z</time></trkpt><trkpt lat="43.1297917" lon="13.7507504"><ele>45.0</ele><time>2026-04-05T14:45:27.7Z</time></trkpt><trkpt lat="43.1296657" lon="13.7507437"><ele>46.5</ele><time>2026-04-05T14:45:28.703Z</time></trkpt><trkpt lat="43.129536" lon="13.7507481"><ele>48.0</ele><time>2026-04-05T14:45:29.701Z</time></trkpt><trkpt lat="43.129403" lon="13.7507567"><ele>48.0</ele><time>2026-04-05T14:45:30.693Z</time></trkpt><trkpt lat="43.1292688" lon="13.7507649"><ele>48.0</ele><time>2026-04-05T14:45:31.698Z</time></trkpt><trkpt lat="43.1291343" lon="13.7507558"><ele>48.0</ele><time>2026-04-05T14:45:32.701Z</time></trkpt><trkpt lat="43.1290011" lon="13.7507357"><ele>48.0</ele><time>2026-04-05T14:45:33.705Z</time></trkpt><trkpt lat="43.1288646" lon="13.750706"><ele>50.75</ele><time>2026-04-05T14:45:34.7Z</time></trkpt><trkpt lat="43.1287232" lon="13.7506733"><ele>53.5</ele><time>2026-04-05T14:45:35.703Z</time></trkpt><trkpt lat="43.1285802" lon="13.7506398"><ele>56.25</ele><time>2026-04-05T14:45:36.705Z</time></trkpt><trkpt lat="43.1284341" lon="13.7505968"><ele>59.0</ele><time>2026-04-05T14:45:37.702Z</time></trkpt><trkpt lat="43.1282946" lon="13.7505604"><ele>62.75</ele><time>2026-04-05T14:45:38.703Z</time></trkpt><trkpt lat="43.128154" lon="13.7505219"><ele>66.5</ele><time>2026-04-05T14:45:39.702Z</time></trkpt><trkpt lat="43.1280141" lon="13.7504816"><ele>70.25</ele><time>2026-04-05T14:45:40.724Z</time></trkpt><trkpt lat="43.1278708" lon="13.7504508"><ele>74.0</ele><time>2026-04-05T14:45:41.7Z</time></trkpt><trkpt lat="43.127724" lon="13.7504441"><ele>74.0</ele><time>2026-04-05T14:45:42.704Z</time></trkpt><trkpt lat="43.1275768" lon="13.7504526"><ele>74.0</ele><time>2026-04-05T14:45:43.702Z</time></trkpt><trkpt lat="43.1274275" lon="13.750467"><ele>74.0</ele><time>2026-04-05T14:45:44.701Z</time></trkpt><trkpt lat="43.1272745" lon="13.75048"><ele>76.33333333333334</ele><time>2026-04-05T14:45:45.704Z</time></trkpt><trkpt lat="43.1271208" lon="13.7504932"><ele>78.66666666666667</ele><time>2026-04-05T14:45:46.708Z</time></trkpt><trkpt lat="43.1269679" lon="13.7505097"><ele>81.0</ele><time>2026-04-05T14:45:47.702Z</time></trkpt><trkpt lat="43.1268161" lon="13.7505265"><ele>81.0</ele><time>2026-04-05T14:45:48.702Z</time></trkpt><trkpt lat="43.1266621" lon="13.7505436"><ele>81.0</ele><time>2026-04-05T14:45:49.703Z</time></trkpt><trkpt lat="43.1265092" lon="13.7505573"><ele>81.0</ele><time>2026-04-05T14:45:50.7Z</time></trkpt><trkpt lat="43.126357" lon="13.7505641"><ele>85.66666666666667</ele><time>2026-04-05T14:45:51.709Z</time></trkpt><trkpt lat="43.1262058" lon="13.7505678"><ele>90.33333333333334</ele><time>2026-04-05T14:45:52.701Z</time></trkpt><trkpt lat="43.126053" lon="13.750568"><ele>95.0</ele><time>2026-04-05T14:45:53.699Z</time></trkpt><trkpt lat="43.1258988" lon="13.7505666"><ele>95.0</ele><time>2026-04-05T14:45:54.707Z</time></trkpt><trkpt lat="43.1257454" lon="13.7505648"><ele>95.0</ele><time>2026-04-05T14:45:55.702Z</time></trkpt><trkpt lat="43.1255898" lon="13.7505649"><ele>95.0</ele><time>2026-04-05T14:45:56.71Z</time></trkpt><trkpt lat="43.1254351" lon="13.7505675"><ele>98.66666666666667</ele><time>2026-04-05T14:45:57.698Z</time></trkpt><trkpt lat="43.1252806" lon="13.7505725"><ele>102.33333333333334</ele><time>2026-04-05T14:45:58.701Z</time></trkpt><trkpt lat="43.1251256" lon="13.7505772"><ele>106.0</ele><time>2026-04-05T14:45:59.702Z</time></trkpt><trkpt lat="43.1249703" lon="13.750576"><ele>108.66666666666667</ele><time>2026-04-05T14:46:00.702Z</time></trkpt><trkpt lat="43.124816" lon="13.7505655"><ele>111.33333333333334</ele><time>2026-04-05T14:46:01.696Z</time></trkpt><trkpt lat="43.1246638" lon="13.7505325"><ele>114.0</ele><time>2026-04-05T14:46:02.701Z</time></trkpt><trkpt lat="43.1245146" lon="13.7504682"><ele>114.0</ele><time>2026-04-05T14:46:03.701Z</time></trkpt><trkpt lat="43.1243698" lon="13.750377"><ele>114.0</ele><time>2026-04-05T14:46:04.7Z</time></trkpt><trkpt lat="43.1242278" lon="13.7502678"><ele>114.0</ele><time>2026-04-05T14:46:05.71Z</time></trkpt><trkpt lat="43.1240838" lon="13.7501617"><ele>113.0</ele><time>2026-04-05T14:46:06.704Z</time></trkpt><trkpt lat="43.123935" lon="13.7500639"><ele>112.0</ele><time>2026-04-05T14:46:07.701Z</time></trkpt><trkpt lat="43.1237779" lon="13.7499843"><ele>111.0</ele><time>2026-04-05T14:46:08.698Z</time></trkpt><trkpt lat="43.1236135" lon="13.7499251"><ele>111.0</ele><time>2026-04-05T14:46:09.698Z</time></trkpt><trkpt lat="43.1234453" lon="13.7498939"><ele>111.0</ele><time>2026-04-05T14:46:10.702Z</time></trkpt><trkpt lat="43.1232763" lon="13.7499005"><ele>111.0</ele><time>2026-04-05T14:46:11.701Z</time></trkpt><trkpt lat="43.1231122" lon="13.749942"><ele>111.0</ele><time>2026-04-05T14:46:12.706Z</time></trkpt><trkpt lat="43.1229551" lon="13.7500106"><ele>111.0</ele><time>2026-04-05T14:46:13.702Z</time></trkpt><trkpt lat="43.1228052" lon="13.7501048"><ele>111.0</ele><time>2026-04-05T14:46:14.701Z</time></trkpt><trkpt lat="43.1226612" lon="13.7502167"><ele>115.0</ele><time>2026-04-05T14:46:15.7Z</time></trkpt><trkpt lat="43.1225184" lon="13.7503333"><ele>119.0</ele><time>2026-04-05T14:46:16.697Z</time></trkpt><trkpt lat="43.1223746" lon="13.7504494"><ele>123.0</ele><time>2026-04-05T14:46:17.706Z</time></trkpt><trkpt lat="43.1222291" lon="13.750563"><ele>123.33333333333334</ele><time>2026-04-05T14:46:18.7Z</time></trkpt><trkpt lat="43.1220854" lon="13.7506776"><ele>123.66666666666667</ele><time>2026-04-05T14:46:19.703Z</time></trkpt><trkpt lat="43.1219434" lon="13.7507923"><ele>124.0</ele><time>2026-04-05T14:46:20.698Z</time></trkpt><trkpt lat="43.1218004" lon="13.750902"><ele>124.0</ele><time>2026-04-05T14:46:21.7Z</time></trkpt><trkpt lat="43.1216557" lon="13.7510053"><ele>124.0</ele><time>2026-04-05T14:46:22.697Z</time></trkpt><trkpt lat="43.1215093" lon="13.7511053"><ele>124.0</ele><time>2026-04-05T14:46:23.699Z</time></trkpt><trkpt lat="43.1213632" lon="13.7512041"><ele>128.0</ele><time>2026-04-05T14:46:24.701Z</time></trkpt><trkpt lat="43.1212199" lon="13.7513095"><ele>132.0</ele><time>2026-04-05T14:46:25.701Z</time></trkpt><trkpt lat="43.1210804" lon="13.7514262"><ele>136.0</ele><time>2026-04-05T14:46:26.711Z</time></trkpt><trkpt lat="43.1209434" lon="13.7515529"><ele>136.0</ele><time>2026-04-05T14:46:27.703Z</time></trkpt><trkpt lat="43.1208082" lon="13.7516866"><ele>136.0</ele><time>2026-04-05T14:46:28.705Z</time></trkpt><trkpt lat="43.1206801" lon="13.7518324"><ele>136.0</ele><time>2026-04-05T14:46:29.699Z</time></trkpt><trkpt lat="43.1205635" lon="13.7519906"><ele>141.33333333333334</ele><time>2026-04-05T14:46:30.697Z</time></trkpt><trkpt lat="43.1204604" lon="13.7521616"><ele>146.66666666666666</ele><time>2026-04-05T14:46:31.701Z</time></trkpt><trkpt lat="43.1203689" lon="13.7523404"><ele>152.0</ele><time>2026-04-05T14:46:32.702Z</time></trkpt><trkpt lat="43.1202854" lon="13.7525211"><ele>152.0</ele><time>2026-04-05T14:46:33.7Z</time></trkpt><trkpt lat="43.1202054" lon="13.7526962"><ele>152.0</ele><time>2026-04-05T14:46:34.705Z</time></trkpt><trkpt lat="43.1201282" lon="13.7528597"><ele>152.0</ele><time>2026-04-05T14:46:35.703Z</time></trkpt><trkpt lat="43.1200597" lon="13.7529971"><ele>152.0</ele><time>2026-04-05T14:46:36.707Z</time></trkpt><trkpt lat="43.1199996" lon="13.7531124"><ele>153.5</ele><time>2026-04-05T14:46:37.702Z</time></trkpt><trkpt lat="43.1199514" lon="13.7531976"><ele>155.0</ele><time>2026-04-05T14:46:38.704Z</time></trkpt><trkpt lat="43.1199134" lon="13.7532764"><ele>156.5</ele><time>2026-04-05T14:46:39.702Z</time></trkpt><trkpt lat="43.119893" lon="13.7533722"><ele>158.0</ele><time>2026-04-05T14:46:40.699Z</time></trkpt><trkpt lat="43.1198982" lon="13.7534845"><ele>159.5</ele><time>2026-04-05T14:46:41.697Z</time></trkpt><trkpt lat="43.1199178" lon="13.7536105"><ele>161.0</ele><time>2026-04-05T14:46:42.696Z</time></trkpt><trkpt lat="43.1199265" lon="13.7537556"><ele>163.5</ele><time>2026-04-05T14:46:43.697Z</time></trkpt><trkpt lat="43.1199102" lon="13.7539154"><ele>166.0</ele><time>2026-04-05T14:46:44.699Z</time></trkpt><trkpt lat="43.1198721" lon="13.7540855"><ele>168.5</ele><time>2026-04-05T14:46:45.702Z</time></trkpt><trkpt lat="43.1198288" lon="13.7542503"><ele>171.0</ele><time>2026-04-05T14:46:46.697Z</time></trkpt><trkpt lat="43.119798" lon="13.7544517"><ele>180.0</ele><time>2026-04-05T14:46:47.714Z</time></trkpt><trkpt lat="43.1197799" lon="13.7546534"><ele>189.0</ele><time>2026-04-05T14:46:48.7Z</time></trkpt><trkpt lat="43.1197944" lon="13.7548718"><ele>198.0</ele><time>2026-04-05T14:46:49.702Z</time></trkpt><trkpt lat="43.1198286" lon="13.7550896"><ele>194.66666666666666</ele><time>2026-04-05T14:46:50.699Z</time></trkpt><trkpt lat="43.1198684" lon="13.7553108"><ele>191.33333333333331</ele><time>2026-04-05T14:46:51.697Z</time></trkpt><trkpt lat="43.119912" lon="13.7555354"><ele>188.0</ele><time>2026-04-05T14:46:52.696Z</time></trkpt><trkpt lat="43.1199561" lon="13.7557598"><ele>188.0</ele><time>2026-04-05T14:46:53.695Z</time></trkpt><trkpt lat="43.1200011" lon="13.7559861"><ele>188.0</ele><time>2026-04-05T14:46:54.698Z</time></trkpt><trkpt lat="43.1200426" lon="13.7562132"><ele>188.0</ele><time>2026-04-05T14:46:55.696Z</time></trkpt><trkpt lat="43.1200824" lon="13.7564366"><ele>191.33333333333331</ele><time>2026-04-05T14:46:56.695Z</time></trkpt><trkpt lat="43.1201266" lon="13.756656"><ele>194.66666666666666</ele><time>2026-04-05T14:46:57.697Z</time></trkpt><trkpt lat="43.1201521" lon="13.7568781"><ele>198.0</ele><time>2026-04-05T14:46:58.697Z</time></trkpt><trkpt lat="43.1201599" lon="13.7571203"><ele>199.33333333333331</ele><time>2026-04-05T14:46:59.7Z</time></trkpt><trkpt lat="43.1201474" lon="13.7573687"><ele>200.66666666666666</ele><time>2026-04-05T14:47:00.7Z</time></trkpt><trkpt lat="43.1201258" lon="13.7576172"><ele>202.0</ele><time>2026-04-05T14:47:01.699Z</time></trkpt><trkpt lat="43.1200995" lon="13.757865"><ele>203.33333333333331</ele><time>2026-04-05T14:47:02.7Z</time></trkpt><trkpt lat="43.1200701" lon="13.7581159"><ele>204.66666666666669</ele><time>2026-04-05T14:47:03.696Z</time></trkpt><trkpt lat="43.1200482" lon="13.7583664"><ele>206.0</ele><time>2026-04-05T14:47:04.696Z</time></trkpt><trkpt lat="43.1200311" lon="13.7586242"><ele>206.66666666666669</ele><time>2026-04-05T14:47:05.701Z</time></trkpt><trkpt lat="43.1200205" lon="13.758882"><ele>207.33333333333331</ele><time>2026-04-05T14:47:06.7Z</time></trkpt><trkpt lat="43.1200199" lon="13.759143"><ele>208.0</ele><time>2026-04-05T14:47:07.719Z</time></trkpt><trkpt lat="43.1200247" lon="13.7594063"><ele>209.66666666666666</ele><time>2026-04-05T14:47:08.699Z</time></trkpt><trkpt lat="43.120032" lon="13.759668"><ele>211.33333333333331</ele><time>2026-04-05T14:47:09.696Z</time></trkpt><trkpt lat="43.1200382" lon="13.7599281"><ele>213.0</ele><time>2026-04-05T14:47:10.7Z</time></trkpt><trkpt lat="43.1200459" lon="13.7601863"><ele>215.66666666666669</ele><time>2026-04-05T14:47:11.7Z</time></trkpt><trkpt lat="43.1200557" lon="13.7604396"><ele>218.33333333333334</ele><time>2026-04-05T14:47:12.725Z</time></trkpt><trkpt lat="43.1200634" lon="13.7606912"><ele>221.0</ele><time>2026-04-05T14:47:13.7Z</time></trkpt><trkpt lat="43.1200753" lon="13.7609407"><ele>222.0</ele><time>2026-04-05T14:47:14.701Z</time></trkpt><trkpt lat="43.1200911" lon="13.761187"><ele>223.0</ele><time>2026-04-05T14:47:15.701Z</time></trkpt><trkpt lat="43.1201079" lon="13.7614099"><ele>224.0</ele><time>2026-04-05T14:47:16.703Z</time></trkpt><trkpt lat="43.1201178" lon="13.7616031"><ele>224.0</ele><time>2026-04-05T14:47:17.698Z</time></trkpt><trkpt lat="43.1201188" lon="13.7617622"><ele>223.99999999999997</ele><time>2026-04-05T14:47:18.705Z</time></trkpt><trkpt lat="43.1201059" lon="13.7618983"><ele>223.99999999999997</ele><time>2026-04-05T14:47:19.7Z</time></trkpt><trkpt lat="43.1200757" lon="13.7620078"><ele>224.0</ele><time>2026-04-05T14:47:20.7Z</time></trkpt><trkpt lat="43.1200378" lon="13.7621021"><ele>224.0</ele><time>2026-04-05T14:47:21.698Z</time></trkpt><trkpt lat="43.1199878" lon="13.7622421"><ele>223.79999999999998</ele><time>2026-04-05T14:47:23.698Z</time></trkpt><trkpt lat="43.1199922" lon="13.7623699"><ele>223.59999999999997</ele><time>2026-04-05T14:47:25.701Z</time></trkpt><trkpt lat="43.1200397" lon="13.762491"><ele>223.4</ele><time>2026-04-05T14:47:27.701Z</time></trkpt><trkpt lat="43.12008" lon="13.7625703"><ele>223.2</ele><time>2026-04-05T14:47:28.709Z</time></trkpt><trkpt lat="43.1201443" lon="13.7626966"><ele>223.0</ele><time>2026-04-05T14:47:30.696Z</time></trkpt><trkpt lat="43.1201965" lon="13.7627964"><ele>222.0</ele><time>2026-04-05T14:47:32.701Z</time></trkpt><trkpt lat="43.1202762" lon="13.7629261"><ele>221.0</ele><time>2026-04-05T14:47:34.707Z</time></trkpt><trkpt lat="43.1203268" lon="13.7630102"><ele>220.0</ele><time>2026-04-05T14:47:35.723Z</time></trkpt><trkpt lat="43.1203793" lon="13.763102"><ele>219.0</ele><time>2026-04-05T14:47:36.704Z</time></trkpt><trkpt lat="43.1204353" lon="13.7631921"><ele>218.0</ele><time>2026-04-05T14:47:37.703Z</time></trkpt><trkpt lat="43.1204866" lon="13.7632687"><ele>218.00000000000003</ele><time>2026-04-05T14:47:38.701Z</time></trkpt><trkpt lat="43.1205405" lon="13.7633447"><ele>218.0</ele><time>2026-04-05T14:47:39.703Z</time></trkpt><trkpt lat="43.1205991" lon="13.7634271"><ele>218.0</ele><time>2026-04-05T14:47:40.699Z</time></trkpt><trkpt lat="43.120661" lon="13.763516"><ele>218.0</ele><time>2026-04-05T14:47:41.702Z</time></trkpt><trkpt lat="43.1207245" lon="13.7636082"><ele>218.00000000000003</ele><time>2026-04-05T14:47:42.702Z</time></trkpt><trkpt lat="43.1207861" lon="13.7637051"><ele>218.0</ele><time>2026-04-05T14:47:43.703Z</time></trkpt><trkpt lat="43.1208435" lon="13.7638089"><ele>218.2</ele><time>2026-04-05T14:47:44.704Z</time></trkpt><trkpt lat="43.1208972" lon="13.7639147"><ele>218.4</ele><time>2026-04-05T14:47:45.7Z</time></trkpt><trkpt lat="43.120951" lon="13.7640227"><ele>218.59999999999997</ele><time>2026-04-05T14:47:46.703Z</time></trkpt><trkpt lat="43.1210032" lon="13.7641308"><ele>218.79999999999998</ele><time>2026-04-05T14:47:47.701Z</time></trkpt><trkpt lat="43.1210542" lon="13.7642387"><ele>219.0</ele><time>2026-04-05T14:47:48.705Z</time></trkpt><trkpt lat="43.1211072" lon="13.7643445"><ele>217.79999999999998</ele><time>2026-04-05T14:47:49.702Z</time></trkpt><trkpt lat="43.1211629" lon="13.7644478"><ele>216.59999999999997</ele><time>2026-04-05T14:47:50.699Z</time></trkpt><trkpt lat="43.1212167" lon="13.7645483"><ele>215.4</ele><time>2026-04-05T14:47:51.697Z</time></trkpt><trkpt lat="43.1212715" lon="13.7646464"><ele>214.2</ele><time>2026-04-05T14:47:52.701Z</time></trkpt><trkpt lat="43.1213243" lon="13.7647463"><ele>213.0</ele><time>2026-04-05T14:47:53.732Z</time></trkpt><trkpt lat="43.1213757" lon="13.7648423"><ele>213.0</ele><time>2026-04-05T14:47:54.704Z</time></trkpt><trkpt lat="43.1214328" lon="13.7649437"><ele>213.0</ele><time>2026-04-05T14:47:55.701Z</time></trkpt><trkpt lat="43.1214889" lon="13.7650477"><ele>213.0</ele><time>2026-04-05T14:47:56.7Z</time></trkpt><trkpt lat="43.121544" lon="13.7651544"><ele>213.0</ele><time>2026-04-05T14:47:57.701Z</time></trkpt><trkpt lat="43.1216006" lon="13.7652646"><ele>213.0</ele><time>2026-04-05T14:47:58.703Z</time></trkpt><trkpt lat="43.1216553" lon="13.7653713"><ele>213.8</ele><time>2026-04-05T14:47:59.699Z</time></trkpt><trkpt lat="43.1217102" lon="13.7654788"><ele>214.60000000000002</ele><time>2026-04-05T14:48:00.699Z</time></trkpt><trkpt lat="43.1217651" lon="13.7655878"><ele>215.39999999999998</ele><time>2026-04-05T14:48:01.703Z</time></trkpt><trkpt lat="43.1218199" lon="13.7656972"><ele>216.2</ele><time>2026-04-05T14:48:02.7Z</time></trkpt><trkpt lat="43.1218743" lon="13.765805"><ele>217.0</ele><time>2026-04-05T14:48:03.698Z</time></trkpt><trkpt lat="43.1219275" lon="13.7659123"><ele>217.0</ele><time>2026-04-05T14:48:04.702Z</time></trkpt><trkpt lat="43.1219812" lon="13.7660225"><ele>217.0</ele><time>2026-04-05T14:48:05.701Z</time></trkpt><trkpt lat="43.1220345" lon="13.7661327"><ele>217.0</ele><time>2026-04-05T14:48:06.697Z</time></trkpt><trkpt lat="43.1220895" lon="13.7662446"><ele>217.0</ele><time>2026-04-05T14:48:07.705Z</time></trkpt><trkpt lat="43.122145" lon="13.766359"><ele>217.0</ele><time>2026-04-05T14:48:08.697Z</time></trkpt><trkpt lat="43.1222011" lon="13.7664721"><ele>216.6</ele><time>2026-04-05T14:48:09.7Z</time></trkpt><trkpt lat="43.1222588" lon="13.7665806"><ele>216.2</ele><time>2026-04-05T14:48:10.701Z</time></trkpt><trkpt lat="43.1223204" lon="13.7666843"><ele>215.8</ele><time>2026-04-05T14:48:11.704Z</time></trkpt><trkpt lat="43.122385" lon="13.766788"><ele>215.4</ele><time>2026-04-05T14:48:12.701Z</time></trkpt><trkpt lat="43.1224499" lon="13.7668912"><ele>215.0</ele><time>2026-04-05T14:48:13.71Z</time></trkpt><trkpt lat="43.1225142" lon="13.7669899"><ele>215.0</ele><time>2026-04-05T14:48:14.699Z</time></trkpt><trkpt lat="43.122581" lon="13.7670892"><ele>215.0</ele><time>2026-04-05T14:48:15.696Z</time></trkpt><trkpt lat="43.1226504" lon="13.7671862"><ele>215.0</ele><time>2026-04-05T14:48:16.697Z</time></trkpt><trkpt lat="43.1227181" lon="13.7672846"><ele>215.0</ele><time>2026-04-05T14:48:17.701Z</time></trkpt><trkpt lat="43.1227855" lon="13.7673827"><ele>215.0</ele><time>2026-04-05T14:48:18.703Z</time></trkpt><trkpt lat="43.1228484" lon="13.7674814"><ele>215.0</ele><time>2026-04-05T14:48:19.697Z</time></trkpt><trkpt lat="43.1229104" lon="13.767583"><ele>215.0</ele><time>2026-04-05T14:48:20.721Z</time></trkpt><trkpt lat="43.1229729" lon="13.7676852"><ele>215.0</ele><time>2026-04-05T14:48:21.695Z</time></trkpt><trkpt lat="43.1230351" lon="13.7677869"><ele>215.0</ele><time>2026-04-05T14:48:22.698Z</time></trkpt><trkpt lat="43.1230965" lon="13.7678855"><ele>215.0</ele><time>2026-04-05T14:48:23.702Z</time></trkpt><trkpt lat="43.1231532" lon="13.7679858"><ele>216.6</ele><time>2026-04-05T14:48:24.703Z</time></trkpt><trkpt lat="43.1232052" lon="13.7680879"><ele>218.2</ele><time>2026-04-05T14:48:25.7Z</time></trkpt><trkpt lat="43.1232574" lon="13.7681877"><ele>219.8</ele><time>2026-04-05T14:48:26.701Z</time></trkpt><trkpt lat="43.123313" lon="13.7682791"><ele>221.4</ele><time>2026-04-05T14:48:27.7Z</time></trkpt><trkpt lat="43.123369" lon="13.7683811"><ele>223.0</ele><time>2026-04-05T14:48:28.703Z</time></trkpt><trkpt lat="43.1234261" lon="13.7684792"><ele>222.16666666666666</ele><time>2026-04-05T14:48:29.701Z</time></trkpt><trkpt lat="43.1234795" lon="13.7685748"><ele>221.33333333333331</ele><time>2026-04-05T14:48:30.701Z</time></trkpt><trkpt lat="43.1235388" lon="13.7686777"><ele>220.5</ele><time>2026-04-05T14:48:31.7Z</time></trkpt><trkpt lat="43.1235914" lon="13.7687785"><ele>219.66666666666669</ele><time>2026-04-05T14:48:32.701Z</time></trkpt><trkpt lat="43.1236346" lon="13.7688743"><ele>218.83333333333334</ele><time>2026-04-05T14:48:33.705Z</time></trkpt><trkpt lat="43.1236649" lon="13.7689878"><ele>218.0</ele><time>2026-04-05T14:48:34.701Z</time></trkpt><trkpt lat="43.1236844" lon="13.7690904"><ele>218.00000000000003</ele><time>2026-04-05T14:48:35.704Z</time></trkpt><trkpt lat="43.1237166" lon="13.7691948"><ele>218.0</ele><time>2026-04-05T14:48:36.697Z</time></trkpt><trkpt lat="43.1237598" lon="13.7692965"><ele>218.0</ele><time>2026-04-05T14:48:37.701Z</time></trkpt><trkpt lat="43.1238123" lon="13.769391"><ele>218.0</ele><time>2026-04-05T14:48:38.7Z</time></trkpt><trkpt lat="43.1238727" lon="13.7694848"><ele>218.00000000000003</ele><time>2026-04-05T14:48:39.696Z</time></trkpt><trkpt lat="43.1239422" lon="13.7695727"><ele>218.0</ele><time>2026-04-05T14:48:40.701Z</time></trkpt><trkpt lat="43.1240187" lon="13.7696592"><ele>218.0</ele><time>2026-04-05T14:48:41.698Z</time></trkpt><trkpt lat="43.124105" lon="13.7697415"><ele>218.0</ele><time>2026-04-05T14:48:42.713Z</time></trkpt><trkpt lat="43.1241996" lon="13.7698176"><ele>218.0</ele><time>2026-04-05T14:48:43.698Z</time></trkpt><trkpt lat="43.1242774" lon="13.7698829"><ele>218.0</ele><time>2026-04-05T14:48:44.697Z</time></trkpt><trkpt lat="43.1243592" lon="13.7699689"><ele>218.0</ele><time>2026-04-05T14:48:45.701Z</time></trkpt><trkpt lat="43.1244411" lon="13.7700348"><ele>218.00000000000003</ele><time>2026-04-05T14:48:46.706Z</time></trkpt><trkpt lat="43.1245258" lon="13.7700867"><ele>218.0</ele><time>2026-04-05T14:48:47.702Z</time></trkpt><trkpt lat="43.1246166" lon="13.7701226"><ele>218.0</ele><time>2026-04-05T14:48:48.706Z</time></trkpt><trkpt lat="43.1246975" lon="13.7701605"><ele>218.0</ele><time>2026-04-05T14:48:49.7Z</time></trkpt><trkpt lat="43.1247741" lon="13.7701942"><ele>218.00000000000003</ele><time>2026-04-05T14:48:50.7Z</time></trkpt><trkpt lat="43.1248445" lon="13.7702318"><ele>218.0</ele><time>2026-04-05T14:48:51.7Z</time></trkpt><trkpt lat="43.1249196" lon="13.7702713"><ele>216.50000000000003</ele><time>2026-04-05T14:48:52.699Z</time></trkpt><trkpt lat="43.1249911" lon="13.7703293"><ele>215.0</ele><time>2026-04-05T14:48:53.705Z</time></trkpt><trkpt lat="43.1250546" lon="13.7703953"><ele>213.5</ele><time>2026-04-05T14:48:54.701Z</time></trkpt><trkpt lat="43.1251203" lon="13.7704809"><ele>212.0</ele><time>2026-04-05T14:48:55.708Z</time></trkpt><trkpt lat="43.1251817" lon="13.7705737"><ele>210.50000000000003</ele><time>2026-04-05T14:48:56.7Z</time></trkpt><trkpt lat="43.1252364" lon="13.770675"><ele>209.0</ele><time>2026-04-05T14:48:57.698Z</time></trkpt><trkpt lat="43.1252869" lon="13.7707878"><ele>209.0</ele><time>2026-04-05T14:48:58.702Z</time></trkpt><trkpt lat="43.1253324" lon="13.7709134"><ele>209.0</ele><time>2026-04-05T14:48:59.7Z</time></trkpt><trkpt lat="43.1253709" lon="13.7710467"><ele>209.0</ele><time>2026-04-05T14:49:00.706Z</time></trkpt><trkpt lat="43.1254063" lon="13.771188"><ele>209.0</ele><time>2026-04-05T14:49:01.701Z</time></trkpt><trkpt lat="43.1254361" lon="13.7713301"><ele>209.0</ele><time>2026-04-05T14:49:02.7Z</time></trkpt><trkpt lat="43.1254669" lon="13.7714758"><ele>207.0</ele><time>2026-04-05T14:49:03.7Z</time></trkpt><trkpt lat="43.1254975" lon="13.771625"><ele>205.0</ele><time>2026-04-05T14:49:04.701Z</time></trkpt><trkpt lat="43.1255287" lon="13.7717745"><ele>203.0</ele><time>2026-04-05T14:49:05.713Z</time></trkpt><trkpt lat="43.125563" lon="13.7719249"><ele>201.0</ele><time>2026-04-05T14:49:06.702Z</time></trkpt><trkpt lat="43.1256002" lon="13.7720779"><ele>198.75</ele><time>2026-04-05T14:49:07.701Z</time></trkpt><trkpt lat="43.1256392" lon="13.7722317"><ele>196.5</ele><time>2026-04-05T14:49:08.702Z</time></trkpt><trkpt lat="43.1256759" lon="13.7723869"><ele>194.25</ele><time>2026-04-05T14:49:09.701Z</time></trkpt><trkpt lat="43.1257142" lon="13.7725432"><ele>192.0</ele><time>2026-04-05T14:49:10.702Z</time></trkpt><trkpt lat="43.1257519" lon="13.7726946"><ele>191.0</ele><time>2026-04-05T14:49:11.701Z</time></trkpt><trkpt lat="43.1257896" lon="13.7728445"><ele>190.0</ele><time>2026-04-05T14:49:12.701Z</time></trkpt><trkpt lat="43.1258266" lon="13.7729882"><ele>189.0</ele><time>2026-04-05T14:49:13.697Z</time></trkpt><trkpt lat="43.1258657" lon="13.7731331"><ele>188.0</ele><time>2026-04-05T14:49:14.702Z</time></trkpt><trkpt lat="43.1259071" lon="13.7732826"><ele>188.0</ele><time>2026-04-05T14:49:15.704Z</time></trkpt><trkpt lat="43.1259449" lon="13.7734287"><ele>188.0</ele><time>2026-04-05T14:49:16.698Z</time></trkpt><trkpt lat="43.1259838" lon="13.7735687"><ele>188.0</ele><time>2026-04-05T14:49:17.705Z</time></trkpt><trkpt lat="43.126031" lon="13.7737076"><ele>188.0</ele><time>2026-04-05T14:49:18.702Z</time></trkpt><trkpt lat="43.126088" lon="13.7738371"><ele>188.0</ele><time>2026-04-05T14:49:19.704Z</time></trkpt><trkpt lat="43.1261516" lon="13.773953"><ele>186.5</ele><time>2026-04-05T14:49:20.708Z</time></trkpt><trkpt lat="43.1262204" lon="13.7740675"><ele>185.0</ele><time>2026-04-05T14:49:21.703Z</time></trkpt><trkpt lat="43.1262926" lon="13.7741883"><ele>183.5</ele><time>2026-04-05T14:49:22.703Z</time></trkpt><trkpt lat="43.1263637" lon="13.7743182"><ele>182.0</ele><time>2026-04-05T14:49:23.707Z</time></trkpt><trkpt lat="43.1264292" lon="13.7744521"><ele>180.25</ele><time>2026-04-05T14:49:24.704Z</time></trkpt><trkpt lat="43.1264906" lon="13.7745885"><ele>178.5</ele><time>2026-04-05T14:49:25.702Z</time></trkpt><trkpt lat="43.1265513" lon="13.7747263"><ele>176.75</ele><time>2026-04-05T14:49:26.702Z</time></trkpt><trkpt lat="43.1266161" lon="13.7748683"><ele>175.0</ele><time>2026-04-05T14:49:27.706Z</time></trkpt><trkpt lat="43.1266848" lon="13.7750135"><ele>175.0</ele><time>2026-04-05T14:49:28.708Z</time></trkpt><trkpt lat="43.1267562" lon="13.7751592"><ele>175.0</ele><time>2026-04-05T14:49:29.71Z</time></trkpt><trkpt lat="43.1268243" lon="13.7753042"><ele>175.0</ele><time>2026-04-05T14:49:30.711Z</time></trkpt><trkpt lat="43.1268895" lon="13.7754443"><ele>175.0</ele><time>2026-04-05T14:49:31.706Z</time></trkpt><trkpt lat="43.1269544" lon="13.775583"><ele>174.5</ele><time>2026-04-05T14:49:32.709Z</time></trkpt><trkpt lat="43.1270209" lon="13.7757208"><ele>174.0</ele><time>2026-04-05T14:49:33.71Z</time></trkpt><trkpt lat="43.1270864" lon="13.7758595"><ele>173.5</ele><time>2026-04-05T14:49:34.709Z</time></trkpt><trkpt lat="43.127146" lon="13.7760033"><ele>173.0</ele><time>2026-04-05T14:49:35.711Z</time></trkpt><trkpt lat="43.1272041" lon="13.7761486"><ele>171.75</ele><time>2026-04-05T14:49:36.712Z</time></trkpt><trkpt lat="43.1272589" lon="13.7762947"><ele>170.5</ele><time>2026-04-05T14:49:37.707Z</time></trkpt><trkpt lat="43.1273105" lon="13.7764451"><ele>169.25</ele><time>2026-04-05T14:49:38.711Z</time></trkpt><trkpt lat="43.1273578" lon="13.776589"><ele>168.0</ele><time>2026-04-05T14:49:39.709Z</time></trkpt><trkpt lat="43.1274031" lon="13.7767318"><ele>166.4</ele><time>2026-04-05T14:49:40.713Z</time></trkpt><trkpt lat="43.1274458" lon="13.7768734"><ele>164.8</ele><time>2026-04-05T14:49:41.713Z</time></trkpt><trkpt lat="43.1274844" lon="13.777006"><ele>163.2</ele><time>2026-04-05T14:49:42.71Z</time></trkpt><trkpt lat="43.1275194" lon="13.7771311"><ele>161.6</ele><time>2026-04-05T14:49:43.713Z</time></trkpt><trkpt lat="43.1275501" lon="13.7772453"><ele>160.0</ele><time>2026-04-05T14:49:44.71Z</time></trkpt><trkpt lat="43.1275768" lon="13.7773426"><ele>160.0</ele><time>2026-04-05T14:49:45.715Z</time></trkpt><trkpt lat="43.1276087" lon="13.7774714"><ele>160.0</ele><time>2026-04-05T14:49:47.71Z</time></trkpt><trkpt lat="43.1275071" lon="13.7774235"><ele>160.0</ele><time>2026-04-05T14:49:52.711Z</time></trkpt><trkpt lat="43.1274453" lon="13.7773332"><ele>160.0</ele><time>2026-04-05T14:49:53.703Z</time></trkpt><trkpt lat="43.1273819" lon="13.7772398"><ele>160.0</ele><time>2026-04-05T14:49:54.71Z</time></trkpt><trkpt lat="43.1273135" lon="13.7771488"><ele>159.6</ele><time>2026-04-05T14:49:55.702Z</time></trkpt><trkpt lat="43.1272463" lon="13.7770458"><ele>159.2</ele><time>2026-04-05T14:49:56.707Z</time></trkpt><trkpt lat="43.1271929" lon="13.7769374"><ele>158.8</ele><time>2026-04-05T14:49:57.707Z</time></trkpt><trkpt lat="43.1271516" lon="13.776825"><ele>158.4</ele><time>2026-04-05T14:49:58.71Z</time></trkpt><trkpt lat="43.1271167" lon="13.7767115"><ele>158.0</ele><time>2026-04-05T14:49:59.705Z</time></trkpt><trkpt lat="43.1270806" lon="13.7765891"><ele>160.0</ele><time>2026-04-05T14:50:00.706Z</time></trkpt><trkpt lat="43.1270618" lon="13.7764603"><ele>162.0</ele><time>2026-04-05T14:50:01.707Z</time></trkpt><trkpt lat="43.1270286" lon="13.7763439"><ele>164.0</ele><time>2026-04-05T14:50:02.711Z</time></trkpt><trkpt lat="43.126975" lon="13.7762351"><ele>166.0</ele><time>2026-04-05T14:50:03.716Z</time></trkpt><trkpt lat="43.1269101" lon="13.7761186"><ele>168.0</ele><time>2026-04-05T14:50:04.715Z</time></trkpt><trkpt lat="43.1268543" lon="13.7760023"><ele>169.25</ele><time>2026-04-05T14:50:05.726Z</time></trkpt><trkpt lat="43.1267919" lon="13.7758794"><ele>170.5</ele><time>2026-04-05T14:50:06.71Z</time></trkpt><trkpt lat="43.126724" lon="13.7757509"><ele>171.75</ele><time>2026-04-05T14:50:07.714Z</time></trkpt><trkpt lat="43.1266536" lon="13.7756157"><ele>173.0</ele><time>2026-04-05T14:50:08.712Z</time></trkpt><trkpt lat="43.1265868" lon="13.7754676"><ele>173.5</ele><time>2026-04-05T14:50:09.712Z</time></trkpt><trkpt lat="43.126521" lon="13.7753127"><ele>174.0</ele><time>2026-04-05T14:50:10.708Z</time></trkpt><trkpt lat="43.1264583" lon="13.7751561"><ele>174.5</ele><time>2026-04-05T14:50:11.714Z</time></trkpt><trkpt lat="43.1263991" lon="13.7750016"><ele>175.0</ele><time>2026-04-05T14:50:12.707Z</time></trkpt><trkpt lat="43.126341" lon="13.7748504"><ele>175.0</ele><time>2026-04-05T14:50:13.712Z</time></trkpt><trkpt lat="43.1262837" lon="13.7747006"><ele>175.0</ele><time>2026-04-05T14:50:14.709Z</time></trkpt><trkpt lat="43.1262304" lon="13.7745604"><ele>175.0</ele><time>2026-04-05T14:50:15.711Z</time></trkpt><trkpt lat="43.1261922" lon="13.774431"><ele>175.0</ele><time>2026-04-05T14:50:16.708Z</time></trkpt><trkpt lat="43.1261701" lon="13.7743211"><ele>175.0</ele><time>2026-04-05T14:50:17.713Z</time></trkpt><trkpt lat="43.1261539" lon="13.7742333"><ele>175.0</ele><time>2026-04-05T14:50:18.708Z</time></trkpt><trkpt lat="43.1261978" lon="13.7741531"><ele>175.0</ele><time>2026-04-05T14:50:20.71Z</time></trkpt><trkpt lat="43.1262702" lon="13.7741884"><ele>175.0</ele><time>2026-04-05T14:50:22.721Z</time></trkpt><trkpt lat="43.1263207" lon="13.7742525"><ele>175.0</ele><time>2026-04-05T14:50:23.714Z</time></trkpt><trkpt lat="43.126385" lon="13.7743404"><ele>175.0</ele><time>2026-04-05T14:50:24.707Z</time></trkpt><trkpt lat="43.1264572" lon="13.7745032"><ele>175.0</ele><time>2026-04-05T14:50:25.71Z</time></trkpt><trkpt lat="43.1265426" lon="13.7746983"><ele>175.0</ele><time>2026-04-05T14:50:26.711Z</time></trkpt><trkpt lat="43.1266443" lon="13.7749159"><ele>175.0</ele><time>2026-04-05T14:50:27.714Z</time></trkpt><trkpt lat="43.1267411" lon="13.7751251"><ele>175.0</ele><time>2026-04-05T14:50:28.71Z</time></trkpt><trkpt lat="43.126832" lon="13.7753247"><ele>174.33333333333334</ele><time>2026-04-05T14:50:29.709Z</time></trkpt><trkpt lat="43.1269197" lon="13.775512"><ele>173.66666666666666</ele><time>2026-04-05T14:50:30.704Z</time></trkpt><trkpt lat="43.1270037" lon="13.7756887"><ele>173.0</ele><time>2026-04-05T14:50:31.711Z</time></trkpt><trkpt lat="43.1270858" lon="13.7758624"><ele>171.33333333333331</ele><time>2026-04-05T14:50:32.71Z</time></trkpt><trkpt lat="43.1271611" lon="13.7760439"><ele>169.66666666666666</ele><time>2026-04-05T14:50:33.712Z</time></trkpt><trkpt lat="43.1272341" lon="13.7762329"><ele>168.0</ele><time>2026-04-05T14:50:34.711Z</time></trkpt><trkpt lat="43.1273008" lon="13.7764193"><ele>168.0</ele><time>2026-04-05T14:50:35.705Z</time></trkpt><trkpt lat="43.1273596" lon="13.7766014"><ele>168.0</ele><time>2026-04-05T14:50:36.709Z</time></trkpt><trkpt lat="43.1274151" lon="13.7767808"><ele>168.0</ele><time>2026-04-05T14:50:37.707Z</time></trkpt><trkpt lat="43.1274696" lon="13.7769654"><ele>168.0</ele><time>2026-04-05T14:50:38.709Z</time></trkpt><trkpt lat="43.1275188" lon="13.7771418"><ele>166.0</ele><time>2026-04-05T14:50:39.708Z</time></trkpt><trkpt lat="43.1275642" lon="13.7773107"><ele>164.0</ele><time>2026-04-05T14:50:40.719Z</time></trkpt><trkpt lat="43.1276108" lon="13.7774685"><ele>162.0</ele><time>2026-04-05T14:50:41.712Z</time></trkpt><trkpt lat="43.1276698" lon="13.7776181"><ele>160.0</ele><time>2026-04-05T14:50:42.709Z</time></trkpt><trkpt lat="43.1277472" lon="13.7777643"><ele>158.5</ele><time>2026-04-05T14:50:43.71Z</time></trkpt><trkpt lat="43.1278389" lon="13.7779065"><ele>157.0</ele><time>2026-04-05T14:50:44.715Z</time></trkpt><trkpt lat="43.1279412" lon="13.7780497"><ele>155.5</ele><time>2026-04-05T14:50:45.702Z</time></trkpt><trkpt lat="43.1280551" lon="13.7781908"><ele>154.0</ele><time>2026-04-05T14:50:46.71Z</time></trkpt><trkpt lat="43.1281835" lon="13.7783249"><ele>155.33333333333334</ele><time>2026-04-05T14:50:47.709Z</time></trkpt><trkpt lat="43.128319" lon="13.7784472"><ele>156.66666666666666</ele><time>2026-04-05T14:50:48.708Z</time></trkpt><trkpt lat="43.1284504" lon="13.7785463"><ele>158.0</ele><time>2026-04-05T14:50:49.713Z</time></trkpt><trkpt lat="43.128584" lon="13.7786677"><ele>158.0</ele><time>2026-04-05T14:50:50.71Z</time></trkpt><trkpt lat="43.1287143" lon="13.7788057"><ele>158.0</ele><time>2026-04-05T14:50:51.713Z</time></trkpt><trkpt lat="43.1288414" lon="13.7789637"><ele>158.0</ele><time>2026-04-05T14:50:52.719Z</time></trkpt><trkpt lat="43.1289672" lon="13.7791339"><ele>160.0</ele><time>2026-04-05T14:50:53.71Z</time></trkpt><trkpt lat="43.1290859" lon="13.7793116"><ele>162.0</ele><time>2026-04-05T14:50:54.708Z</time></trkpt><trkpt lat="43.1291961" lon="13.7794974"><ele>164.0</ele><time>2026-04-05T14:50:55.703Z</time></trkpt><trkpt lat="43.1292942" lon="13.7796851"><ele>164.0</ele><time>2026-04-05T14:50:56.706Z</time></trkpt><trkpt lat="43.1293826" lon="13.7798616"><ele>164.0</ele><time>2026-04-05T14:50:57.706Z</time></trkpt><trkpt lat="43.129461" lon="13.7800256"><ele>164.0</ele><time>2026-04-05T14:50:58.71Z</time></trkpt><trkpt lat="43.1295419" lon="13.780183"><ele>164.0</ele><time>2026-04-05T14:50:59.71Z</time></trkpt><trkpt lat="43.1296188" lon="13.7803326"><ele>163.5</ele><time>2026-04-05T14:51:00.716Z</time></trkpt><trkpt lat="43.1296915" lon="13.7804888"><ele>163.0</ele><time>2026-04-05T14:51:01.709Z</time></trkpt><trkpt lat="43.1297589" lon="13.7806569"><ele>162.5</ele><time>2026-04-05T14:51:02.72Z</time></trkpt><trkpt lat="43.1298288" lon="13.7808274"><ele>162.0</ele><time>2026-04-05T14:51:03.707Z</time></trkpt><trkpt lat="43.1298925" lon="13.7810145"><ele>161.66666666666666</ele><time>2026-04-05T14:51:04.715Z</time></trkpt><trkpt lat="43.1299566" lon="13.78121"><ele>161.33333333333331</ele><time>2026-04-05T14:51:05.716Z</time></trkpt><trkpt lat="43.1300159" lon="13.7814032"><ele>161.0</ele><time>2026-04-05T14:51:06.711Z</time></trkpt><trkpt lat="43.1300768" lon="13.7815932"><ele>161.0</ele><time>2026-04-05T14:51:07.712Z</time></trkpt><trkpt lat="43.1301411" lon="13.7817755"><ele>161.0</ele><time>2026-04-05T14:51:08.713Z</time></trkpt><trkpt lat="43.1302125" lon="13.7819469"><ele>161.0</ele><time>2026-04-05T14:51:09.718Z</time></trkpt><trkpt lat="43.1302983" lon="13.7820936"><ele>161.0</ele><time>2026-04-05T14:51:10.713Z</time></trkpt><trkpt lat="43.1304113" lon="13.7822326"><ele>160.25</ele><time>2026-04-05T14:51:11.707Z</time></trkpt><trkpt lat="43.130519" lon="13.7823692"><ele>159.5</ele><time>2026-04-05T14:51:12.706Z</time></trkpt><trkpt lat="43.1306275" lon="13.7824926"><ele>158.75</ele><time>2026-04-05T14:51:13.709Z</time></trkpt><trkpt lat="43.1307306" lon="13.7826094"><ele>158.0</ele><time>2026-04-05T14:51:14.711Z</time></trkpt><trkpt lat="43.1308346" lon="13.7827384"><ele>160.25</ele><time>2026-04-05T14:51:15.708Z</time></trkpt><trkpt lat="43.1309348" lon="13.7828732"><ele>162.5</ele><time>2026-04-05T14:51:16.706Z</time></trkpt><trkpt lat="43.1310357" lon="13.7830026"><ele>164.75</ele><time>2026-04-05T14:51:17.709Z</time></trkpt><trkpt lat="43.1311415" lon="13.7831346"><ele>167.0</ele><time>2026-04-05T14:51:18.715Z</time></trkpt><trkpt lat="43.1312539" lon="13.7832677"><ele>167.0</ele><time>2026-04-05T14:51:19.709Z</time></trkpt><trkpt lat="43.1313691" lon="13.7834023"><ele>167.0</ele><time>2026-04-05T14:51:20.708Z</time></trkpt><trkpt lat="43.1314821" lon="13.7835261"><ele>167.0</ele><time>2026-04-05T14:51:21.71Z</time></trkpt><trkpt lat="43.1315931" lon="13.783648"><ele>167.0</ele><time>2026-04-05T14:51:22.707Z</time></trkpt><trkpt lat="43.1317035" lon="13.7837682"><ele>165.5</ele><time>2026-04-05T14:51:23.71Z</time></trkpt><trkpt lat="43.1318143" lon="13.7838898"><ele>164.0</ele><time>2026-04-05T14:51:24.714Z</time></trkpt><trkpt lat="43.1319224" lon="13.7840118"><ele>162.5</ele><time>2026-04-05T14:51:25.714Z</time></trkpt><trkpt lat="43.1320321" lon="13.7841314"><ele>161.0</ele><time>2026-04-05T14:51:26.713Z</time></trkpt><trkpt lat="43.1321404" lon="13.7842553"><ele>157.5</ele><time>2026-04-05T14:51:27.708Z</time></trkpt><trkpt lat="43.1322417" lon="13.7843716"><ele>154.0</ele><time>2026-04-05T14:51:28.743Z</time></trkpt><trkpt lat="43.1323497" lon="13.784489"><ele>150.5</ele><time>2026-04-05T14:51:29.709Z</time></trkpt><trkpt lat="43.1324559" lon="13.7846131"><ele>147.0</ele><time>2026-04-05T14:51:30.71Z</time></trkpt><trkpt lat="43.1325633" lon="13.7847397"><ele>147.0</ele><time>2026-04-05T14:51:31.712Z</time></trkpt><trkpt lat="43.1326696" lon="13.7848635"><ele>147.0</ele><time>2026-04-05T14:51:32.711Z</time></trkpt><trkpt lat="43.1327812" lon="13.7849929"><ele>147.0</ele><time>2026-04-05T14:51:33.719Z</time></trkpt><trkpt lat="43.1328939" lon="13.7851209"><ele>147.0</ele><time>2026-04-05T14:51:34.709Z</time></trkpt><trkpt lat="43.133008" lon="13.7852526"><ele>145.25</ele><time>2026-04-05T14:51:35.713Z</time></trkpt><trkpt lat="43.1331189" lon="13.7853779"><ele>143.5</ele><time>2026-04-05T14:51:36.708Z</time></trkpt><trkpt lat="43.1332297" lon="13.7855069"><ele>141.75</ele><time>2026-04-05T14:51:37.711Z</time></trkpt><trkpt lat="43.133342" lon="13.7856365"><ele>140.0</ele><time>2026-04-05T14:51:38.71Z</time></trkpt><trkpt lat="43.1334543" lon="13.7857695"><ele>140.0</ele><time>2026-04-05T14:51:39.704Z</time></trkpt><trkpt lat="43.1335705" lon="13.7859053"><ele>140.0</ele><time>2026-04-05T14:51:40.713Z</time></trkpt><trkpt lat="43.1336829" lon="13.7860353"><ele>140.0</ele><time>2026-04-05T14:51:41.708Z</time></trkpt><trkpt lat="43.1337899" lon="13.7861607"><ele>140.0</ele><time>2026-04-05T14:51:42.709Z</time></trkpt><trkpt lat="43.1338942" lon="13.7862812"><ele>138.0</ele><time>2026-04-05T14:51:43.708Z</time></trkpt><trkpt lat="43.1339942" lon="13.7863998"><ele>136.0</ele><time>2026-04-05T14:51:44.709Z</time></trkpt><trkpt lat="43.1340981" lon="13.7865158"><ele>134.0</ele><time>2026-04-05T14:51:45.706Z</time></trkpt><trkpt lat="43.1342067" lon="13.7866327"><ele>132.0</ele><time>2026-04-05T14:51:46.706Z</time></trkpt><trkpt lat="43.13432" lon="13.7867552"><ele>129.25</ele><time>2026-04-05T14:51:47.711Z</time></trkpt><trkpt lat="43.134433" lon="13.7868772"><ele>126.5</ele><time>2026-04-05T14:51:48.712Z</time></trkpt><trkpt lat="43.1345461" lon="13.7870045"><ele>123.75</ele><time>2026-04-05T14:51:49.708Z</time></trkpt><trkpt lat="43.1346594" lon="13.7871287"><ele>121.0</ele><time>2026-04-05T14:51:50.708Z</time></trkpt><trkpt lat="43.1347732" lon="13.7872511"><ele>121.0</ele><time>2026-04-05T14:51:51.707Z</time></trkpt><trkpt lat="43.1348837" lon="13.7873689"><ele>121.0</ele><time>2026-04-05T14:51:52.706Z</time></trkpt><trkpt lat="43.1349878" lon="13.7874801"><ele>121.0</ele><time>2026-04-05T14:51:53.707Z</time></trkpt><trkpt lat="43.1350855" lon="13.7875953"><ele>121.0</ele><time>2026-04-05T14:51:54.718Z</time></trkpt><trkpt lat="43.1351896" lon="13.7877168"><ele>120.5</ele><time>2026-04-05T14:51:55.711Z</time></trkpt><trkpt lat="43.135291" lon="13.7878282"><ele>120.0</ele><time>2026-04-05T14:51:56.713Z</time></trkpt><trkpt lat="43.1353962" lon="13.7879349"><ele>119.5</ele><time>2026-04-05T14:51:57.708Z</time></trkpt><trkpt lat="43.1355009" lon="13.7880398"><ele>119.0</ele><time>2026-04-05T14:51:58.714Z</time></trkpt><trkpt lat="43.135599" lon="13.7881407"><ele>119.0</ele><time>2026-04-05T14:51:59.714Z</time></trkpt><trkpt lat="43.135697" lon="13.7882295"><ele>119.0</ele><time>2026-04-05T14:52:00.712Z</time></trkpt><trkpt lat="43.1357928" lon="13.7883288"><ele>119.0</ele><time>2026-04-05T14:52:01.711Z</time></trkpt><trkpt lat="43.1358872" lon="13.7884333"><ele>119.0</ele><time>2026-04-05T14:52:02.703Z</time></trkpt><trkpt lat="43.1359835" lon="13.7885294"><ele>115.75</ele><time>2026-04-05T14:52:03.709Z</time></trkpt><trkpt lat="43.136078" lon="13.7886123"><ele>112.5</ele><time>2026-04-05T14:52:04.705Z</time></trkpt><trkpt lat="43.1361759" lon="13.7886941"><ele>109.25</ele><time>2026-04-05T14:52:05.707Z</time></trkpt><trkpt lat="43.1362742" lon="13.7887574"><ele>106.0</ele><time>2026-04-05T14:52:06.706Z</time></trkpt><trkpt lat="43.1363834" lon="13.7888192"><ele>106.0</ele><time>2026-04-05T14:52:07.712Z</time></trkpt><trkpt lat="43.1364863" lon="13.788877"><ele>106.0</ele><time>2026-04-05T14:52:08.708Z</time></trkpt><trkpt lat="43.1365789" lon="13.788956"><ele>106.0</ele><time>2026-04-05T14:52:09.71Z</time></trkpt><trkpt lat="43.1366551" lon="13.789059"><ele>106.0</ele><time>2026-04-05T14:52:10.71Z</time></trkpt><trkpt lat="43.1367206" lon="13.7891892"><ele>106.0</ele><time>2026-04-05T14:52:11.706Z</time></trkpt><trkpt lat="43.1367816" lon="13.7893208"><ele>103.6</ele><time>2026-04-05T14:52:12.714Z</time></trkpt><trkpt lat="43.1368381" lon="13.789452"><ele>101.19999999999999</ele><time>2026-04-05T14:52:13.711Z</time></trkpt><trkpt lat="43.1368921" lon="13.7895797"><ele>98.80000000000001</ele><time>2026-04-05T14:52:14.706Z</time></trkpt><trkpt lat="43.1369542" lon="13.7897086"><ele>96.4</ele><time>2026-04-05T14:52:15.708Z</time></trkpt><trkpt lat="43.1370211" lon="13.789837"><ele>94.0</ele><time>2026-04-05T14:52:16.706Z</time></trkpt><trkpt lat="43.1370987" lon="13.7899609"><ele>94.0</ele><time>2026-04-05T14:52:17.707Z</time></trkpt><trkpt lat="43.137189" lon="13.7900733"><ele>94.0</ele><time>2026-04-05T14:52:18.711Z</time></trkpt><trkpt lat="43.137291" lon="13.7901651"><ele>94.0</ele><time>2026-04-05T14:52:19.711Z</time></trkpt><trkpt lat="43.1373963" lon="13.7902524"><ele>94.0</ele><time>2026-04-05T14:52:20.71Z</time></trkpt><trkpt lat="43.137521" lon="13.7903204"><ele>94.25</ele><time>2026-04-05T14:52:21.718Z</time></trkpt><trkpt lat="43.1376457" lon="13.7903954"><ele>94.5</ele><time>2026-04-05T14:52:22.71Z</time></trkpt><trkpt lat="43.1377781" lon="13.7904765"><ele>94.75</ele><time>2026-04-05T14:52:23.699Z</time></trkpt><trkpt lat="43.1379086" lon="13.7905658"><ele>95.0</ele><time>2026-04-05T14:52:24.713Z</time></trkpt><trkpt lat="43.138043" lon="13.7906586"><ele>95.0</ele><time>2026-04-05T14:52:25.706Z</time></trkpt><trkpt lat="43.138163" lon="13.7907482"><ele>95.0</ele><time>2026-04-05T14:52:26.716Z</time></trkpt><trkpt lat="43.1382739" lon="13.7908338"><ele>95.0</ele><time>2026-04-05T14:52:27.712Z</time></trkpt><trkpt lat="43.1383824" lon="13.7909218"><ele>95.0</ele><time>2026-04-05T14:52:28.707Z</time></trkpt><trkpt lat="43.1384895" lon="13.7910122"><ele>96.75</ele><time>2026-04-05T14:52:29.705Z</time></trkpt><trkpt lat="43.1385924" lon="13.7911048"><ele>98.5</ele><time>2026-04-05T14:52:30.708Z</time></trkpt><trkpt lat="43.1386947" lon="13.791205"><ele>100.25</ele><time>2026-04-05T14:52:31.711Z</time></trkpt><trkpt lat="43.138789" lon="13.7913142"><ele>102.0</ele><time>2026-04-05T14:52:32.711Z</time></trkpt><trkpt lat="43.1388782" lon="13.7914204"><ele>102.0</ele><time>2026-04-05T14:52:33.709Z</time></trkpt><trkpt lat="43.1389435" lon="13.791522"><ele>102.0</ele><time>2026-04-05T14:52:34.705Z</time></trkpt><trkpt lat="43.1389976" lon="13.7916135"><ele>102.0</ele><time>2026-04-05T14:52:35.71Z</time></trkpt><trkpt lat="43.1390457" lon="13.7916827"><ele>102.0</ele><time>2026-04-05T14:52:36.709Z</time></trkpt><trkpt lat="43.1391223" lon="13.791787"><ele>102.0</ele><time>2026-04-05T14:52:38.727Z</time></trkpt><trkpt lat="43.1391917" lon="13.7917958"><ele>102.0</ele><time>2026-04-05T14:52:41.715Z</time></trkpt><trkpt lat="43.1392392" lon="13.7916692"><ele>105.19999999999999</ele><time>2026-04-05T14:52:43.708Z</time></trkpt><trkpt lat="43.1392735" lon="13.7915685"><ele>108.4</ele><time>2026-04-05T14:52:44.705Z</time></trkpt><trkpt lat="43.1393256" lon="13.7914404"><ele>111.60000000000001</ele><time>2026-04-05T14:52:45.709Z</time></trkpt><trkpt lat="43.1393899" lon="13.791297"><ele>114.80000000000001</ele><time>2026-04-05T14:52:46.709Z</time></trkpt><trkpt lat="43.1394574" lon="13.7911382"><ele>118.0</ele><time>2026-04-05T14:52:47.709Z</time></trkpt><trkpt lat="43.1395217" lon="13.7909713"><ele>118.0</ele><time>2026-04-05T14:52:48.709Z</time></trkpt><trkpt lat="43.1395793" lon="13.7908127"><ele>118.0</ele><time>2026-04-05T14:52:49.709Z</time></trkpt><trkpt lat="43.1396318" lon="13.7906614"><ele>118.0</ele><time>2026-04-05T14:52:50.704Z</time></trkpt><trkpt lat="43.1396832" lon="13.7905045"><ele>118.0</ele><time>2026-04-05T14:52:51.711Z</time></trkpt><trkpt lat="43.1397331" lon="13.7903521"><ele>118.0</ele><time>2026-04-05T14:52:52.705Z</time></trkpt><trkpt lat="43.1397789" lon="13.790203"><ele>118.0</ele><time>2026-04-05T14:52:53.715Z</time></trkpt><trkpt lat="43.1398215" lon="13.7900542"><ele>118.0</ele><time>2026-04-05T14:52:54.709Z</time></trkpt><trkpt lat="43.1398667" lon="13.7898992"><ele>118.0</ele><time>2026-04-05T14:52:55.712Z</time></trkpt><trkpt lat="43.1399157" lon="13.7897396"><ele>118.0</ele><time>2026-04-05T14:52:56.708Z</time></trkpt><trkpt lat="43.139965" lon="13.7895772"><ele>118.0</ele><time>2026-04-05T14:52:57.716Z</time></trkpt><trkpt lat="43.1400156" lon="13.7894246"><ele>118.0</ele><time>2026-04-05T14:52:58.708Z</time></trkpt><trkpt lat="43.1400762" lon="13.7892763"><ele>118.0</ele><time>2026-04-05T14:52:59.709Z</time></trkpt><trkpt lat="43.1401547" lon="13.7891372"><ele>115.5</ele><time>2026-04-05T14:53:00.712Z</time></trkpt><trkpt lat="43.1402525" lon="13.789008"><ele>113.0</ele><time>2026-04-05T14:53:01.711Z</time></trkpt><trkpt lat="43.1403672" lon="13.78889"><ele>110.5</ele><time>2026-04-05T14:53:02.708Z</time></trkpt><trkpt lat="43.1404882" lon="13.7887758"><ele>108.0</ele><time>2026-04-05T14:53:03.714Z</time></trkpt><trkpt lat="43.1406087" lon="13.7886618"><ele>108.25</ele><time>2026-04-05T14:53:04.71Z</time></trkpt><trkpt lat="43.140728" lon="13.7885483"><ele>108.5</ele><time>2026-04-05T14:53:05.716Z</time></trkpt><trkpt lat="43.1408473" lon="13.7884374"><ele>108.75</ele><time>2026-04-05T14:53:06.708Z</time></trkpt><trkpt lat="43.1409604" lon="13.7883353"><ele>109.0</ele><time>2026-04-05T14:53:07.715Z</time></trkpt><trkpt lat="43.1410685" lon="13.7882378"><ele>109.0</ele><time>2026-04-05T14:53:08.71Z</time></trkpt><trkpt lat="43.1411776" lon="13.7881381"><ele>109.0</ele><time>2026-04-05T14:53:09.706Z</time></trkpt><trkpt lat="43.1412854" lon="13.788039"><ele>109.0</ele><time>2026-04-05T14:53:10.709Z</time></trkpt><trkpt lat="43.1413954" lon="13.7879382"><ele>109.0</ele><time>2026-04-05T14:53:11.712Z</time></trkpt><trkpt lat="43.1415036" lon="13.7878359"><ele>108.6</ele><time>2026-04-05T14:53:12.703Z</time></trkpt><trkpt lat="43.1416052" lon="13.787734"><ele>108.2</ele><time>2026-04-05T14:53:13.704Z</time></trkpt><trkpt lat="43.1416932" lon="13.7876313"><ele>107.79999999999998</ele><time>2026-04-05T14:53:14.712Z</time></trkpt><trkpt lat="43.1417616" lon="13.7875293"><ele>107.39999999999999</ele><time>2026-04-05T14:53:15.705Z</time></trkpt><trkpt lat="43.1418037" lon="13.7874177"><ele>107.0</ele><time>2026-04-05T14:53:16.704Z</time></trkpt><trkpt lat="43.1418151" lon="13.7872961"><ele>107.0</ele><time>2026-04-05T14:53:17.703Z</time></trkpt><trkpt lat="43.141796" lon="13.7871667"><ele>106.99999999999999</ele><time>2026-04-05T14:53:18.703Z</time></trkpt><trkpt lat="43.1417604" lon="13.7870432"><ele>106.99999999999999</ele><time>2026-04-05T14:53:19.715Z</time></trkpt><trkpt lat="43.1417263" lon="13.786925"><ele>107.0</ele><time>2026-04-05T14:53:20.712Z</time></trkpt><trkpt lat="43.1417052" lon="13.7868088"><ele>107.0</ele><time>2026-04-05T14:53:21.717Z</time></trkpt><trkpt lat="43.1416992" lon="13.7866942"><ele>105.66666666666666</ele><time>2026-04-05T14:53:22.709Z</time></trkpt><trkpt lat="43.1417097" lon="13.7865876"><ele>104.33333333333333</ele><time>2026-04-05T14:53:23.706Z</time></trkpt><trkpt lat="43.141742" lon="13.786502"><ele>103.0</ele><time>2026-04-05T14:53:24.705Z</time></trkpt><trkpt lat="43.1417972" lon="13.7864405"><ele>101.66666666666666</ele><time>2026-04-05T14:53:25.711Z</time></trkpt><trkpt lat="43.1418755" lon="13.7864067"><ele>100.33333333333333</ele><time>2026-04-05T14:53:26.72Z</time></trkpt><trkpt lat="43.1419582" lon="13.7864072"><ele>99.0</ele><time>2026-04-05T14:53:27.702Z</time></trkpt><trkpt lat="43.1420322" lon="13.7864312"><ele>99.0</ele><time>2026-04-05T14:53:28.711Z</time></trkpt><trkpt lat="43.1421331" lon="13.7864123"><ele>99.0</ele><time>2026-04-05T14:53:30.705Z</time></trkpt><trkpt lat="43.1421323" lon="13.7863093"><ele>99.0</ele><time>2026-04-05T14:53:32.712Z</time></trkpt><trkpt lat="43.142085" lon="13.7862511"><ele>99.0</ele><time>2026-04-05T14:53:33.716Z</time></trkpt><trkpt lat="43.1420087" lon="13.7862044"><ele>99.0</ele><time>2026-04-05T14:53:34.707Z</time></trkpt><trkpt lat="43.1419174" lon="13.7861628"><ele>99.0</ele><time>2026-04-05T14:53:35.704Z</time></trkpt><trkpt lat="43.1418153" lon="13.7861115"><ele>99.0</ele><time>2026-04-05T14:53:36.714Z</time></trkpt><trkpt lat="43.1417132" lon="13.786058"><ele>99.0</ele><time>2026-04-05T14:53:37.71Z</time></trkpt><trkpt lat="43.1416136" lon="13.7860108"><ele>99.0</ele><time>2026-04-05T14:53:38.725Z</time></trkpt><trkpt lat="43.1415161" lon="13.7859816"><ele>99.0</ele><time>2026-04-05T14:53:39.713Z</time></trkpt><trkpt lat="43.1414299" lon="13.7860021"><ele>99.0</ele><time>2026-04-05T14:53:40.712Z</time></trkpt><trkpt lat="43.1413512" lon="13.7860497"><ele>96.16666666666667</ele><time>2026-04-05T14:53:41.707Z</time></trkpt><trkpt lat="43.141282" lon="13.7861027"><ele>93.33333333333333</ele><time>2026-04-05T14:53:42.709Z</time></trkpt><trkpt lat="43.1412164" lon="13.7861243"><ele>90.5</ele><time>2026-04-05T14:53:43.704Z</time></trkpt><trkpt lat="43.1411108" lon="13.7860511"><ele>87.66666666666666</ele><time>2026-04-05T14:53:45.704Z</time></trkpt><trkpt lat="43.1410778" lon="13.7859342"><ele>84.83333333333333</ele><time>2026-04-05T14:53:46.705Z</time></trkpt><trkpt lat="43.141056" lon="13.7858148"><ele>82.0</ele><time>2026-04-05T14:53:47.707Z</time></trkpt><trkpt lat="43.1410348" lon="13.7856917"><ele>81.19999999999999</ele><time>2026-04-05T14:53:48.708Z</time></trkpt><trkpt lat="43.1410421" lon="13.7855755"><ele>80.39999999999999</ele><time>2026-04-05T14:53:49.707Z</time></trkpt><trkpt lat="43.1410724" lon="13.785458"><ele>79.6</ele><time>2026-04-05T14:53:50.702Z</time></trkpt><trkpt lat="43.141123" lon="13.7853376"><ele>78.8</ele><time>2026-04-05T14:53:51.709Z</time></trkpt><trkpt lat="43.1411848" lon="13.7852102"><ele>78.0</ele><time>2026-04-05T14:53:52.708Z</time></trkpt><trkpt lat="43.1412508" lon="13.7850784"><ele>76.4</ele><time>2026-04-05T14:53:53.705Z</time></trkpt><trkpt lat="43.1413116" lon="13.7849473"><ele>74.8</ele><time>2026-04-05T14:53:54.706Z</time></trkpt><trkpt lat="43.14137" lon="13.7848185"><ele>73.2</ele><time>2026-04-05T14:53:55.712Z</time></trkpt><trkpt lat="43.1413983" lon="13.7846772"><ele>71.6</ele><time>2026-04-05T14:53:56.705Z</time></trkpt><trkpt lat="43.1414036" lon="13.7845191"><ele>70.0</ele><time>2026-04-05T14:53:57.706Z</time></trkpt><trkpt lat="43.1413911" lon="13.7843696"><ele>67.6</ele><time>2026-04-05T14:53:58.705Z</time></trkpt><trkpt lat="43.1413657" lon="13.7842204"><ele>65.2</ele><time>2026-04-05T14:53:59.709Z</time></trkpt><trkpt lat="43.1413398" lon="13.784075"><ele>62.8</ele><time>2026-04-05T14:54:00.704Z</time></trkpt><trkpt lat="43.1413284" lon="13.7839328"><ele>60.4</ele><time>2026-04-05T14:54:01.707Z</time></trkpt><trkpt lat="43.1413415" lon="13.7837961"><ele>58.0</ele><time>2026-04-05T14:54:02.709Z</time></trkpt><trkpt lat="43.1413786" lon="13.7836747"><ele>58.0</ele><time>2026-04-05T14:54:03.709Z</time></trkpt><trkpt lat="43.1414391" lon="13.7835661"><ele>58.0</ele><time>2026-04-05T14:54:04.702Z</time></trkpt><trkpt lat="43.1415203" lon="13.783471"><ele>58.0</ele><time>2026-04-05T14:54:05.708Z</time></trkpt><trkpt lat="43.1416133" lon="13.7833978"><ele>58.0</ele><time>2026-04-05T14:54:06.709Z</time></trkpt><trkpt lat="43.1417186" lon="13.783341"><ele>58.0</ele><time>2026-04-05T14:54:07.717Z</time></trkpt><trkpt lat="43.1418277" lon="13.7833059"><ele>58.75</ele><time>2026-04-05T14:54:08.716Z</time></trkpt><trkpt lat="43.1419444" lon="13.7832876"><ele>59.5</ele><time>2026-04-05T14:54:09.713Z</time></trkpt><trkpt lat="43.1420663" lon="13.7832758"><ele>60.25</ele><time>2026-04-05T14:54:10.711Z</time></trkpt><trkpt lat="43.1421824" lon="13.7832688"><ele>61.0</ele><time>2026-04-05T14:54:11.706Z</time></trkpt><trkpt lat="43.142294" lon="13.783273"><ele>61.8</ele><time>2026-04-05T14:54:12.707Z</time></trkpt><trkpt lat="43.1423991" lon="13.7832917"><ele>62.599999999999994</ele><time>2026-04-05T14:54:13.713Z</time></trkpt><trkpt lat="43.1424986" lon="13.7833259"><ele>63.4</ele><time>2026-04-05T14:54:14.709Z</time></trkpt><trkpt lat="43.1425875" lon="13.7833842"><ele>64.2</ele><time>2026-04-05T14:54:15.708Z</time></trkpt><trkpt lat="43.1426661" lon="13.7834563"><ele>65.0</ele><time>2026-04-05T14:54:16.704Z</time></trkpt><trkpt lat="43.1427342" lon="13.7835311"><ele>65.0</ele><time>2026-04-05T14:54:17.706Z</time></trkpt><trkpt lat="43.1427998" lon="13.7835871"><ele>65.0</ele><time>2026-04-05T14:54:18.702Z</time></trkpt><trkpt lat="43.1428652" lon="13.7836116"><ele>65.0</ele><time>2026-04-05T14:54:19.707Z</time></trkpt><trkpt lat="43.1429792" lon="13.7835482"><ele>65.0</ele><time>2026-04-05T14:54:21.71Z</time></trkpt><trkpt lat="43.1430153" lon="13.7834614"><ele>65.0</ele><time>2026-04-05T14:54:22.706Z</time></trkpt><trkpt lat="43.1430282" lon="13.7833579"><ele>65.0</ele><time>2026-04-05T14:54:23.726Z</time></trkpt><trkpt lat="43.1430364" lon="13.7832349"><ele>63.2</ele><time>2026-04-05T14:54:24.705Z</time></trkpt><trkpt lat="43.1430501" lon="13.7830963"><ele>61.4</ele><time>2026-04-05T14:54:25.703Z</time></trkpt><trkpt lat="43.1430629" lon="13.7829455"><ele>59.599999999999994</ele><time>2026-04-05T14:54:26.706Z</time></trkpt><trkpt lat="43.1430747" lon="13.7827974"><ele>57.8</ele><time>2026-04-05T14:54:27.703Z</time></trkpt><trkpt lat="43.1430884" lon="13.7826538"><ele>56.0</ele><time>2026-04-05T14:54:28.702Z</time></trkpt><trkpt lat="43.1431032" lon="13.7825129"><ele>53.8</ele><time>2026-04-05T14:54:29.708Z</time></trkpt><trkpt lat="43.143118" lon="13.7823741"><ele>51.599999999999994</ele><time>2026-04-05T14:54:30.71Z</time></trkpt><trkpt lat="43.1431369" lon="13.7822391"><ele>49.4</ele><time>2026-04-05T14:54:31.707Z</time></trkpt><trkpt lat="43.1431674" lon="13.7821112"><ele>47.2</ele><time>2026-04-05T14:54:32.708Z</time></trkpt><trkpt lat="43.1432122" lon="13.7819944"><ele>45.0</ele><time>2026-04-05T14:54:33.702Z</time></trkpt><trkpt lat="43.1432676" lon="13.7818776"><ele>43.0</ele><time>2026-04-05T14:54:34.716Z</time></trkpt><trkpt lat="43.1433296" lon="13.781765"><ele>41.0</ele><time>2026-04-05T14:54:35.706Z</time></trkpt><trkpt lat="43.1433922" lon="13.7816583"><ele>39.0</ele><time>2026-04-05T14:54:36.707Z</time></trkpt><trkpt lat="43.1434551" lon="13.7815585"><ele>37.0</ele><time>2026-04-05T14:54:37.702Z</time></trkpt><trkpt lat="43.1435178" lon="13.7814675"><ele>35.0</ele><time>2026-04-05T14:54:38.706Z</time></trkpt><trkpt lat="43.143578" lon="13.781391"><ele>35.0</ele><time>2026-04-05T14:54:39.708Z</time></trkpt><trkpt lat="43.1436308" lon="13.7813366"><ele>35.0</ele><time>2026-04-05T14:54:40.71Z</time></trkpt><trkpt lat="43.1437101" lon="13.7812861"><ele>35.0</ele><time>2026-04-05T14:54:42.707Z</time></trkpt><trkpt lat="43.1438237" lon="13.7812644"><ele>35.0</ele><time>2026-04-05T14:54:45.701Z</time></trkpt><trkpt lat="43.1438924" lon="13.7812798"><ele>35.0</ele><time>2026-04-05T14:54:46.705Z</time></trkpt><trkpt lat="43.1439802" lon="13.7812969"><ele>35.0</ele><time>2026-04-05T14:54:47.701Z</time></trkpt><trkpt lat="43.1440825" lon="13.781312"><ele>35.0</ele><time>2026-04-05T14:54:48.704Z</time></trkpt><trkpt lat="43.1442001" lon="13.7813314"><ele>35.0</ele><time>2026-04-05T14:54:49.711Z</time></trkpt><trkpt lat="43.144325" lon="13.781354"><ele>35.0</ele><time>2026-04-05T14:54:50.707Z</time></trkpt><trkpt lat="43.1444603" lon="13.7813799"><ele>35.0</ele><time>2026-04-05T14:54:51.706Z</time></trkpt><trkpt lat="43.1446018" lon="13.7814145"><ele>35.0</ele><time>2026-04-05T14:54:52.706Z</time></trkpt><trkpt lat="43.1447454" lon="13.781457"><ele>35.0</ele><time>2026-04-05T14:54:53.704Z</time></trkpt><trkpt lat="43.1448934" lon="13.7815053"><ele>35.0</ele><time>2026-04-05T14:54:54.71Z</time></trkpt><trkpt lat="43.1450434" lon="13.7815468"><ele>33.666666666666664</ele><time>2026-04-05T14:54:55.706Z</time></trkpt><trkpt lat="43.145196" lon="13.7815784"><ele>32.333333333333336</ele><time>2026-04-05T14:54:56.71Z</time></trkpt><trkpt lat="43.1453468" lon="13.7815943"><ele>31.0</ele><time>2026-04-05T14:54:57.709Z</time></trkpt><trkpt lat="43.1454956" lon="13.7815954"><ele>31.0</ele><time>2026-04-05T14:54:58.703Z</time></trkpt><trkpt lat="43.1456373" lon="13.7815864"><ele>31.0</ele><time>2026-04-05T14:54:59.709Z</time></trkpt><trkpt lat="43.1457706" lon="13.7815713"><ele>31.0</ele><time>2026-04-05T14:55:00.707Z</time></trkpt><trkpt lat="43.1458953" lon="13.781549"><ele>31.0</ele><time>2026-04-05T14:55:01.71Z</time></trkpt><trkpt lat="43.1460095" lon="13.7815162"><ele>29.75</ele><time>2026-04-05T14:55:02.704Z</time></trkpt><trkpt lat="43.1460947" lon="13.7814355"><ele>28.5</ele><time>2026-04-05T14:55:03.704Z</time></trkpt><trkpt lat="43.1461428" lon="13.7812966"><ele>27.25</ele><time>2026-04-05T14:55:04.708Z</time></trkpt><trkpt lat="43.146156" lon="13.7811184"><ele>26.0</ele><time>2026-04-05T14:55:05.713Z</time></trkpt><trkpt lat="43.1461648" lon="13.7809186"><ele>25.0</ele><time>2026-04-05T14:55:06.7Z</time></trkpt><trkpt lat="43.1461984" lon="13.7807004"><ele>24.0</ele><time>2026-04-05T14:55:07.711Z</time></trkpt><trkpt lat="43.1462545" lon="13.7804805"><ele>23.0</ele><time>2026-04-05T14:55:08.705Z</time></trkpt><trkpt lat="43.1463189" lon="13.7802692"><ele>21.666666666666668</ele><time>2026-04-05T14:55:09.707Z</time></trkpt><trkpt lat="43.1463758" lon="13.7800566"><ele>20.333333333333332</ele><time>2026-04-05T14:55:10.715Z</time></trkpt><trkpt lat="43.1464212" lon="13.7798463"><ele>19.0</ele><time>2026-04-05T14:55:11.708Z</time></trkpt><trkpt lat="43.1464693" lon="13.7796341"><ele>19.0</ele><time>2026-04-05T14:55:12.71Z</time></trkpt><trkpt lat="43.1465274" lon="13.7794239"><ele>19.0</ele><time>2026-04-05T14:55:13.703Z</time></trkpt><trkpt lat="43.1465974" lon="13.7792216"><ele>19.0</ele><time>2026-04-05T14:55:14.712Z</time></trkpt><trkpt lat="43.1466726" lon="13.7790294"><ele>18.333333333333332</ele><time>2026-04-05T14:55:15.706Z</time></trkpt><trkpt lat="43.1467561" lon="13.7788387"><ele>17.666666666666668</ele><time>2026-04-05T14:55:16.709Z</time></trkpt><trkpt lat="43.1468449" lon="13.7786496"><ele>17.0</ele><time>2026-04-05T14:55:17.715Z</time></trkpt><trkpt lat="43.1469316" lon="13.7784673"><ele>16.666666666666668</ele><time>2026-04-05T14:55:18.712Z</time></trkpt><trkpt lat="43.1470229" lon="13.7782916"><ele>16.333333333333332</ele><time>2026-04-05T14:55:19.713Z</time></trkpt><trkpt lat="43.1471262" lon="13.7781304"><ele>16.0</ele><time>2026-04-05T14:55:20.708Z</time></trkpt><trkpt lat="43.1472369" lon="13.7779856"><ele>16.0</ele><time>2026-04-05T14:55:21.712Z</time></trkpt><trkpt lat="43.1473469" lon="13.777855"><ele>16.0</ele><time>2026-04-05T14:55:22.708Z</time></trkpt><trkpt lat="43.1474577" lon="13.7777291"><ele>16.0</ele><time>2026-04-05T14:55:23.709Z</time></trkpt><trkpt lat="43.1475721" lon="13.7776017"><ele>16.0</ele><time>2026-04-05T14:55:24.71Z</time></trkpt><trkpt lat="43.1476949" lon="13.777495"><ele>15.25</ele><time>2026-04-05T14:55:25.706Z</time></trkpt><trkpt lat="43.1478255" lon="13.7774361"><ele>14.5</ele><time>2026-04-05T14:55:26.711Z</time></trkpt><trkpt lat="43.1479557" lon="13.7774313"><ele>13.75</ele><time>2026-04-05T14:55:27.711Z</time></trkpt><trkpt lat="43.1480916" lon="13.7774745"><ele>13.0</ele><time>2026-04-05T14:55:28.712Z</time></trkpt><trkpt lat="43.1482325" lon="13.7775578"><ele>13.0</ele><time>2026-04-05T14:55:29.706Z</time></trkpt><trkpt lat="43.1483627" lon="13.7776602"><ele>13.0</ele><time>2026-04-05T14:55:30.725Z</time></trkpt><trkpt lat="43.148485" lon="13.7777818"><ele>13.0</ele><time>2026-04-05T14:55:31.712Z</time></trkpt><trkpt lat="43.1485958" lon="13.7779284"><ele>13.0</ele><time>2026-04-05T14:55:32.712Z</time></trkpt><trkpt lat="43.148698" lon="13.778095"><ele>13.0</ele><time>2026-04-05T14:55:33.722Z</time></trkpt><trkpt lat="43.1487961" lon="13.7782566"><ele>13.0</ele><time>2026-04-05T14:55:34.712Z</time></trkpt><trkpt lat="43.1489012" lon="13.7784046"><ele>12.666666666666666</ele><time>2026-04-05T14:55:35.707Z</time></trkpt><trkpt lat="43.1490241" lon="13.7785329"><ele>12.333333333333332</ele><time>2026-04-05T14:55:36.715Z</time></trkpt><trkpt lat="43.1491622" lon="13.7786385"><ele>12.0</ele><time>2026-04-05T14:55:37.709Z</time></trkpt><trkpt lat="43.149302" lon="13.7787471"><ele>12.0</ele><time>2026-04-05T14:55:38.707Z</time></trkpt><trkpt lat="43.1494455" lon="13.7788378"><ele>12.0</ele><time>2026-04-05T14:55:39.711Z</time></trkpt><trkpt lat="43.1495756" lon="13.7789273"><ele>12.0</ele><time>2026-04-05T14:55:40.709Z</time></trkpt><trkpt lat="43.1496892" lon="13.7790578"><ele>12.0</ele><time>2026-04-05T14:55:41.706Z</time></trkpt><trkpt lat="43.1497835" lon="13.7792223"><ele>12.0</ele><time>2026-04-05T14:55:42.706Z</time></trkpt><trkpt lat="43.1498547" lon="13.7794143"><ele>12.0</ele><time>2026-04-05T14:55:43.711Z</time></trkpt><trkpt lat="43.1499198" lon="13.7796235"><ele>11.333333333333334</ele><time>2026-04-05T14:55:44.709Z</time></trkpt><trkpt lat="43.1499816" lon="13.7798373"><ele>10.666666666666668</ele><time>2026-04-05T14:55:45.702Z</time></trkpt><trkpt lat="43.1500375" lon="13.780039"><ele>10.0</ele><time>2026-04-05T14:55:46.716Z</time></trkpt><trkpt lat="43.1500702" lon="13.7802334"><ele>10.0</ele><time>2026-04-05T14:55:47.708Z</time></trkpt><trkpt lat="43.1500736" lon="13.7804318"><ele>10.0</ele><time>2026-04-05T14:55:48.708Z</time></trkpt><trkpt lat="43.1500457" lon="13.7806312"><ele>10.0</ele><time>2026-04-05T14:55:49.725Z</time></trkpt><trkpt lat="43.1500126" lon="13.7808222"><ele>10.0</ele><time>2026-04-05T14:55:50.71Z</time></trkpt><trkpt lat="43.1499867" lon="13.7810027"><ele>11.0</ele><time>2026-04-05T14:55:51.708Z</time></trkpt><trkpt lat="43.1499945" lon="13.7811809"><ele>12.0</ele><time>2026-04-05T14:55:52.715Z</time></trkpt><trkpt lat="43.1500394" lon="13.7813492"><ele>13.0</ele><time>2026-04-05T14:55:53.707Z</time></trkpt><trkpt lat="43.1501156" lon="13.78151"><ele>14.0</ele><time>2026-04-05T14:55:54.708Z</time></trkpt><trkpt lat="43.1502187" lon="13.7816723"><ele>14.0</ele><time>2026-04-05T14:55:55.705Z</time></trkpt><trkpt lat="43.1503263" lon="13.7818352"><ele>14.0</ele><time>2026-04-05T14:55:56.708Z</time></trkpt><trkpt lat="43.1504466" lon="13.7819861"><ele>14.0</ele><time>2026-04-05T14:55:57.712Z</time></trkpt><trkpt lat="43.1505867" lon="13.7821079"><ele>14.666666666666668</ele><time>2026-04-05T14:55:58.705Z</time></trkpt><trkpt lat="43.150741" lon="13.7822011"><ele>15.333333333333332</ele><time>2026-04-05T14:55:59.705Z</time></trkpt><trkpt lat="43.1509037" lon="13.7822786"><ele>16.0</ele><time>2026-04-05T14:56:00.704Z</time></trkpt><trkpt lat="43.1510651" lon="13.7823517"><ele>16.0</ele><time>2026-04-05T14:56:01.725Z</time></trkpt><trkpt lat="43.151219" lon="13.7824149"><ele>16.0</ele><time>2026-04-05T14:56:02.705Z</time></trkpt><trkpt lat="43.1513738" lon="13.7824676"><ele>16.0</ele><time>2026-04-05T14:56:03.715Z</time></trkpt><trkpt lat="43.1515291" lon="13.7825213"><ele>15.0</ele><time>2026-04-05T14:56:04.714Z</time></trkpt><trkpt lat="43.1516855" lon="13.7825668"><ele>14.0</ele><time>2026-04-05T14:56:05.711Z</time></trkpt><trkpt lat="43.1518463" lon="13.7825865"><ele>13.0</ele><time>2026-04-05T14:56:06.713Z</time></trkpt><trkpt lat="43.1520093" lon="13.7825829"><ele>13.0</ele><time>2026-04-05T14:56:07.712Z</time></trkpt><trkpt lat="43.1521717" lon="13.7825719"><ele>13.0</ele><time>2026-04-05T14:56:08.705Z</time></trkpt><trkpt lat="43.1523302" lon="13.7825622"><ele>13.0</ele><time>2026-04-05T14:56:09.71Z</time></trkpt><trkpt lat="43.1524859" lon="13.7825657"><ele>12.333333333333332</ele><time>2026-04-05T14:56:10.708Z</time></trkpt><trkpt lat="43.1526413" lon="13.7825853"><ele>11.666666666666666</ele><time>2026-04-05T14:56:11.707Z</time></trkpt><trkpt lat="43.1527974" lon="13.7826197"><ele>11.0</ele><time>2026-04-05T14:56:12.713Z</time></trkpt><trkpt lat="43.1529552" lon="13.7826622"><ele>11.0</ele><time>2026-04-05T14:56:13.706Z</time></trkpt><trkpt lat="43.1531142" lon="13.7827094"><ele>11.0</ele><time>2026-04-05T14:56:14.708Z</time></trkpt><trkpt lat="43.1532711" lon="13.7827612"><ele>11.0</ele><time>2026-04-05T14:56:15.714Z</time></trkpt><trkpt lat="43.153421" lon="13.7828191"><ele>10.75</ele><time>2026-04-05T14:56:16.706Z</time></trkpt><trkpt lat="43.1535554" lon="13.7828943"><ele>10.5</ele><time>2026-04-05T14:56:17.705Z</time></trkpt><trkpt lat="43.1536795" lon="13.7829827"><ele>10.25</ele><time>2026-04-05T14:56:18.711Z</time></trkpt><trkpt lat="43.1537793" lon="13.7831127"><ele>10.0</ele><time>2026-04-05T14:56:19.707Z</time></trkpt><trkpt lat="43.1538578" lon="13.7832667"><ele>10.0</ele><time>2026-04-05T14:56:20.723Z</time></trkpt><trkpt lat="43.1539157" lon="13.7834518"><ele>10.0</ele><time>2026-04-05T14:56:21.703Z</time></trkpt><trkpt lat="43.1539531" lon="13.7836501"><ele>10.0</ele><time>2026-04-05T14:56:22.709Z</time></trkpt><trkpt lat="43.1539787" lon="13.7838584"><ele>10.0</ele><time>2026-04-05T14:56:23.706Z</time></trkpt><trkpt lat="43.1540071" lon="13.784075"><ele>10.0</ele><time>2026-04-05T14:56:24.705Z</time></trkpt><trkpt lat="43.1540432" lon="13.784297"><ele>10.0</ele><time>2026-04-05T14:56:25.703Z</time></trkpt><trkpt lat="43.1540797" lon="13.7845231"><ele>9.666666666666668</ele><time>2026-04-05T14:56:26.709Z</time></trkpt><trkpt lat="43.1541153" lon="13.7847521"><ele>9.333333333333334</ele><time>2026-04-05T14:56:27.713Z</time></trkpt><trkpt lat="43.1541568" lon="13.7849831"><ele>9.0</ele><time>2026-04-05T14:56:28.708Z</time></trkpt><trkpt lat="43.1542104" lon="13.7852131"><ele>10.0</ele><time>2026-04-05T14:56:29.711Z</time></trkpt><trkpt lat="43.1542738" lon="13.7854368"><ele>11.0</ele><time>2026-04-05T14:56:30.708Z</time></trkpt><trkpt lat="43.1543441" lon="13.78566"><ele>12.0</ele><time>2026-04-05T14:56:31.713Z</time></trkpt><trkpt lat="43.1544219" lon="13.7858769"><ele>12.0</ele><time>2026-04-05T14:56:32.706Z</time></trkpt><trkpt lat="43.1545079" lon="13.7860897"><ele>12.0</ele><time>2026-04-05T14:56:33.71Z</time></trkpt><trkpt lat="43.1545994" lon="13.7862997"><ele>12.0</ele><time>2026-04-05T14:56:34.72Z</time></trkpt><trkpt lat="43.1546892" lon="13.7865008"><ele>12.0</ele><time>2026-04-05T14:56:35.709Z</time></trkpt><trkpt lat="43.1547735" lon="13.7867026"><ele>12.0</ele><time>2026-04-05T14:56:36.709Z</time></trkpt><trkpt lat="43.1548535" lon="13.7869095"><ele>12.0</ele><time>2026-04-05T14:56:37.707Z</time></trkpt><trkpt lat="43.1549034" lon="13.787121"><ele>12.333333333333332</ele><time>2026-04-05T14:56:38.711Z</time></trkpt><trkpt lat="43.1549283" lon="13.7873379"><ele>12.666666666666666</ele><time>2026-04-05T14:56:39.707Z</time></trkpt><trkpt lat="43.1549299" lon="13.7875647"><ele>13.0</ele><time>2026-04-05T14:56:40.706Z</time></trkpt><trkpt lat="43.1549234" lon="13.7877962"><ele>15.0</ele><time>2026-04-05T14:56:41.711Z</time></trkpt><trkpt lat="43.1549209" lon="13.7880223"><ele>17.0</ele><time>2026-04-05T14:56:42.712Z</time></trkpt><trkpt lat="43.154936" lon="13.7882289"><ele>19.0</ele><time>2026-04-05T14:56:43.708Z</time></trkpt><trkpt lat="43.1549799" lon="13.7884381"><ele>21.0</ele><time>2026-04-05T14:56:44.714Z</time></trkpt><trkpt lat="43.1550501" lon="13.7886415"><ele>23.0</ele><time>2026-04-05T14:56:45.703Z</time></trkpt><trkpt lat="43.1551261" lon="13.7888339"><ele>25.0</ele><time>2026-04-05T14:56:46.713Z</time></trkpt><trkpt lat="43.1551965" lon="13.7890246"><ele>25.0</ele><time>2026-04-05T14:56:47.709Z</time></trkpt><trkpt lat="43.1552638" lon="13.7892179"><ele>25.0</ele><time>2026-04-05T14:56:48.713Z</time></trkpt><trkpt lat="43.1553308" lon="13.7894175"><ele>25.0</ele><time>2026-04-05T14:56:49.708Z</time></trkpt><trkpt lat="43.1554021" lon="13.7896223"><ele>26.0</ele><time>2026-04-05T14:56:50.708Z</time></trkpt><trkpt lat="43.1554806" lon="13.7898258"><ele>27.0</ele><time>2026-04-05T14:56:51.708Z</time></trkpt><trkpt lat="43.1555583" lon="13.7900194"><ele>28.0</ele><time>2026-04-05T14:56:52.714Z</time></trkpt><trkpt lat="43.155635" lon="13.7902034"><ele>25.75</ele><time>2026-04-05T14:56:53.708Z</time></trkpt><trkpt lat="43.1557111" lon="13.7903762"><ele>23.5</ele><time>2026-04-05T14:56:54.703Z</time></trkpt><trkpt lat="43.1557874" lon="13.7905363"><ele>21.25</ele><time>2026-04-05T14:56:55.709Z</time></trkpt><trkpt lat="43.1558621" lon="13.7906745"><ele>19.0</ele><time>2026-04-05T14:56:56.715Z</time></trkpt><trkpt lat="43.1559583" lon="13.7907936"><ele>19.0</ele><time>2026-04-05T14:56:57.723Z</time></trkpt><trkpt lat="43.156088" lon="13.7908579"><ele>19.0</ele><time>2026-04-05T14:56:58.707Z</time></trkpt><trkpt lat="43.1562332" lon="13.7908778"><ele>19.0</ele><time>2026-04-05T14:56:59.71Z</time></trkpt><trkpt lat="43.1563753" lon="13.7908783"><ele>19.0</ele><time>2026-04-05T14:57:00.706Z</time></trkpt><trkpt lat="43.1565084" lon="13.7908793"><ele>17.25</ele><time>2026-04-05T14:57:01.712Z</time></trkpt><trkpt lat="43.1566392" lon="13.790886"><ele>15.5</ele><time>2026-04-05T14:57:02.708Z</time></trkpt><trkpt lat="43.1567661" lon="13.7909088"><ele>13.75</ele><time>2026-04-05T14:57:03.704Z</time></trkpt><trkpt lat="43.1568851" lon="13.7909744"><ele>12.0</ele><time>2026-04-05T14:57:04.706Z</time></trkpt><trkpt lat="43.1569991" lon="13.7910808"><ele>12.0</ele><time>2026-04-05T14:57:05.717Z</time></trkpt><trkpt lat="43.1571092" lon="13.791214"><ele>12.0</ele><time>2026-04-05T14:57:06.702Z</time></trkpt><trkpt lat="43.1572099" lon="13.7913498"><ele>12.0</ele><time>2026-04-05T14:57:07.702Z</time></trkpt><trkpt lat="43.1573177" lon="13.7915074"><ele>12.0</ele><time>2026-04-05T14:57:08.708Z</time></trkpt><trkpt lat="43.1574268" lon="13.7916613"><ele>9.666666666666666</ele><time>2026-04-05T14:57:09.71Z</time></trkpt><trkpt lat="43.1575332" lon="13.7918266"><ele>7.333333333333334</ele><time>2026-04-05T14:57:10.703Z</time></trkpt><trkpt lat="43.1576392" lon="13.7919924"><ele>5.0</ele><time>2026-04-05T14:57:11.702Z</time></trkpt><trkpt lat="43.1577482" lon="13.7921644"><ele>5.0</ele><time>2026-04-05T14:57:12.704Z</time></trkpt><trkpt lat="43.1578586" lon="13.7923392"><ele>5.0</ele><time>2026-04-05T14:57:13.705Z</time></trkpt><trkpt lat="43.1579632" lon="13.7925255"><ele>5.0</ele><time>2026-04-05T14:57:14.706Z</time></trkpt><trkpt lat="43.1580585" lon="13.7927241"><ele>5.0</ele><time>2026-04-05T14:57:15.708Z</time></trkpt><trkpt lat="43.1581519" lon="13.792925"><ele>5.0</ele><time>2026-04-05T14:57:16.741Z</time></trkpt><trkpt lat="43.1582571" lon="13.7931195"><ele>5.0</ele><time>2026-04-05T14:57:17.708Z</time></trkpt><trkpt lat="43.1583685" lon="13.7933041"><ele>5.0</ele><time>2026-04-05T14:57:18.706Z</time></trkpt><trkpt lat="43.1584899" lon="13.7934837"><ele>5.0</ele><time>2026-04-05T14:57:19.719Z</time></trkpt><trkpt lat="43.1586121" lon="13.7936599"><ele>5.0</ele><time>2026-04-05T14:57:20.705Z</time></trkpt><trkpt lat="43.1587332" lon="13.7938355"><ele>4.666666666666667</ele><time>2026-04-05T14:57:21.702Z</time></trkpt><trkpt lat="43.158845" lon="13.7940103"><ele>4.333333333333333</ele><time>2026-04-05T14:57:22.713Z</time></trkpt><trkpt lat="43.1589373" lon="13.794201"><ele>4.0</ele><time>2026-04-05T14:57:23.701Z</time></trkpt><trkpt lat="43.1590125" lon="13.7944078"><ele>4.0</ele><time>2026-04-05T14:57:24.721Z</time></trkpt><trkpt lat="43.159061" lon="13.7946237"><ele>4.0</ele><time>2026-04-05T14:57:25.705Z</time></trkpt><trkpt lat="43.1590962" lon="13.7948521"><ele>4.0</ele><time>2026-04-05T14:57:26.705Z</time></trkpt><trkpt lat="43.1591243" lon="13.7950884"><ele>4.0</ele><time>2026-04-05T14:57:27.709Z</time></trkpt><trkpt lat="43.1591533" lon="13.7953252"><ele>4.0</ele><time>2026-04-05T14:57:28.704Z</time></trkpt><trkpt lat="43.1591848" lon="13.7955631"><ele>4.0</ele><time>2026-04-05T14:57:29.704Z</time></trkpt><trkpt lat="43.1592156" lon="13.7958059"><ele>4.0</ele><time>2026-04-05T14:57:30.703Z</time></trkpt><trkpt lat="43.1592471" lon="13.7960506"><ele>4.0</ele><time>2026-04-05T14:57:31.706Z</time></trkpt><trkpt lat="43.1592774" lon="13.7962985"><ele>4.0</ele><time>2026-04-05T14:57:32.706Z</time></trkpt><trkpt lat="43.1593066" lon="13.796548"><ele>4.0</ele><time>2026-04-05T14:57:33.702Z</time></trkpt><trkpt lat="43.1593349" lon="13.7967993"><ele>4.0</ele><time>2026-04-05T14:57:34.703Z</time></trkpt><trkpt lat="43.1593664" lon="13.7970467"><ele>4.0</ele><time>2026-04-05T14:57:35.705Z</time></trkpt><trkpt lat="43.1593987" lon="13.7972919"><ele>4.333333333333333</ele><time>2026-04-05T14:57:36.703Z</time></trkpt><trkpt lat="43.1594306" lon="13.7975352"><ele>4.666666666666667</ele><time>2026-04-05T14:57:37.722Z</time></trkpt><trkpt lat="43.1594594" lon="13.7977745"><ele>5.0</ele><time>2026-04-05T14:57:38.702Z</time></trkpt><trkpt lat="43.1594879" lon="13.7980087"><ele>5.0</ele><time>2026-04-05T14:57:39.705Z</time></trkpt><trkpt lat="43.1595153" lon="13.7982401"><ele>5.0</ele><time>2026-04-05T14:57:40.703Z</time></trkpt><trkpt lat="43.1595412" lon="13.7984676"><ele>5.0</ele><time>2026-04-05T14:57:41.702Z</time></trkpt><trkpt lat="43.1595685" lon="13.7986921"><ele>5.0</ele><time>2026-04-05T14:57:42.704Z</time></trkpt><trkpt lat="43.1596116" lon="13.7988958"><ele>5.0</ele><time>2026-04-05T14:57:43.697Z</time></trkpt><trkpt lat="43.1596234" lon="13.7991088"><ele>5.0</ele><time>2026-04-05T14:57:44.704Z</time></trkpt><trkpt lat="43.1596241" lon="13.7992808"><ele>5.0</ele><time>2026-04-05T14:57:45.703Z</time></trkpt><trkpt lat="43.1596364" lon="13.7994591"><ele>5.0</ele><time>2026-04-05T14:57:46.705Z</time></trkpt><trkpt lat="43.1596517" lon="13.7996166"><ele>5.0</ele><time>2026-04-05T14:57:47.705Z</time></trkpt><trkpt lat="43.1596625" lon="13.7997714"><ele>5.0</ele><time>2026-04-05T14:57:48.707Z</time></trkpt><trkpt lat="43.1596469" lon="13.7999019"><ele>5.0</ele><time>2026-04-05T14:57:49.706Z</time></trkpt><trkpt lat="43.1596382" lon="13.8000092"><ele>5.0</ele><time>2026-04-05T14:57:50.708Z</time></trkpt><trkpt lat="43.159623" lon="13.8000985"><ele>4.8</ele><time>2026-04-05T14:57:51.707Z</time></trkpt><trkpt lat="43.1596125" lon="13.8001902"><ele>4.6</ele><time>2026-04-05T14:57:53.705Z</time></trkpt><trkpt lat="43.1596961" lon="13.8003274"><ele>4.4</ele><time>2026-04-05T14:57:56.703Z</time></trkpt><trkpt lat="43.1597972" lon="13.8003802"><ele>4.2</ele><time>2026-04-05T14:57:57.713Z</time></trkpt><trkpt lat="43.15993" lon="13.8004185"><ele>4.0</ele><time>2026-04-05T14:57:58.709Z</time></trkpt><trkpt lat="43.1600641" lon="13.8004613"><ele>4.5</ele><time>2026-04-05T14:57:59.702Z</time></trkpt><trkpt lat="43.1601888" lon="13.800509"><ele>5.0</ele><time>2026-04-05T14:58:00.704Z</time></trkpt><trkpt lat="43.1603043" lon="13.800552"><ele>5.5</ele><time>2026-04-05T14:58:01.71Z</time></trkpt><trkpt lat="43.1604107" lon="13.8005915"><ele>6.0</ele><time>2026-04-05T14:58:02.708Z</time></trkpt><trkpt lat="43.1605084" lon="13.8006309"><ele>6.0</ele><time>2026-04-05T14:58:03.711Z</time></trkpt><trkpt lat="43.1605983" lon="13.8006691"><ele>6.0</ele><time>2026-04-05T14:58:04.714Z</time></trkpt><trkpt lat="43.1606853" lon="13.8007045"><ele>6.0</ele><time>2026-04-05T14:58:05.709Z</time></trkpt><trkpt lat="43.1607704" lon="13.8007438"><ele>6.0</ele><time>2026-04-05T14:58:06.709Z</time></trkpt><trkpt lat="43.1608456" lon="13.800788"><ele>6.0</ele><time>2026-04-05T14:58:07.71Z</time></trkpt><trkpt lat="43.1609131" lon="13.8008435"><ele>6.0</ele><time>2026-04-05T14:58:08.713Z</time></trkpt><trkpt lat="43.1609737" lon="13.8009091"><ele>5.6</ele><time>2026-04-05T14:58:09.724Z</time></trkpt><trkpt lat="43.1610204" lon="13.8009797"><ele>5.199999999999999</ele><time>2026-04-05T14:58:10.707Z</time></trkpt><trkpt lat="43.1610743" lon="13.8011458"><ele>4.800000000000001</ele><time>2026-04-05T14:58:12.706Z</time></trkpt><trkpt lat="43.1610974" lon="13.8012556"><ele>4.4</ele><time>2026-04-05T14:58:13.709Z</time></trkpt><trkpt lat="43.1611346" lon="13.8013754"><ele>4.0</ele><time>2026-04-05T14:58:14.712Z</time></trkpt><trkpt lat="43.1611931" lon="13.8014841"><ele>3.6</ele><time>2026-04-05T14:58:15.705Z</time></trkpt><trkpt lat="43.1612746" lon="13.8015587"><ele>3.2</ele><time>2026-04-05T14:58:16.713Z</time></trkpt><trkpt lat="43.1613727" lon="13.8015884"><ele>2.8000000000000003</ele><time>2026-04-05T14:58:17.71Z</time></trkpt><trkpt lat="43.1614764" lon="13.8015714"><ele>2.4000000000000004</ele><time>2026-04-05T14:58:18.714Z</time></trkpt><trkpt lat="43.1615753" lon="13.8015062"><ele>2.0</ele><time>2026-04-05T14:58:19.708Z</time></trkpt><trkpt lat="43.1616636" lon="13.801411"><ele>1.75</ele><time>2026-04-05T14:58:20.711Z</time></trkpt><trkpt lat="43.1617546" lon="13.8013207"><ele>1.5</ele><time>2026-04-05T14:58:21.712Z</time></trkpt><trkpt lat="43.1618575" lon="13.8012569"><ele>1.25</ele><time>2026-04-05T14:58:22.71Z</time></trkpt><trkpt lat="43.1619695" lon="13.8012214"><ele>1.0</ele><time>2026-04-05T14:58:23.702Z</time></trkpt><trkpt lat="43.162085" lon="13.8011982"><ele>1.0</ele><time>2026-04-05T14:58:24.708Z</time></trkpt><trkpt lat="43.1622014" lon="13.8011898"><ele>1.0</ele><time>2026-04-05T14:58:25.708Z</time></trkpt><trkpt lat="43.1623094" lon="13.8011948"><ele>1.0</ele><time>2026-04-05T14:58:26.729Z</time></trkpt><trkpt lat="43.1624062" lon="13.801203"><ele>1.0</ele><time>2026-04-05T14:58:27.705Z</time></trkpt><trkpt lat="43.1624959" lon="13.8012142"><ele>1.0</ele><time>2026-04-05T14:58:28.702Z</time></trkpt><trkpt lat="43.1625799" lon="13.8012332"><ele>1.2857142857142856</ele><time>2026-04-05T14:58:29.707Z</time></trkpt><trkpt lat="43.1626558" lon="13.8012722"><ele>1.5714285714285712</ele><time>2026-04-05T14:58:30.709Z</time></trkpt><trkpt lat="43.162725" lon="13.8013256"><ele>1.857142857142857</ele><time>2026-04-05T14:58:31.71Z</time></trkpt><trkpt lat="43.1627741" lon="13.801406"><ele>2.142857142857143</ele><time>2026-04-05T14:58:32.71Z</time></trkpt><trkpt lat="43.1628081" lon="13.8014851"><ele>2.4285714285714284</ele><time>2026-04-05T14:58:33.715Z</time></trkpt><trkpt lat="43.1628491" lon="13.8015591"><ele>2.714285714285714</ele><time>2026-04-05T14:58:34.708Z</time></trkpt><trkpt lat="43.1628951" lon="13.8016417"><ele>3.0</ele><time>2026-04-05T14:58:35.708Z</time></trkpt><trkpt lat="43.1629473" lon="13.8017415"><ele>3.2</ele><time>2026-04-05T14:58:36.701Z</time></trkpt><trkpt lat="43.1629849" lon="13.8018652"><ele>3.4</ele><time>2026-04-05T14:58:37.705Z</time></trkpt><trkpt lat="43.1630098" lon="13.8020087"><ele>3.6000000000000005</ele><time>2026-04-05T14:58:38.706Z</time></trkpt><trkpt lat="43.1630243" lon="13.8021591"><ele>3.8000000000000003</ele><time>2026-04-05T14:58:39.706Z</time></trkpt><trkpt lat="43.1630417" lon="13.8023107"><ele>4.0</ele><time>2026-04-05T14:58:40.706Z</time></trkpt><trkpt lat="43.1630577" lon="13.8024663"><ele>4.0</ele><time>2026-04-05T14:58:41.713Z</time></trkpt><trkpt lat="43.1630751" lon="13.8026242"><ele>4.0</ele><time>2026-04-05T14:58:42.709Z</time></trkpt><trkpt lat="43.1630918" lon="13.8027883"><ele>4.0</ele><time>2026-04-05T14:58:43.702Z</time></trkpt><trkpt lat="43.1631142" lon="13.8029538"><ele>4.0</ele><time>2026-04-05T14:58:44.712Z</time></trkpt><trkpt lat="43.1631355" lon="13.8031294"><ele>3.75</ele><time>2026-04-05T14:58:45.704Z</time></trkpt><trkpt lat="43.1631592" lon="13.8032958"><ele>3.5</ele><time>2026-04-05T14:58:46.702Z</time></trkpt><trkpt lat="43.1631793" lon="13.803455"><ele>3.25</ele><time>2026-04-05T14:58:47.717Z</time></trkpt><trkpt lat="43.1632002" lon="13.8036236"><ele>3.0</ele><time>2026-04-05T14:58:48.705Z</time></trkpt><trkpt lat="43.1632229" lon="13.8038028"><ele>3.0</ele><time>2026-04-05T14:58:49.719Z</time></trkpt><trkpt lat="43.163238" lon="13.8039545"><ele>3.0</ele><time>2026-04-05T14:58:50.707Z</time></trkpt><trkpt lat="43.1632546" lon="13.8040899"><ele>3.0</ele><time>2026-04-05T14:58:51.705Z</time></trkpt><trkpt lat="43.1632685" lon="13.8042219"><ele>3.0</ele><time>2026-04-05T14:58:52.708Z</time></trkpt><trkpt lat="43.1632864" lon="13.804343"><ele>3.0</ele><time>2026-04-05T14:58:53.715Z</time></trkpt><trkpt lat="43.1633064" lon="13.8044608"><ele>3.0</ele><time>2026-04-05T14:58:54.705Z</time></trkpt><trkpt lat="43.1633142" lon="13.8045614"><ele>3.0</ele><time>2026-04-05T14:58:55.708Z</time></trkpt><trkpt lat="43.1633337" lon="13.8046585"><ele>3.0</ele><time>2026-04-05T14:58:56.706Z</time></trkpt><trkpt lat="43.163347" lon="13.8047495"><ele>3.0</ele><time>2026-04-05T14:58:57.704Z</time></trkpt><trkpt lat="43.1633623" lon="13.8048569"><ele>3.0</ele><time>2026-04-05T14:58:58.703Z</time></trkpt><trkpt lat="43.1633814" lon="13.8049616"><ele>3.0</ele><time>2026-04-05T14:58:59.702Z</time></trkpt><trkpt lat="43.1633931" lon="13.8050819"><ele>2.8</ele><time>2026-04-05T14:59:00.698Z</time></trkpt><trkpt lat="43.1634218" lon="13.805209"><ele>2.5999999999999996</ele><time>2026-04-05T14:59:01.703Z</time></trkpt><trkpt lat="43.1634488" lon="13.805337"><ele>2.4000000000000004</ele><time>2026-04-05T14:59:02.706Z</time></trkpt><trkpt lat="43.1634735" lon="13.805475"><ele>2.2</ele><time>2026-04-05T14:59:03.698Z</time></trkpt><trkpt lat="43.1635024" lon="13.8056184"><ele>2.0</ele><time>2026-04-05T14:59:04.701Z</time></trkpt><trkpt lat="43.163529" lon="13.8057671"><ele>2.0</ele><time>2026-04-05T14:59:05.706Z</time></trkpt><trkpt lat="43.163554" lon="13.8059141"><ele>2.0</ele><time>2026-04-05T14:59:06.704Z</time></trkpt><trkpt lat="43.1635764" lon="13.8060491"><ele>2.0</ele><time>2026-04-05T14:59:07.711Z</time></trkpt><trkpt lat="43.1636009" lon="13.8061826"><ele>2.0</ele><time>2026-04-05T14:59:08.701Z</time></trkpt><trkpt lat="43.1636269" lon="13.8063187"><ele>2.0</ele><time>2026-04-05T14:59:09.711Z</time></trkpt><trkpt lat="43.1636506" lon="13.8064588"><ele>2.0</ele><time>2026-04-05T14:59:10.707Z</time></trkpt><trkpt lat="43.1636749" lon="13.8065974"><ele>2.0</ele><time>2026-04-05T14:59:11.706Z</time></trkpt><trkpt lat="43.1636985" lon="13.8067381"><ele>2.0</ele><time>2026-04-05T14:59:12.71Z</time></trkpt><trkpt lat="43.1637239" lon="13.8068785"><ele>2.0</ele><time>2026-04-05T14:59:13.705Z</time></trkpt><trkpt lat="43.1637483" lon="13.8070161"><ele>2.0</ele><time>2026-04-05T14:59:14.697Z</time></trkpt><trkpt lat="43.1637723" lon="13.8071529"><ele>2.0</ele><time>2026-04-05T14:59:15.699Z</time></trkpt><trkpt lat="43.1637947" lon="13.8072854"><ele>2.0</ele><time>2026-04-05T14:59:16.71Z</time></trkpt><trkpt lat="43.1638192" lon="13.8074178"><ele>2.0</ele><time>2026-04-05T14:59:17.708Z</time></trkpt><trkpt lat="43.1638442" lon="13.807544"><ele>2.0</ele><time>2026-04-05T14:59:18.707Z</time></trkpt><trkpt lat="43.1638701" lon="13.807664"><ele>2.0</ele><time>2026-04-05T14:59:19.703Z</time></trkpt><trkpt lat="43.1638944" lon="13.807778"><ele>1.9999999999999998</ele><time>2026-04-05T14:59:20.72Z</time></trkpt><trkpt lat="43.1639158" lon="13.8078891"><ele>2.0</ele><time>2026-04-05T14:59:21.71Z</time></trkpt><trkpt lat="43.1639378" lon="13.8079945"><ele>2.0</ele><time>2026-04-05T14:59:22.703Z</time></trkpt><trkpt lat="43.163955" lon="13.8080859"><ele>2.0</ele><time>2026-04-05T14:59:23.707Z</time></trkpt><trkpt lat="43.1639942" lon="13.8082193"><ele>1.9999999999999998</ele><time>2026-04-05T14:59:25.715Z</time></trkpt><trkpt lat="43.1641018" lon="13.8082295"><ele>2.0</ele><time>2026-04-05T14:59:27.709Z</time></trkpt><trkpt lat="43.1641695" lon="13.8081768"><ele>1.8</ele><time>2026-04-05T14:59:28.7Z</time></trkpt><trkpt lat="43.1642444" lon="13.8081101"><ele>1.6</ele><time>2026-04-05T14:59:29.706Z</time></trkpt><trkpt lat="43.1643243" lon="13.808037"><ele>1.4000000000000001</ele><time>2026-04-05T14:59:30.704Z</time></trkpt><trkpt lat="43.1644113" lon="13.8079572"><ele>1.2000000000000002</ele><time>2026-04-05T14:59:31.712Z</time></trkpt><trkpt lat="43.1645043" lon="13.8078715"><ele>1.0</ele><time>2026-04-05T14:59:32.706Z</time></trkpt><trkpt lat="43.1645984" lon="13.8077852"><ele>1.0</ele><time>2026-04-05T14:59:33.708Z</time></trkpt><trkpt lat="43.164695" lon="13.8076974"><ele>1.0</ele><time>2026-04-05T14:59:34.697Z</time></trkpt><trkpt lat="43.1647945" lon="13.8076059"><ele>1.0</ele><time>2026-04-05T14:59:35.708Z</time></trkpt><trkpt lat="43.1648953" lon="13.8075114"><ele>1.0</ele><time>2026-04-05T14:59:36.705Z</time></trkpt><trkpt lat="43.1649968" lon="13.8074167"><ele>1.25</ele><time>2026-04-05T14:59:37.707Z</time></trkpt><trkpt lat="43.1650992" lon="13.8073229"><ele>1.5</ele><time>2026-04-05T14:59:38.704Z</time></trkpt><trkpt lat="43.1652014" lon="13.8072292"><ele>1.75</ele><time>2026-04-05T14:59:39.703Z</time></trkpt><trkpt lat="43.1653038" lon="13.8071382"><ele>2.0</ele><time>2026-04-05T14:59:40.704Z</time></trkpt><trkpt lat="43.1654081" lon="13.8070529"><ele>2.0</ele><time>2026-04-05T14:59:41.705Z</time></trkpt><trkpt lat="43.1655138" lon="13.8069765"><ele>2.0</ele><time>2026-04-05T14:59:42.708Z</time></trkpt><trkpt lat="43.1656201" lon="13.8069045"><ele>2.0</ele><time>2026-04-05T14:59:43.703Z</time></trkpt><trkpt lat="43.1657273" lon="13.8068323"><ele>2.0</ele><time>2026-04-05T14:59:44.711Z</time></trkpt><trkpt lat="43.1658334" lon="13.8067586"><ele>1.75</ele><time>2026-04-05T14:59:45.705Z</time></trkpt><trkpt lat="43.1659388" lon="13.8066818"><ele>1.5</ele><time>2026-04-05T14:59:46.704Z</time></trkpt><trkpt lat="43.1660443" lon="13.8066043"><ele>1.25</ele><time>2026-04-05T14:59:47.705Z</time></trkpt><trkpt lat="43.16615" lon="13.8065273"><ele>1.0</ele><time>2026-04-05T14:59:48.699Z</time></trkpt><trkpt lat="43.1662557" lon="13.8064511"><ele>1.0</ele><time>2026-04-05T14:59:49.705Z</time></trkpt><trkpt lat="43.1663608" lon="13.806375"><ele>1.0</ele><time>2026-04-05T14:59:50.703Z</time></trkpt><trkpt lat="43.1664645" lon="13.8062982"><ele>1.0</ele><time>2026-04-05T14:59:51.706Z</time></trkpt><trkpt lat="43.1665667" lon="13.8062223"><ele>1.0</ele><time>2026-04-05T14:59:52.707Z</time></trkpt><trkpt lat="43.1666687" lon="13.8061484"><ele>0.75</ele><time>2026-04-05T14:59:53.707Z</time></trkpt><trkpt lat="43.1667708" lon="13.8060746"><ele>0.5</ele><time>2026-04-05T14:59:54.705Z</time></trkpt><trkpt lat="43.1668729" lon="13.8059999"><ele>0.25</ele><time>2026-04-05T14:59:55.704Z</time></trkpt><trkpt lat="43.1669746" lon="13.8059258"><ele>0.0</ele><time>2026-04-05T14:59:56.702Z</time></trkpt><trkpt lat="43.1670765" lon="13.8058529"><ele>0.6</ele><time>2026-04-05T14:59:57.701Z</time></trkpt><trkpt lat="43.1671781" lon="13.8057785"><ele>1.2</ele><time>2026-04-05T14:59:58.695Z</time></trkpt><trkpt lat="43.1672783" lon="13.8057052"><ele>1.7999999999999998</ele><time>2026-04-05T14:59:59.701Z</time></trkpt><trkpt lat="43.1673746" lon="13.8056352"><ele>2.4</ele><time>2026-04-05T15:00:00.71Z</time></trkpt><trkpt lat="43.1674589" lon="13.8055743"><ele>3.0</ele><time>2026-04-05T15:00:01.706Z</time></trkpt><trkpt lat="43.1675325" lon="13.8055229"><ele>3.0</ele><time>2026-04-05T15:00:02.704Z</time></trkpt><trkpt lat="43.1675904" lon="13.8054815"><ele>3.0</ele><time>2026-04-05T15:00:03.717Z</time></trkpt><trkpt lat="43.1676798" lon="13.8054138"><ele>3.0</ele><time>2026-04-05T15:00:05.713Z</time></trkpt><trkpt lat="43.1677108" lon="13.8053192"><ele>3.0</ele><time>2026-04-05T15:00:07.705Z</time></trkpt><trkpt lat="43.1676752" lon="13.8051574"><ele>3.0</ele><time>2026-04-05T15:00:09.708Z</time></trkpt><trkpt lat="43.1676228" lon="13.8050178"><ele>4.0</ele><time>2026-04-05T15:00:11.704Z</time></trkpt><trkpt lat="43.1675778" lon="13.8049184"><ele>5.0</ele><time>2026-04-05T15:00:13.717Z</time></trkpt><trkpt lat="43.1675505" lon="13.8048382"><ele>6.0</ele><time>2026-04-05T15:00:15.72Z</time></trkpt><trkpt lat="43.167524" lon="13.8047266"><ele>7.0</ele><time>2026-04-05T15:00:18.705Z</time></trkpt><trkpt lat="43.1675274" lon="13.8046194"><ele>8.0</ele><time>2026-04-05T15:00:20.707Z</time></trkpt><trkpt lat="43.1675452" lon="13.8044831"><ele>9.0</ele><time>2026-04-05T15:00:22.706Z</time></trkpt><trkpt lat="43.1675644" lon="13.8043311"><ele>8.5</ele><time>2026-04-05T15:00:24.701Z</time></trkpt><trkpt lat="43.1675827" lon="13.8041881"><ele>8.0</ele><time>2026-04-05T15:00:26.706Z</time></trkpt><trkpt lat="43.1675996" lon="13.8040604"><ele>7.5</ele><time>2026-04-05T15:00:28.703Z</time></trkpt><trkpt lat="43.1676118" lon="13.8039471"><ele>7.0</ele><time>2026-04-05T15:00:30.702Z</time></trkpt><trkpt lat="43.1676223" lon="13.8038503"><ele>6.5</ele><time>2026-04-05T15:00:32.711Z</time></trkpt><trkpt lat="43.1676313" lon="13.8037398"><ele>6.0</ele><time>2026-04-05T15:00:35.706Z</time></trkpt><trkpt lat="43.167532" lon="13.8036975"><ele>6.0</ele><time>2026-04-05T15:00:45.707Z</time></trkpt><trkpt lat="43.1674603" lon="13.803733"><ele>6.0</ele><time>2026-04-05T15:00:46.718Z</time></trkpt><trkpt lat="43.167377" lon="13.8037742"><ele>6.0</ele><time>2026-04-05T15:00:47.708Z</time></trkpt><trkpt lat="43.1672814" lon="13.8038191"><ele>6.0</ele><time>2026-04-05T15:00:48.714Z</time></trkpt><trkpt lat="43.1671748" lon="13.8038702"><ele>6.0</ele><time>2026-04-05T15:00:49.714Z</time></trkpt><trkpt lat="43.1670601" lon="13.8039237"><ele>5.5</ele><time>2026-04-05T15:00:50.718Z</time></trkpt><trkpt lat="43.1669371" lon="13.8039764"><ele>5.0</ele><time>2026-04-05T15:00:51.7Z</time></trkpt><trkpt lat="43.1668046" lon="13.8040293"><ele>4.5</ele><time>2026-04-05T15:00:52.708Z</time></trkpt><trkpt lat="43.1666676" lon="13.8040824"><ele>4.0</ele><time>2026-04-05T15:00:53.708Z</time></trkpt><trkpt lat="43.1665253" lon="13.8041354"><ele>3.333333333333333</ele><time>2026-04-05T15:00:54.707Z</time></trkpt><trkpt lat="43.1663782" lon="13.8041882"><ele>2.6666666666666665</ele><time>2026-04-05T15:00:55.711Z</time></trkpt><trkpt lat="43.1662265" lon="13.8042411"><ele>2.0</ele><time>2026-04-05T15:00:56.712Z</time></trkpt><trkpt lat="43.166073" lon="13.8042934"><ele>2.333333333333333</ele><time>2026-04-05T15:00:57.71Z</time></trkpt><trkpt lat="43.1659175" lon="13.804344"><ele>2.6666666666666665</ele><time>2026-04-05T15:00:58.707Z</time></trkpt><trkpt lat="43.1657638" lon="13.8043903"><ele>3.0</ele><time>2026-04-05T15:00:59.704Z</time></trkpt><trkpt lat="43.1656215" lon="13.8044294"><ele>3.0</ele><time>2026-04-05T15:01:00.714Z</time></trkpt><trkpt lat="43.1654782" lon="13.8044697"><ele>3.0</ele><time>2026-04-05T15:01:01.711Z</time></trkpt><trkpt lat="43.1653299" lon="13.8045119"><ele>3.0</ele><time>2026-04-05T15:01:02.709Z</time></trkpt><trkpt lat="43.1651773" lon="13.8045524"><ele>3.0</ele><time>2026-04-05T15:01:03.709Z</time></trkpt><trkpt lat="43.1650213" lon="13.8045922"><ele>3.0</ele><time>2026-04-05T15:01:04.727Z</time></trkpt><trkpt lat="43.1648618" lon="13.8046315"><ele>3.0</ele><time>2026-04-05T15:01:05.709Z</time></trkpt><trkpt lat="43.1647043" lon="13.8046683"><ele>2.75</ele><time>2026-04-05T15:01:06.703Z</time></trkpt><trkpt lat="43.1645577" lon="13.8047048"><ele>2.5</ele><time>2026-04-05T15:01:07.706Z</time></trkpt><trkpt lat="43.1644162" lon="13.8047445"><ele>2.25</ele><time>2026-04-05T15:01:08.705Z</time></trkpt><trkpt lat="43.1642743" lon="13.804784"><ele>2.0</ele><time>2026-04-05T15:01:09.708Z</time></trkpt><trkpt lat="43.1641316" lon="13.8048217"><ele>2.25</ele><time>2026-04-05T15:01:10.713Z</time></trkpt><trkpt lat="43.1639952" lon="13.8048561"><ele>2.5</ele><time>2026-04-05T15:01:11.706Z</time></trkpt><trkpt lat="43.1638691" lon="13.8048871"><ele>2.75</ele><time>2026-04-05T15:01:12.718Z</time></trkpt><trkpt lat="43.1637563" lon="13.8049155"><ele>3.0</ele><time>2026-04-05T15:01:13.705Z</time></trkpt><trkpt lat="43.1636592" lon="13.804942"><ele>3.0</ele><time>2026-04-05T15:01:14.714Z</time></trkpt><trkpt lat="43.1635793" lon="13.8049626"><ele>3.0</ele><time>2026-04-05T15:01:15.71Z</time></trkpt><trkpt lat="43.1635166" lon="13.8049767"><ele>3.0</ele><time>2026-04-05T15:01:16.706Z</time></trkpt><trkpt lat="43.163441" lon="13.8049689"><ele>3.0</ele><time>2026-04-05T15:01:18.71Z</time></trkpt><trkpt lat="43.1633883" lon="13.804891"><ele>3.0</ele><time>2026-04-05T15:01:20.709Z</time></trkpt><trkpt lat="43.1633451" lon="13.8046798"><ele>3.0</ele><time>2026-04-05T15:01:22.703Z</time></trkpt><trkpt lat="43.1633237" lon="13.8045262"><ele>3.0</ele><time>2026-04-05T15:01:23.727Z</time></trkpt><trkpt lat="43.1633082" lon="13.8043668"><ele>3.0</ele><time>2026-04-05T15:01:24.702Z</time></trkpt><trkpt lat="43.163292" lon="13.8042082"><ele>3.0</ele><time>2026-04-05T15:01:25.712Z</time></trkpt><trkpt lat="43.1632747" lon="13.8040639"><ele>3.0</ele><time>2026-04-05T15:01:26.704Z</time></trkpt><trkpt lat="43.1632609" lon="13.8039351"><ele>3.0</ele><time>2026-04-05T15:01:27.704Z</time></trkpt><trkpt lat="43.1632447" lon="13.8038218"><ele>3.0</ele><time>2026-04-05T15:01:28.707Z</time></trkpt><trkpt lat="43.1632291" lon="13.8037122"><ele>3.0</ele><time>2026-04-05T15:01:29.706Z</time></trkpt><trkpt lat="43.1632131" lon="13.8036058"><ele>3.0</ele><time>2026-04-05T15:01:30.71Z</time></trkpt><trkpt lat="43.1632012" lon="13.8034962"><ele>3.0</ele><time>2026-04-05T15:01:31.708Z</time></trkpt><trkpt lat="43.1631927" lon="13.803388"><ele>2.9999999999999996</ele><time>2026-04-05T15:01:32.712Z</time></trkpt><trkpt lat="43.1631791" lon="13.8032835"><ele>3.0</ele><time>2026-04-05T15:01:33.714Z</time></trkpt><trkpt lat="43.1631672" lon="13.8031894"><ele>3.0</ele><time>2026-04-05T15:01:34.707Z</time></trkpt><trkpt lat="43.1631593" lon="13.8031008"><ele>3.0</ele><time>2026-04-05T15:01:35.706Z</time></trkpt><trkpt lat="43.1631483" lon="13.8030079"><ele>3.0</ele><time>2026-04-05T15:01:36.709Z</time></trkpt><trkpt lat="43.1631368" lon="13.8029091"><ele>2.9999999999999996</ele><time>2026-04-05T15:01:37.705Z</time></trkpt><trkpt lat="43.1631248" lon="13.8028034"><ele>3.0</ele><time>2026-04-05T15:01:38.719Z</time></trkpt><trkpt lat="43.1631137" lon="13.8026943"><ele>3.1666666666666665</ele><time>2026-04-05T15:01:39.703Z</time></trkpt><trkpt lat="43.1631012" lon="13.802587"><ele>3.333333333333333</ele><time>2026-04-05T15:01:40.699Z</time></trkpt><trkpt lat="43.1630897" lon="13.8024849"><ele>3.5</ele><time>2026-04-05T15:01:41.706Z</time></trkpt><trkpt lat="43.1630772" lon="13.8023947"><ele>3.6666666666666665</ele><time>2026-04-05T15:01:42.706Z</time></trkpt><trkpt lat="43.1630646" lon="13.8023043"><ele>3.833333333333333</ele><time>2026-04-05T15:01:43.701Z</time></trkpt><trkpt lat="43.1630529" lon="13.8022113"><ele>4.0</ele><time>2026-04-05T15:01:44.708Z</time></trkpt><trkpt lat="43.1630449" lon="13.8020616"><ele>4.0</ele><time>2026-04-05T15:01:46.707Z</time></trkpt><trkpt lat="43.1630364" lon="13.8019653"><ele>4.0</ele><time>2026-04-05T15:01:48.709Z</time></trkpt><trkpt lat="43.1630362" lon="13.8018722"><ele>4.0</ele><time>2026-04-05T15:01:51.698Z</time></trkpt><trkpt lat="43.1630384" lon="13.8017643"><ele>4.0</ele><time>2026-04-05T15:01:53.71Z</time></trkpt><trkpt lat="43.16308" lon="13.8016115"><ele>4.0</ele><time>2026-04-05T15:02:02.707Z</time></trkpt><trkpt lat="43.1631279" lon="13.801464"><ele>3.833333333333333</ele><time>2026-04-05T15:02:04.705Z</time></trkpt><trkpt lat="43.1631299" lon="13.8013767"><ele>3.6666666666666665</ele><time>2026-04-05T15:02:05.699Z</time></trkpt><trkpt lat="43.1630727" lon="13.8012425"><ele>3.5</ele><time>2026-04-05T15:02:07.703Z</time></trkpt><trkpt lat="43.1629617" lon="13.8011839"><ele>3.333333333333333</ele><time>2026-04-05T15:02:09.703Z</time></trkpt><trkpt lat="43.1628955" lon="13.8011689"><ele>3.1666666666666665</ele><time>2026-04-05T15:02:10.705Z</time></trkpt><trkpt lat="43.1628369" lon="13.8011306"><ele>3.0</ele><time>2026-04-05T15:02:11.708Z</time></trkpt><trkpt lat="43.1627617" lon="13.800993"><ele>2.8333333333333335</ele><time>2026-04-05T15:02:13.712Z</time></trkpt><trkpt lat="43.1627416" lon="13.8009007"><ele>2.6666666666666665</ele><time>2026-04-05T15:02:14.707Z</time></trkpt><trkpt lat="43.1627269" lon="13.8007947"><ele>2.5</ele><time>2026-04-05T15:02:15.714Z</time></trkpt><trkpt lat="43.1627175" lon="13.8006718"><ele>2.333333333333333</ele><time>2026-04-05T15:02:16.703Z</time></trkpt><trkpt lat="43.1627136" lon="13.8005447"><ele>2.1666666666666665</ele><time>2026-04-05T15:02:17.705Z</time></trkpt><trkpt lat="43.1627158" lon="13.8003998"><ele>2.0</ele><time>2026-04-05T15:02:18.707Z</time></trkpt><trkpt lat="43.1627287" lon="13.8002332"><ele>2.25</ele><time>2026-04-05T15:02:19.705Z</time></trkpt><trkpt lat="43.1627491" lon="13.8000746"><ele>2.5</ele><time>2026-04-05T15:02:20.705Z</time></trkpt><trkpt lat="43.1627699" lon="13.799914"><ele>2.75</ele><time>2026-04-05T15:02:21.71Z</time></trkpt><trkpt lat="43.1627912" lon="13.7997604"><ele>3.0</ele><time>2026-04-05T15:02:22.705Z</time></trkpt><trkpt lat="43.1628141" lon="13.7996012"><ele>3.0</ele><time>2026-04-05T15:02:23.706Z</time></trkpt><trkpt lat="43.1628427" lon="13.7994394"><ele>3.0</ele><time>2026-04-05T15:02:24.704Z</time></trkpt><trkpt lat="43.1628675" lon="13.7992778"><ele>3.0</ele><time>2026-04-05T15:02:25.705Z</time></trkpt><trkpt lat="43.1628841" lon="13.7991152"><ele>3.0</ele><time>2026-04-05T15:02:26.707Z</time></trkpt><trkpt lat="43.1628979" lon="13.7989546"><ele>3.2</ele><time>2026-04-05T15:02:27.718Z</time></trkpt><trkpt lat="43.1629021" lon="13.798792"><ele>3.4</ele><time>2026-04-05T15:02:28.703Z</time></trkpt><trkpt lat="43.162896" lon="13.7986394"><ele>3.6000000000000005</ele><time>2026-04-05T15:02:29.713Z</time></trkpt><trkpt lat="43.1628868" lon="13.7984932"><ele>3.8000000000000003</ele><time>2026-04-05T15:02:30.705Z</time></trkpt><trkpt lat="43.1628774" lon="13.7983409"><ele>4.0</ele><time>2026-04-05T15:02:31.71Z</time></trkpt><trkpt lat="43.1628697" lon="13.7981827"><ele>4.0</ele><time>2026-04-05T15:02:32.705Z</time></trkpt><trkpt lat="43.1628618" lon="13.7980186"><ele>4.0</ele><time>2026-04-05T15:02:33.713Z</time></trkpt><trkpt lat="43.1628529" lon="13.7978506"><ele>4.0</ele><time>2026-04-05T15:02:34.703Z</time></trkpt><trkpt lat="43.1628439" lon="13.7976825"><ele>4.0</ele><time>2026-04-05T15:02:35.711Z</time></trkpt><trkpt lat="43.1628337" lon="13.7975172"><ele>4.25</ele><time>2026-04-05T15:02:36.705Z</time></trkpt><trkpt lat="43.1628235" lon="13.797345"><ele>4.5</ele><time>2026-04-05T15:02:37.712Z</time></trkpt><trkpt lat="43.1628071" lon="13.7971687"><ele>4.75</ele><time>2026-04-05T15:02:38.701Z</time></trkpt><trkpt lat="43.1627974" lon="13.7969899"><ele>5.0</ele><time>2026-04-05T15:02:39.709Z</time></trkpt><trkpt lat="43.1627911" lon="13.7968165"><ele>5.0</ele><time>2026-04-05T15:02:40.703Z</time></trkpt><trkpt lat="43.162791" lon="13.7966542"><ele>5.0</ele><time>2026-04-05T15:02:41.708Z</time></trkpt><trkpt lat="43.1627957" lon="13.7964718"><ele>5.0</ele><time>2026-04-05T15:02:42.701Z</time></trkpt><trkpt lat="43.1628096" lon="13.7962947"><ele>5.0</ele><time>2026-04-05T15:02:43.709Z</time></trkpt><trkpt lat="43.1628378" lon="13.7961155"><ele>5.25</ele><time>2026-04-05T15:02:44.706Z</time></trkpt><trkpt lat="43.1628529" lon="13.7959255"><ele>5.5</ele><time>2026-04-05T15:02:45.711Z</time></trkpt><trkpt lat="43.1628683" lon="13.7957371"><ele>5.75</ele><time>2026-04-05T15:02:46.707Z</time></trkpt><trkpt lat="43.1628823" lon="13.795546"><ele>6.0</ele><time>2026-04-05T15:02:47.712Z</time></trkpt><trkpt lat="43.162895" lon="13.7953496"><ele>6.25</ele><time>2026-04-05T15:02:48.711Z</time></trkpt><trkpt lat="43.1629027" lon="13.7951564"><ele>6.5</ele><time>2026-04-05T15:02:49.709Z</time></trkpt><trkpt lat="43.1629014" lon="13.7949612"><ele>6.75</ele><time>2026-04-05T15:02:50.706Z</time></trkpt><trkpt lat="43.1628943" lon="13.7947667"><ele>7.0</ele><time>2026-04-05T15:02:51.708Z</time></trkpt><trkpt lat="43.162885" lon="13.7945729"><ele>7.0</ele><time>2026-04-05T15:02:52.713Z</time></trkpt><trkpt lat="43.1628761" lon="13.7943798"><ele>7.0</ele><time>2026-04-05T15:02:53.711Z</time></trkpt><trkpt lat="43.1628653" lon="13.7941933"><ele>7.0</ele><time>2026-04-05T15:02:54.701Z</time></trkpt><trkpt lat="43.1628619" lon="13.7940074"><ele>7.0</ele><time>2026-04-05T15:02:55.709Z</time></trkpt><trkpt lat="43.1628519" lon="13.7938261"><ele>7.25</ele><time>2026-04-05T15:02:56.7Z</time></trkpt><trkpt lat="43.1628444" lon="13.7936469"><ele>7.5</ele><time>2026-04-05T15:02:57.708Z</time></trkpt><trkpt lat="43.1628323" lon="13.7934709"><ele>7.75</ele><time>2026-04-05T15:02:58.702Z</time></trkpt><trkpt lat="43.1628224" lon="13.793291"><ele>8.0</ele><time>2026-04-05T15:02:59.709Z</time></trkpt><trkpt lat="43.1628153" lon="13.793114"><ele>8.0</ele><time>2026-04-05T15:03:00.713Z</time></trkpt><trkpt lat="43.1628094" lon="13.792945"><ele>8.0</ele><time>2026-04-05T15:03:01.708Z</time></trkpt><trkpt lat="43.1628012" lon="13.7927811"><ele>8.0</ele><time>2026-04-05T15:03:02.704Z</time></trkpt><trkpt lat="43.1627941" lon="13.7926138"><ele>8.0</ele><time>2026-04-05T15:03:03.709Z</time></trkpt><trkpt lat="43.1627874" lon="13.7924424"><ele>8.25</ele><time>2026-04-05T15:03:04.712Z</time></trkpt><trkpt lat="43.1627783" lon="13.7922665"><ele>8.5</ele><time>2026-04-05T15:03:05.716Z</time></trkpt><trkpt lat="43.1627692" lon="13.7920885"><ele>8.75</ele><time>2026-04-05T15:03:06.706Z</time></trkpt><trkpt lat="43.162762" lon="13.7919169"><ele>9.0</ele><time>2026-04-05T15:03:07.704Z</time></trkpt><trkpt lat="43.1627549" lon="13.7917521"><ele>9.0</ele><time>2026-04-05T15:03:08.715Z</time></trkpt><trkpt lat="43.162747" lon="13.7915946"><ele>9.0</ele><time>2026-04-05T15:03:09.71Z</time></trkpt><trkpt lat="43.1627389" lon="13.7914412"><ele>9.0</ele><time>2026-04-05T15:03:10.707Z</time></trkpt><trkpt lat="43.1627289" lon="13.791292"><ele>9.0</ele><time>2026-04-05T15:03:11.716Z</time></trkpt><trkpt lat="43.1627121" lon="13.7911466"><ele>9.0</ele><time>2026-04-05T15:03:12.705Z</time></trkpt><trkpt lat="43.1626875" lon="13.7910053"><ele>9.2</ele><time>2026-04-05T15:03:13.721Z</time></trkpt><trkpt lat="43.1626559" lon="13.7908672"><ele>9.4</ele><time>2026-04-05T15:03:14.708Z</time></trkpt><trkpt lat="43.1626169" lon="13.7907337"><ele>9.6</ele><time>2026-04-05T15:03:15.706Z</time></trkpt><trkpt lat="43.1625708" lon="13.7906038"><ele>9.8</ele><time>2026-04-05T15:03:16.707Z</time></trkpt><trkpt lat="43.1625209" lon="13.7904751"><ele>10.0</ele><time>2026-04-05T15:03:17.713Z</time></trkpt><trkpt lat="43.1624696" lon="13.790347"><ele>10.0</ele><time>2026-04-05T15:03:18.714Z</time></trkpt><trkpt lat="43.1624166" lon="13.790221"><ele>10.0</ele><time>2026-04-05T15:03:19.711Z</time></trkpt><trkpt lat="43.1623625" lon="13.7900954"><ele>10.0</ele><time>2026-04-05T15:03:20.717Z</time></trkpt><trkpt lat="43.1623066" lon="13.7899715"><ele>10.0</ele><time>2026-04-05T15:03:21.709Z</time></trkpt><trkpt lat="43.1622484" lon="13.7898501"><ele>10.0</ele><time>2026-04-05T15:03:22.715Z</time></trkpt><trkpt lat="43.16219" lon="13.7897313"><ele>9.8</ele><time>2026-04-05T15:03:23.718Z</time></trkpt><trkpt lat="43.162133" lon="13.7896138"><ele>9.6</ele><time>2026-04-05T15:03:24.722Z</time></trkpt><trkpt lat="43.1620774" lon="13.7894988"><ele>9.4</ele><time>2026-04-05T15:03:25.701Z</time></trkpt><trkpt lat="43.1620256" lon="13.7893929"><ele>9.2</ele><time>2026-04-05T15:03:26.707Z</time></trkpt><trkpt lat="43.1619781" lon="13.7892972"><ele>9.0</ele><time>2026-04-05T15:03:27.712Z</time></trkpt><trkpt lat="43.1619368" lon="13.7892079"><ele>9.285714285714286</ele><time>2026-04-05T15:03:28.706Z</time></trkpt><trkpt lat="43.1619004" lon="13.7891185"><ele>9.571428571428571</ele><time>2026-04-05T15:03:29.706Z</time></trkpt><trkpt lat="43.1618684" lon="13.7890307"><ele>9.857142857142858</ele><time>2026-04-05T15:03:30.712Z</time></trkpt><trkpt lat="43.1618417" lon="13.7889405"><ele>10.142857142857142</ele><time>2026-04-05T15:03:31.712Z</time></trkpt><trkpt lat="43.1618229" lon="13.7888472"><ele>10.428571428571429</ele><time>2026-04-05T15:03:32.705Z</time></trkpt><trkpt lat="43.1618089" lon="13.7887495"><ele>10.714285714285715</ele><time>2026-04-05T15:03:33.709Z</time></trkpt><trkpt lat="43.1617841" lon="13.7886572"><ele>11.0</ele><time>2026-04-05T15:03:34.706Z</time></trkpt><trkpt lat="43.1617386" lon="13.7885932"><ele>11.0</ele><time>2026-04-05T15:03:35.705Z</time></trkpt><trkpt lat="43.1616275" lon="13.7885303"><ele>11.0</ele><time>2026-04-05T15:03:37.708Z</time></trkpt><trkpt lat="43.1615673" lon="13.7885038"><ele>11.0</ele><time>2026-04-05T15:03:38.71Z</time></trkpt><trkpt lat="43.1615166" lon="13.7884519"><ele>11.0</ele><time>2026-04-05T15:03:39.709Z</time></trkpt><trkpt lat="43.1614704" lon="13.7883864"><ele>11.0</ele><time>2026-04-05T15:03:40.705Z</time></trkpt><trkpt lat="43.1614217" lon="13.7883116"><ele>11.0</ele><time>2026-04-05T15:03:41.701Z</time></trkpt><trkpt lat="43.1613685" lon="13.7882266"><ele>11.0</ele><time>2026-04-05T15:03:42.726Z</time></trkpt><trkpt lat="43.1613095" lon="13.7881353"><ele>11.0</ele><time>2026-04-05T15:03:43.709Z</time></trkpt><trkpt lat="43.1612454" lon="13.788037"><ele>11.0</ele><time>2026-04-05T15:03:44.703Z</time></trkpt><trkpt lat="43.1611791" lon="13.7879341"><ele>11.0</ele><time>2026-04-05T15:03:45.708Z</time></trkpt><trkpt lat="43.1611089" lon="13.7878249"><ele>11.0</ele><time>2026-04-05T15:03:46.706Z</time></trkpt><trkpt lat="43.1610402" lon="13.7877184"><ele>11.200000000000001</ele><time>2026-04-05T15:03:47.707Z</time></trkpt><trkpt lat="43.1609699" lon="13.7876096"><ele>11.4</ele><time>2026-04-05T15:03:48.716Z</time></trkpt><trkpt lat="43.1608966" lon="13.7874991"><ele>11.6</ele><time>2026-04-05T15:03:49.709Z</time></trkpt><trkpt lat="43.1608215" lon="13.7873854"><ele>11.8</ele><time>2026-04-05T15:03:50.713Z</time></trkpt><trkpt lat="43.1607446" lon="13.7872687"><ele>12.0</ele><time>2026-04-05T15:03:51.709Z</time></trkpt><trkpt lat="43.1606658" lon="13.7871491"><ele>12.0</ele><time>2026-04-05T15:03:52.704Z</time></trkpt><trkpt lat="43.1605897" lon="13.7870326"><ele>12.0</ele><time>2026-04-05T15:03:53.708Z</time></trkpt><trkpt lat="43.1605175" lon="13.7869227"><ele>12.0</ele><time>2026-04-05T15:03:54.709Z</time></trkpt><trkpt lat="43.1604445" lon="13.7868125"><ele>12.0</ele><time>2026-04-05T15:03:55.707Z</time></trkpt><trkpt lat="43.1603705" lon="13.7867004"><ele>12.0</ele><time>2026-04-05T15:03:56.707Z</time></trkpt><trkpt lat="43.1602979" lon="13.7865892"><ele>11.8</ele><time>2026-04-05T15:03:57.707Z</time></trkpt><trkpt lat="43.1602265" lon="13.7864805"><ele>11.6</ele><time>2026-04-05T15:03:58.701Z</time></trkpt><trkpt lat="43.1601551" lon="13.7863711"><ele>11.4</ele><time>2026-04-05T15:03:59.708Z</time></trkpt><trkpt lat="43.1600823" lon="13.7862603"><ele>11.200000000000001</ele><time>2026-04-05T15:04:00.705Z</time></trkpt><trkpt lat="43.1600099" lon="13.7861449"><ele>11.0</ele><time>2026-04-05T15:04:01.728Z</time></trkpt><trkpt lat="43.1599368" lon="13.786034"><ele>10.8</ele><time>2026-04-05T15:04:02.709Z</time></trkpt><trkpt lat="43.1598597" lon="13.7859168"><ele>10.600000000000001</ele><time>2026-04-05T15:04:03.711Z</time></trkpt><trkpt lat="43.1597853" lon="13.7858042"><ele>10.4</ele><time>2026-04-05T15:04:04.714Z</time></trkpt><trkpt lat="43.1597097" lon="13.7856926"><ele>10.2</ele><time>2026-04-05T15:04:05.712Z</time></trkpt><trkpt lat="43.1596383" lon="13.7855894"><ele>10.0</ele><time>2026-04-05T15:04:06.71Z</time></trkpt><trkpt lat="43.1595727" lon="13.7854919"><ele>10.0</ele><time>2026-04-05T15:04:07.703Z</time></trkpt><trkpt lat="43.1595074" lon="13.7853951"><ele>10.0</ele><time>2026-04-05T15:04:08.706Z</time></trkpt><trkpt lat="43.1594416" lon="13.7852994"><ele>10.0</ele><time>2026-04-05T15:04:09.707Z</time></trkpt><trkpt lat="43.1593737" lon="13.7851976"><ele>10.0</ele><time>2026-04-05T15:04:10.711Z</time></trkpt><trkpt lat="43.1593017" lon="13.7850884"><ele>10.0</ele><time>2026-04-05T15:04:11.721Z</time></trkpt><trkpt lat="43.1592248" lon="13.7849705"><ele>10.25</ele><time>2026-04-05T15:04:12.699Z</time></trkpt><trkpt lat="43.1591471" lon="13.7848518"><ele>10.5</ele><time>2026-04-05T15:04:13.71Z</time></trkpt><trkpt lat="43.1590689" lon="13.7847322"><ele>10.75</ele><time>2026-04-05T15:04:14.702Z</time></trkpt><trkpt lat="43.1589887" lon="13.78461"><ele>11.0</ele><time>2026-04-05T15:04:15.711Z</time></trkpt><trkpt lat="43.1589078" lon="13.7844891"><ele>11.200000000000001</ele><time>2026-04-05T15:04:16.709Z</time></trkpt><trkpt lat="43.1588274" lon="13.7843709"><ele>11.4</ele><time>2026-04-05T15:04:17.716Z</time></trkpt><trkpt lat="43.1587552" lon="13.7842612"><ele>11.6</ele><time>2026-04-05T15:04:18.711Z</time></trkpt><trkpt lat="43.1586869" lon="13.7841583"><ele>11.8</ele><time>2026-04-05T15:04:19.705Z</time></trkpt><trkpt lat="43.158616" lon="13.7840517"><ele>12.0</ele><time>2026-04-05T15:04:20.71Z</time></trkpt><trkpt lat="43.1585397" lon="13.7839413"><ele>12.0</ele><time>2026-04-05T15:04:21.713Z</time></trkpt><trkpt lat="43.158461" lon="13.7838261"><ele>12.0</ele><time>2026-04-05T15:04:22.713Z</time></trkpt><trkpt lat="43.1583814" lon="13.7837084"><ele>12.0</ele><time>2026-04-05T15:04:23.705Z</time></trkpt><trkpt lat="43.1583061" lon="13.7835941"><ele>12.0</ele><time>2026-04-05T15:04:24.729Z</time></trkpt><trkpt lat="43.158237" lon="13.7834881"><ele>12.0</ele><time>2026-04-05T15:04:25.708Z</time></trkpt><trkpt lat="43.158174" lon="13.7833919"><ele>11.833333333333334</ele><time>2026-04-05T15:04:26.71Z</time></trkpt><trkpt lat="43.1581182" lon="13.7833033"><ele>11.666666666666666</ele><time>2026-04-05T15:04:27.744Z</time></trkpt><trkpt lat="43.1580641" lon="13.7832166"><ele>11.5</ele><time>2026-04-05T15:04:28.711Z</time></trkpt><trkpt lat="43.1580087" lon="13.7831253"><ele>11.333333333333332</ele><time>2026-04-05T15:04:29.709Z</time></trkpt><trkpt lat="43.1579504" lon="13.7830306"><ele>11.166666666666666</ele><time>2026-04-05T15:04:30.713Z</time></trkpt><trkpt lat="43.1578892" lon="13.7829297"><ele>11.0</ele><time>2026-04-05T15:04:31.709Z</time></trkpt><trkpt lat="43.1578264" lon="13.7828226"><ele>11.0</ele><time>2026-04-05T15:04:32.707Z</time></trkpt><trkpt lat="43.1577625" lon="13.7827071"><ele>11.0</ele><time>2026-04-05T15:04:33.731Z</time></trkpt><trkpt lat="43.1576967" lon="13.7825851"><ele>11.0</ele><time>2026-04-05T15:04:34.723Z</time></trkpt><trkpt lat="43.1576302" lon="13.7824548"><ele>11.0</ele><time>2026-04-05T15:04:35.704Z</time></trkpt><trkpt lat="43.1575605" lon="13.7823175"><ele>11.0</ele><time>2026-04-05T15:04:36.718Z</time></trkpt><trkpt lat="43.1574886" lon="13.7821754"><ele>11.0</ele><time>2026-04-05T15:04:37.706Z</time></trkpt><trkpt lat="43.1574146" lon="13.7820286"><ele>11.0</ele><time>2026-04-05T15:04:38.705Z</time></trkpt><trkpt lat="43.1573453" lon="13.7818792"><ele>11.0</ele><time>2026-04-05T15:04:39.709Z</time></trkpt><trkpt lat="43.1572871" lon="13.7817366"><ele>11.200000000000001</ele><time>2026-04-05T15:04:40.718Z</time></trkpt><trkpt lat="43.1572368" lon="13.7815981"><ele>11.4</ele><time>2026-04-05T15:04:41.724Z</time></trkpt><trkpt lat="43.1571898" lon="13.7814668"><ele>11.6</ele><time>2026-04-05T15:04:42.705Z</time></trkpt><trkpt lat="43.1571549" lon="13.7813418"><ele>11.8</ele><time>2026-04-05T15:04:43.704Z</time></trkpt><trkpt lat="43.1571247" lon="13.7812242"><ele>12.0</ele><time>2026-04-05T15:04:44.701Z</time></trkpt><trkpt lat="43.1570987" lon="13.781118"><ele>12.0</ele><time>2026-04-05T15:04:45.709Z</time></trkpt><trkpt lat="43.1570751" lon="13.7810161"><ele>12.0</ele><time>2026-04-05T15:04:46.708Z</time></trkpt><trkpt lat="43.1570513" lon="13.7809286"><ele>12.0</ele><time>2026-04-05T15:04:47.712Z</time></trkpt><trkpt lat="43.1570244" lon="13.7808322"><ele>12.0</ele><time>2026-04-05T15:04:48.709Z</time></trkpt><trkpt lat="43.1569964" lon="13.7807232"><ele>12.0</ele><time>2026-04-05T15:04:49.71Z</time></trkpt><trkpt lat="43.1569651" lon="13.7805966"><ele>12.0</ele><time>2026-04-05T15:04:50.714Z</time></trkpt><trkpt lat="43.1569298" lon="13.7804513"><ele>12.5</ele><time>2026-04-05T15:04:51.705Z</time></trkpt><trkpt lat="43.1568922" lon="13.7802984"><ele>13.0</ele><time>2026-04-05T15:04:52.712Z</time></trkpt><trkpt lat="43.156856" lon="13.7801439"><ele>13.5</ele><time>2026-04-05T15:04:53.702Z</time></trkpt><trkpt lat="43.1568167" lon="13.7799804"><ele>14.0</ele><time>2026-04-05T15:04:54.714Z</time></trkpt><trkpt lat="43.1567706" lon="13.7798112"><ele>14.25</ele><time>2026-04-05T15:04:55.724Z</time></trkpt><trkpt lat="43.1567161" lon="13.7796425"><ele>14.5</ele><time>2026-04-05T15:04:56.708Z</time></trkpt><trkpt lat="43.1566598" lon="13.7794737"><ele>14.75</ele><time>2026-04-05T15:04:57.715Z</time></trkpt><trkpt lat="43.1565774" lon="13.7793127"><ele>15.0</ele><time>2026-04-05T15:04:58.71Z</time></trkpt><trkpt lat="43.1564814" lon="13.7791645"><ele>15.0</ele><time>2026-04-05T15:04:59.703Z</time></trkpt><trkpt lat="43.1563737" lon="13.7790267"><ele>15.0</ele><time>2026-04-05T15:05:00.728Z</time></trkpt><trkpt lat="43.1562595" lon="13.7789004"><ele>15.0</ele><time>2026-04-05T15:05:01.716Z</time></trkpt><trkpt lat="43.1561447" lon="13.7787797"><ele>15.0</ele><time>2026-04-05T15:05:02.711Z</time></trkpt><trkpt lat="43.1560302" lon="13.7786577"><ele>15.0</ele><time>2026-04-05T15:05:03.722Z</time></trkpt><trkpt lat="43.1559165" lon="13.7785393"><ele>15.0</ele><time>2026-04-05T15:05:04.704Z</time></trkpt><trkpt lat="43.1558055" lon="13.7784238"><ele>15.0</ele><time>2026-04-05T15:05:05.702Z</time></trkpt><trkpt lat="43.1556986" lon="13.7783105"><ele>15.0</ele><time>2026-04-05T15:05:06.707Z</time></trkpt><trkpt lat="43.1556022" lon="13.7781992"><ele>16.0</ele><time>2026-04-05T15:05:07.72Z</time></trkpt><trkpt lat="43.155518" lon="13.7780946"><ele>17.0</ele><time>2026-04-05T15:05:08.703Z</time></trkpt><trkpt lat="43.1554424" lon="13.7779924"><ele>18.0</ele><time>2026-04-05T15:05:09.709Z</time></trkpt><trkpt lat="43.15537" lon="13.7778886"><ele>19.0</ele><time>2026-04-05T15:05:10.707Z</time></trkpt><trkpt lat="43.1552992" lon="13.7777796"><ele>20.0</ele><time>2026-04-05T15:05:11.717Z</time></trkpt><trkpt lat="43.1552326" lon="13.7776662"><ele>21.0</ele><time>2026-04-05T15:05:12.704Z</time></trkpt><trkpt lat="43.1551667" lon="13.7775508"><ele>22.0</ele><time>2026-04-05T15:05:13.718Z</time></trkpt><trkpt lat="43.1550992" lon="13.7774337"><ele>23.0</ele><time>2026-04-05T15:05:14.705Z</time></trkpt><trkpt lat="43.155029" lon="13.777316"><ele>24.0</ele><time>2026-04-05T15:05:15.713Z</time></trkpt><trkpt lat="43.154957" lon="13.7771951"><ele>25.0</ele><time>2026-04-05T15:05:16.707Z</time></trkpt><trkpt lat="43.1548852" lon="13.7770731"><ele>24.2</ele><time>2026-04-05T15:05:17.719Z</time></trkpt><trkpt lat="43.1548185" lon="13.7769584"><ele>23.4</ele><time>2026-04-05T15:05:18.717Z</time></trkpt><trkpt lat="43.1547571" lon="13.7768522"><ele>22.6</ele><time>2026-04-05T15:05:19.722Z</time></trkpt><trkpt lat="43.1547003" lon="13.7767547"><ele>21.8</ele><time>2026-04-05T15:05:20.713Z</time></trkpt><trkpt lat="43.1546468" lon="13.7766615"><ele>21.0</ele><time>2026-04-05T15:05:21.717Z</time></trkpt><trkpt lat="43.1545918" lon="13.7765645"><ele>21.0</ele><time>2026-04-05T15:05:22.709Z</time></trkpt><trkpt lat="43.154531" lon="13.7764608"><ele>21.0</ele><time>2026-04-05T15:05:23.717Z</time></trkpt><trkpt lat="43.1544737" lon="13.7763494"><ele>21.0</ele><time>2026-04-05T15:05:24.72Z</time></trkpt><trkpt lat="43.1544368" lon="13.7762335"><ele>21.0</ele><time>2026-04-05T15:05:25.709Z</time></trkpt><trkpt lat="43.1544197" lon="13.7761076"><ele>21.0</ele><time>2026-04-05T15:05:26.715Z</time></trkpt><trkpt lat="43.1544339" lon="13.7759742"><ele>22.25</ele><time>2026-04-05T15:05:27.721Z</time></trkpt><trkpt lat="43.154482" lon="13.7758425"><ele>23.5</ele><time>2026-04-05T15:05:28.709Z</time></trkpt><trkpt lat="43.1545556" lon="13.7757126"><ele>24.75</ele><time>2026-04-05T15:05:29.706Z</time></trkpt><trkpt lat="43.1546464" lon="13.775584"><ele>26.0</ele><time>2026-04-05T15:05:30.717Z</time></trkpt><trkpt lat="43.1547526" lon="13.775448"><ele>26.0</ele><time>2026-04-05T15:05:31.716Z</time></trkpt><trkpt lat="43.1548685" lon="13.7753028"><ele>26.0</ele><time>2026-04-05T15:05:32.71Z</time></trkpt><trkpt lat="43.1549847" lon="13.7751566"><ele>26.0</ele><time>2026-04-05T15:05:33.704Z</time></trkpt><trkpt lat="43.1550894" lon="13.775025"><ele>28.75</ele><time>2026-04-05T15:05:34.714Z</time></trkpt><trkpt lat="43.1551845" lon="13.7749085"><ele>31.5</ele><time>2026-04-05T15:05:35.705Z</time></trkpt><trkpt lat="43.1552748" lon="13.7747991"><ele>34.25</ele><time>2026-04-05T15:05:36.701Z</time></trkpt><trkpt lat="43.1553627" lon="13.7746929"><ele>37.0</ele><time>2026-04-05T15:05:37.71Z</time></trkpt><trkpt lat="43.1554515" lon="13.7745844"><ele>37.0</ele><time>2026-04-05T15:05:38.708Z</time></trkpt><trkpt lat="43.1555396" lon="13.7744737"><ele>37.0</ele><time>2026-04-05T15:05:39.712Z</time></trkpt><trkpt lat="43.1556294" lon="13.7743625"><ele>37.0</ele><time>2026-04-05T15:05:40.71Z</time></trkpt><trkpt lat="43.1557261" lon="13.7742388"><ele>37.0</ele><time>2026-04-05T15:05:41.705Z</time></trkpt><trkpt lat="43.1558286" lon="13.7741073"><ele>39.25</ele><time>2026-04-05T15:05:42.71Z</time></trkpt><trkpt lat="43.1559328" lon="13.7739759"><ele>41.5</ele><time>2026-04-05T15:05:43.701Z</time></trkpt><trkpt lat="43.1560374" lon="13.7738423"><ele>43.75</ele><time>2026-04-05T15:05:44.707Z</time></trkpt><trkpt lat="43.1561423" lon="13.7737093"><ele>46.0</ele><time>2026-04-05T15:05:45.71Z</time></trkpt><trkpt lat="43.1562444" lon="13.7735794"><ele>46.75</ele><time>2026-04-05T15:05:46.732Z</time></trkpt><trkpt lat="43.1563432" lon="13.7734504"><ele>47.5</ele><time>2026-04-05T15:05:47.717Z</time></trkpt><trkpt lat="43.1564387" lon="13.773322"><ele>48.25</ele><time>2026-04-05T15:05:48.718Z</time></trkpt><trkpt lat="43.156529" lon="13.7731897"><ele>49.0</ele><time>2026-04-05T15:05:49.71Z</time></trkpt><trkpt lat="43.1566133" lon="13.7730525"><ele>49.5</ele><time>2026-04-05T15:05:50.71Z</time></trkpt><trkpt lat="43.1566959" lon="13.7729173"><ele>50.0</ele><time>2026-04-05T15:05:51.716Z</time></trkpt><trkpt lat="43.1567673" lon="13.7727709"><ele>50.5</ele><time>2026-04-05T15:05:52.706Z</time></trkpt><trkpt lat="43.1568371" lon="13.7726194"><ele>51.0</ele><time>2026-04-05T15:05:53.721Z</time></trkpt><trkpt lat="43.1569043" lon="13.7724607"><ele>51.5</ele><time>2026-04-05T15:05:54.703Z</time></trkpt><trkpt lat="43.1569663" lon="13.7723055"><ele>52.0</ele><time>2026-04-05T15:05:55.708Z</time></trkpt><trkpt lat="43.1570289" lon="13.7721523"><ele>52.5</ele><time>2026-04-05T15:05:56.703Z</time></trkpt><trkpt lat="43.157092" lon="13.7719968"><ele>53.0</ele><time>2026-04-05T15:05:57.712Z</time></trkpt><trkpt lat="43.1571565" lon="13.7718399"><ele>53.0</ele><time>2026-04-05T15:05:58.711Z</time></trkpt><trkpt lat="43.1572202" lon="13.771681"><ele>53.0</ele><time>2026-04-05T15:05:59.707Z</time></trkpt><trkpt lat="43.1572832" lon="13.771525"><ele>53.0</ele><time>2026-04-05T15:06:00.71Z</time></trkpt><trkpt lat="43.1573401" lon="13.7713786"><ele>53.0</ele><time>2026-04-05T15:06:01.705Z</time></trkpt><trkpt lat="43.1573905" lon="13.7712345"><ele>53.5</ele><time>2026-04-05T15:06:02.719Z</time></trkpt><trkpt lat="43.1574311" lon="13.7710852"><ele>54.0</ele><time>2026-04-05T15:06:03.706Z</time></trkpt><trkpt lat="43.1574601" lon="13.7709279"><ele>54.5</ele><time>2026-04-05T15:06:04.71Z</time></trkpt><trkpt lat="43.157478" lon="13.7707664"><ele>55.0</ele><time>2026-04-05T15:06:05.716Z</time></trkpt><trkpt lat="43.1574813" lon="13.7706035"><ele>56.25</ele><time>2026-04-05T15:06:06.707Z</time></trkpt><trkpt lat="43.1574722" lon="13.7704423"><ele>57.5</ele><time>2026-04-05T15:06:07.715Z</time></trkpt><trkpt lat="43.1574477" lon="13.770285"><ele>58.75</ele><time>2026-04-05T15:06:08.708Z</time></trkpt><trkpt lat="43.1574098" lon="13.7701348"><ele>60.0</ele><time>2026-04-05T15:06:09.707Z</time></trkpt><trkpt lat="43.1573638" lon="13.7699917"><ele>60.0</ele><time>2026-04-05T15:06:10.705Z</time></trkpt><trkpt lat="43.157314" lon="13.7698507"><ele>60.0</ele><time>2026-04-05T15:06:11.705Z</time></trkpt><trkpt lat="43.1572638" lon="13.7697096"><ele>60.0</ele><time>2026-04-05T15:06:12.707Z</time></trkpt><trkpt lat="43.1572134" lon="13.7695625"><ele>60.0</ele><time>2026-04-05T15:06:13.708Z</time></trkpt><trkpt lat="43.1571604" lon="13.7694104"><ele>62.0</ele><time>2026-04-05T15:06:14.705Z</time></trkpt><trkpt lat="43.1571031" lon="13.7692545"><ele>64.0</ele><time>2026-04-05T15:06:15.72Z</time></trkpt><trkpt lat="43.1570451" lon="13.7690923"><ele>66.0</ele><time>2026-04-05T15:06:16.709Z</time></trkpt><trkpt lat="43.156986" lon="13.7689254"><ele>68.0</ele><time>2026-04-05T15:06:17.705Z</time></trkpt><trkpt lat="43.1569272" lon="13.7687558"><ele>68.0</ele><time>2026-04-05T15:06:18.712Z</time></trkpt><trkpt lat="43.1568685" lon="13.7685862"><ele>68.0</ele><time>2026-04-05T15:06:19.702Z</time></trkpt><trkpt lat="43.1568096" lon="13.7684175"><ele>68.0</ele><time>2026-04-05T15:06:20.706Z</time></trkpt><trkpt lat="43.1567505" lon="13.7682494"><ele>68.0</ele><time>2026-04-05T15:06:21.7Z</time></trkpt><trkpt lat="43.1566913" lon="13.7680804"><ele>69.5</ele><time>2026-04-05T15:06:22.714Z</time></trkpt><trkpt lat="43.1566309" lon="13.7679081"><ele>71.0</ele><time>2026-04-05T15:06:23.708Z</time></trkpt><trkpt lat="43.1565718" lon="13.7677385"><ele>72.5</ele><time>2026-04-05T15:06:24.708Z</time></trkpt><trkpt lat="43.1565135" lon="13.7675713"><ele>74.0</ele><time>2026-04-05T15:06:25.711Z</time></trkpt><trkpt lat="43.1564549" lon="13.7674078"><ele>74.0</ele><time>2026-04-05T15:06:26.71Z</time></trkpt><trkpt lat="43.1563965" lon="13.7672443"><ele>74.0</ele><time>2026-04-05T15:06:27.708Z</time></trkpt><trkpt lat="43.1563396" lon="13.7670815"><ele>74.0</ele><time>2026-04-05T15:06:28.707Z</time></trkpt><trkpt lat="43.1562867" lon="13.7669137"><ele>74.0</ele><time>2026-04-05T15:06:29.703Z</time></trkpt><trkpt lat="43.1562419" lon="13.7667391"><ele>76.5</ele><time>2026-04-05T15:06:30.704Z</time></trkpt><trkpt lat="43.156206" lon="13.7665583"><ele>79.0</ele><time>2026-04-05T15:06:31.703Z</time></trkpt><trkpt lat="43.1561781" lon="13.7663725"><ele>81.5</ele><time>2026-04-05T15:06:32.704Z</time></trkpt><trkpt lat="43.1561549" lon="13.7661798"><ele>84.0</ele><time>2026-04-05T15:06:33.712Z</time></trkpt><trkpt lat="43.1561388" lon="13.7659822"><ele>84.25</ele><time>2026-04-05T15:06:34.711Z</time></trkpt><trkpt lat="43.1561313" lon="13.7657816"><ele>84.5</ele><time>2026-04-05T15:06:35.712Z</time></trkpt><trkpt lat="43.1561246" lon="13.7655836"><ele>84.75</ele><time>2026-04-05T15:06:36.703Z</time></trkpt><trkpt lat="43.1561477" lon="13.7653849"><ele>85.0</ele><time>2026-04-05T15:06:37.703Z</time></trkpt><trkpt lat="43.1561733" lon="13.7651929"><ele>85.0</ele><time>2026-04-05T15:06:38.703Z</time></trkpt><trkpt lat="43.1562311" lon="13.7650147"><ele>85.0</ele><time>2026-04-05T15:06:39.703Z</time></trkpt><trkpt lat="43.1563022" lon="13.7648512"><ele>85.0</ele><time>2026-04-05T15:06:40.704Z</time></trkpt><trkpt lat="43.1563848" lon="13.7647011"><ele>85.0</ele><time>2026-04-05T15:06:41.708Z</time></trkpt><trkpt lat="43.1564786" lon="13.7645658"><ele>86.75</ele><time>2026-04-05T15:06:42.709Z</time></trkpt><trkpt lat="43.1565815" lon="13.7644433"><ele>88.5</ele><time>2026-04-05T15:06:43.708Z</time></trkpt><trkpt lat="43.1566882" lon="13.7643307"><ele>90.25</ele><time>2026-04-05T15:06:44.708Z</time></trkpt><trkpt lat="43.156796" lon="13.7642182"><ele>92.0</ele><time>2026-04-05T15:06:45.709Z</time></trkpt><trkpt lat="43.1569022" lon="13.7641043"><ele>92.0</ele><time>2026-04-05T15:06:46.71Z</time></trkpt><trkpt lat="43.1570104" lon="13.7639879"><ele>92.0</ele><time>2026-04-05T15:06:47.71Z</time></trkpt><trkpt lat="43.1571202" lon="13.7638672"><ele>92.0</ele><time>2026-04-05T15:06:48.709Z</time></trkpt><trkpt lat="43.1572314" lon="13.7637418"><ele>92.0</ele><time>2026-04-05T15:06:49.708Z</time></trkpt><trkpt lat="43.1573433" lon="13.7636096"><ele>92.0</ele><time>2026-04-05T15:06:50.71Z</time></trkpt><trkpt lat="43.1574533" lon="13.7634693"><ele>92.0</ele><time>2026-04-05T15:06:51.713Z</time></trkpt><trkpt lat="43.1575564" lon="13.7633208"><ele>92.0</ele><time>2026-04-05T15:06:52.709Z</time></trkpt><trkpt lat="43.1576543" lon="13.7631596"><ele>92.0</ele><time>2026-04-05T15:06:53.718Z</time></trkpt><trkpt lat="43.1577543" lon="13.7629951"><ele>92.0</ele><time>2026-04-05T15:06:54.715Z</time></trkpt><trkpt lat="43.1578499" lon="13.7628227"><ele>92.0</ele><time>2026-04-05T15:06:55.712Z</time></trkpt><trkpt lat="43.1579431" lon="13.7626488"><ele>90.66666666666667</ele><time>2026-04-05T15:06:56.706Z</time></trkpt><trkpt lat="43.158031" lon="13.7624728"><ele>89.33333333333333</ele><time>2026-04-05T15:06:57.705Z</time></trkpt><trkpt lat="43.1581059" lon="13.7622868"><ele>88.0</ele><time>2026-04-05T15:06:58.707Z</time></trkpt><trkpt lat="43.158173" lon="13.7621055"><ele>91.25</ele><time>2026-04-05T15:06:59.708Z</time></trkpt><trkpt lat="43.1582219" lon="13.7619241"><ele>94.5</ele><time>2026-04-05T15:07:00.709Z</time></trkpt><trkpt lat="43.1582584" lon="13.761744"><ele>97.75</ele><time>2026-04-05T15:07:01.707Z</time></trkpt><trkpt lat="43.15828" lon="13.7615637"><ele>101.0</ele><time>2026-04-05T15:07:02.711Z</time></trkpt><trkpt lat="43.1582935" lon="13.7613843"><ele>101.0</ele><time>2026-04-05T15:07:03.71Z</time></trkpt><trkpt lat="43.1583105" lon="13.7611986"><ele>101.0</ele><time>2026-04-05T15:07:04.714Z</time></trkpt><trkpt lat="43.1583304" lon="13.7610045"><ele>101.0</ele><time>2026-04-05T15:07:05.711Z</time></trkpt><trkpt lat="43.1583519" lon="13.760806"><ele>101.0</ele><time>2026-04-05T15:07:06.709Z</time></trkpt><trkpt lat="43.1583723" lon="13.7606065"><ele>101.25</ele><time>2026-04-05T15:07:07.706Z</time></trkpt><trkpt lat="43.1583942" lon="13.760412"><ele>101.5</ele><time>2026-04-05T15:07:08.705Z</time></trkpt><trkpt lat="43.158413" lon="13.7602362"><ele>101.75</ele><time>2026-04-05T15:07:09.735Z</time></trkpt><trkpt lat="43.1584308" lon="13.7600709"><ele>102.0</ele><time>2026-04-05T15:07:10.711Z</time></trkpt><trkpt lat="43.1584509" lon="13.7599099"><ele>102.25</ele><time>2026-04-05T15:07:11.707Z</time></trkpt><trkpt lat="43.1584801" lon="13.7597467"><ele>102.5</ele><time>2026-04-05T15:07:12.709Z</time></trkpt><trkpt lat="43.1585224" lon="13.7595835"><ele>102.75</ele><time>2026-04-05T15:07:13.709Z</time></trkpt><trkpt lat="43.1585753" lon="13.7594193"><ele>103.0</ele><time>2026-04-05T15:07:14.714Z</time></trkpt><trkpt lat="43.1586397" lon="13.7592567"><ele>102.5</ele><time>2026-04-05T15:07:15.706Z</time></trkpt><trkpt lat="43.158715" lon="13.7591001"><ele>102.0</ele><time>2026-04-05T15:07:16.702Z</time></trkpt><trkpt lat="43.1587984" lon="13.7589539"><ele>101.5</ele><time>2026-04-05T15:07:17.716Z</time></trkpt><trkpt lat="43.1588873" lon="13.7588172"><ele>101.0</ele><time>2026-04-05T15:07:18.713Z</time></trkpt><trkpt lat="43.1589798" lon="13.7586862"><ele>103.0</ele><time>2026-04-05T15:07:19.71Z</time></trkpt><trkpt lat="43.1590742" lon="13.7585534"><ele>105.0</ele><time>2026-04-05T15:07:20.719Z</time></trkpt><trkpt lat="43.1591693" lon="13.7584176"><ele>107.0</ele><time>2026-04-05T15:07:21.713Z</time></trkpt><trkpt lat="43.1592648" lon="13.7582796"><ele>109.0</ele><time>2026-04-05T15:07:22.709Z</time></trkpt><trkpt lat="43.1593616" lon="13.7581405"><ele>109.0</ele><time>2026-04-05T15:07:23.712Z</time></trkpt><trkpt lat="43.1594588" lon="13.7579992"><ele>109.0</ele><time>2026-04-05T15:07:24.708Z</time></trkpt><trkpt lat="43.1595546" lon="13.7578577"><ele>109.0</ele><time>2026-04-05T15:07:25.709Z</time></trkpt><trkpt lat="43.1596482" lon="13.7577189"><ele>109.0</ele><time>2026-04-05T15:07:26.707Z</time></trkpt><trkpt lat="43.1597364" lon="13.7575829"><ele>109.5</ele><time>2026-04-05T15:07:27.706Z</time></trkpt><trkpt lat="43.1598179" lon="13.7574546"><ele>110.0</ele><time>2026-04-05T15:07:28.709Z</time></trkpt><trkpt lat="43.1598885" lon="13.7573311"><ele>110.5</ele><time>2026-04-05T15:07:29.71Z</time></trkpt><trkpt lat="43.15995" lon="13.757207"><ele>111.0</ele><time>2026-04-05T15:07:30.71Z</time></trkpt><trkpt lat="43.1600089" lon="13.7570751"><ele>111.0</ele><time>2026-04-05T15:07:31.704Z</time></trkpt><trkpt lat="43.1600696" lon="13.7569436"><ele>111.0</ele><time>2026-04-05T15:07:32.707Z</time></trkpt><trkpt lat="43.1601396" lon="13.7567967"><ele>111.0</ele><time>2026-04-05T15:07:33.708Z</time></trkpt><trkpt lat="43.1602108" lon="13.7566381"><ele>111.0</ele><time>2026-04-05T15:07:34.706Z</time></trkpt><trkpt lat="43.1602844" lon="13.7564718"><ele>110.25</ele><time>2026-04-05T15:07:35.726Z</time></trkpt><trkpt lat="43.1603551" lon="13.7563"><ele>109.5</ele><time>2026-04-05T15:07:36.711Z</time></trkpt><trkpt lat="43.1604199" lon="13.7561148"><ele>108.75</ele><time>2026-04-05T15:07:37.716Z</time></trkpt><trkpt lat="43.1604668" lon="13.7559232"><ele>108.0</ele><time>2026-04-05T15:07:38.702Z</time></trkpt><trkpt lat="43.1604957" lon="13.7557399"><ele>107.25</ele><time>2026-04-05T15:07:39.713Z</time></trkpt><trkpt lat="43.1605224" lon="13.7555592"><ele>106.5</ele><time>2026-04-05T15:07:40.705Z</time></trkpt><trkpt lat="43.1605457" lon="13.7553737"><ele>105.75</ele><time>2026-04-05T15:07:41.705Z</time></trkpt><trkpt lat="43.1605701" lon="13.7551804"><ele>105.0</ele><time>2026-04-05T15:07:42.708Z</time></trkpt><trkpt lat="43.1605922" lon="13.7549754"><ele>104.33333333333334</ele><time>2026-04-05T15:07:43.709Z</time></trkpt><trkpt lat="43.1606088" lon="13.7547401"><ele>103.66666666666667</ele><time>2026-04-05T15:07:44.703Z</time></trkpt><trkpt lat="43.1606166" lon="13.7544776"><ele>103.0</ele><time>2026-04-05T15:07:45.707Z</time></trkpt><trkpt lat="43.1606218" lon="13.754189"><ele>102.0</ele><time>2026-04-05T15:07:46.706Z</time></trkpt><trkpt lat="43.1606269" lon="13.7538811"><ele>101.0</ele><time>2026-04-05T15:07:47.706Z</time></trkpt><trkpt lat="43.1606241" lon="13.7535676"><ele>103.5</ele><time>2026-04-05T15:07:48.705Z</time></trkpt><trkpt lat="43.1606135" lon="13.7532478"><ele>106.0</ele><time>2026-04-05T15:07:49.707Z</time></trkpt><trkpt lat="43.160596" lon="13.7529268"><ele>107.5</ele><time>2026-04-05T15:07:50.721Z</time></trkpt><trkpt lat="43.1605736" lon="13.7526072"><ele>109.0</ele><time>2026-04-05T15:07:51.708Z</time></trkpt><trkpt lat="43.1605481" lon="13.7522893"><ele>109.0</ele><time>2026-04-05T15:07:52.705Z</time></trkpt><trkpt lat="43.1605256" lon="13.7519794"><ele>109.0</ele><time>2026-04-05T15:07:53.703Z</time></trkpt><trkpt lat="43.1605154" lon="13.7516942"><ele>109.0</ele><time>2026-04-05T15:07:54.706Z</time></trkpt><trkpt lat="43.1604871" lon="13.7513802"><ele>110.0</ele><time>2026-04-05T15:07:55.706Z</time></trkpt><trkpt lat="43.1604631" lon="13.7510755"><ele>111.0</ele><time>2026-04-05T15:07:56.714Z</time></trkpt><trkpt lat="43.160439" lon="13.7507741"><ele>112.0</ele><time>2026-04-05T15:07:57.71Z</time></trkpt><trkpt lat="43.1604167" lon="13.7504793"><ele>113.33333333333334</ele><time>2026-04-05T15:07:58.706Z</time></trkpt><trkpt lat="43.160393" lon="13.7501885"><ele>114.66666666666666</ele><time>2026-04-05T15:07:59.711Z</time></trkpt><trkpt lat="43.1603701" lon="13.7498991"><ele>116.0</ele><time>2026-04-05T15:08:00.706Z</time></trkpt><trkpt lat="43.1603461" lon="13.7496115"><ele>117.66666666666666</ele><time>2026-04-05T15:08:01.705Z</time></trkpt><trkpt lat="43.1603242" lon="13.74933"><ele>119.33333333333334</ele><time>2026-04-05T15:08:02.703Z</time></trkpt><trkpt lat="43.1603006" lon="13.7490517"><ele>121.0</ele><time>2026-04-05T15:08:03.706Z</time></trkpt><trkpt lat="43.1602775" lon="13.7487756"><ele>122.33333333333334</ele><time>2026-04-05T15:08:04.706Z</time></trkpt><trkpt lat="43.1602567" lon="13.748501"><ele>123.66666666666666</ele><time>2026-04-05T15:08:05.711Z</time></trkpt><trkpt lat="43.1602357" lon="13.7482298"><ele>125.0</ele><time>2026-04-05T15:08:06.707Z</time></trkpt><trkpt lat="43.160217" lon="13.7479583"><ele>125.66666666666666</ele><time>2026-04-05T15:08:07.71Z</time></trkpt><trkpt lat="43.1601968" lon="13.7476887"><ele>126.33333333333334</ele><time>2026-04-05T15:08:08.708Z</time></trkpt><trkpt lat="43.160177" lon="13.7474194"><ele>127.0</ele><time>2026-04-05T15:08:09.705Z</time></trkpt><trkpt lat="43.1601576" lon="13.7471475"><ele>127.66666666666667</ele><time>2026-04-05T15:08:10.721Z</time></trkpt><trkpt lat="43.1601366" lon="13.7468756"><ele>128.33333333333334</ele><time>2026-04-05T15:08:11.703Z</time></trkpt><trkpt lat="43.1601176" lon="13.7466007"><ele>129.0</ele><time>2026-04-05T15:08:12.706Z</time></trkpt><trkpt lat="43.1600991" lon="13.7463222"><ele>129.0</ele><time>2026-04-05T15:08:13.705Z</time></trkpt><trkpt lat="43.1600838" lon="13.7460477"><ele>129.0</ele><time>2026-04-05T15:08:14.707Z</time></trkpt><trkpt lat="43.160069" lon="13.7457627"><ele>129.0</ele><time>2026-04-05T15:08:15.71Z</time></trkpt><trkpt lat="43.1600585" lon="13.7454781"><ele>128.66666666666666</ele><time>2026-04-05T15:08:16.725Z</time></trkpt><trkpt lat="43.1600453" lon="13.7451913"><ele>128.33333333333331</ele><time>2026-04-05T15:08:17.714Z</time></trkpt><trkpt lat="43.1600301" lon="13.7449056"><ele>128.0</ele><time>2026-04-05T15:08:18.708Z</time></trkpt><trkpt lat="43.160015" lon="13.7446212"><ele>129.0</ele><time>2026-04-05T15:08:19.708Z</time></trkpt><trkpt lat="43.1599983" lon="13.7443376"><ele>130.0</ele><time>2026-04-05T15:08:20.704Z</time></trkpt><trkpt lat="43.1599817" lon="13.7440546"><ele>131.0</ele><time>2026-04-05T15:08:21.712Z</time></trkpt><trkpt lat="43.1599623" lon="13.7437739"><ele>131.0</ele><time>2026-04-05T15:08:22.706Z</time></trkpt><trkpt lat="43.1599413" lon="13.7434937"><ele>131.0</ele><time>2026-04-05T15:08:23.709Z</time></trkpt><trkpt lat="43.1599171" lon="13.7432159"><ele>131.0</ele><time>2026-04-05T15:08:24.711Z</time></trkpt><trkpt lat="43.15989" lon="13.7429404"><ele>127.66666666666666</ele><time>2026-04-05T15:08:25.702Z</time></trkpt><trkpt lat="43.1598638" lon="13.7426648"><ele>124.33333333333334</ele><time>2026-04-05T15:08:26.715Z</time></trkpt><trkpt lat="43.1598357" lon="13.7423926"><ele>121.0</ele><time>2026-04-05T15:08:27.71Z</time></trkpt><trkpt lat="43.1598053" lon="13.7421203"><ele>122.33333333333334</ele><time>2026-04-05T15:08:28.706Z</time></trkpt><trkpt lat="43.1597764" lon="13.7418595"><ele>123.66666666666666</ele><time>2026-04-05T15:08:29.703Z</time></trkpt><trkpt lat="43.1597468" lon="13.741608"><ele>125.0</ele><time>2026-04-05T15:08:30.704Z</time></trkpt><trkpt lat="43.1597135" lon="13.7413528"><ele>125.0</ele><time>2026-04-05T15:08:31.709Z</time></trkpt><trkpt lat="43.1596803" lon="13.7410918"><ele>125.0</ele><time>2026-04-05T15:08:32.701Z</time></trkpt><trkpt lat="43.1596493" lon="13.7408227"><ele>125.0</ele><time>2026-04-05T15:08:33.71Z</time></trkpt><trkpt lat="43.159616" lon="13.7405567"><ele>126.66666666666666</ele><time>2026-04-05T15:08:34.699Z</time></trkpt><trkpt lat="43.1595834" lon="13.7402895"><ele>128.33333333333334</ele><time>2026-04-05T15:08:35.704Z</time></trkpt><trkpt lat="43.1595441" lon="13.7400221"><ele>130.0</ele><time>2026-04-05T15:08:36.706Z</time></trkpt><trkpt lat="43.1594907" lon="13.7397579"><ele>131.33333333333334</ele><time>2026-04-05T15:08:37.708Z</time></trkpt><trkpt lat="43.1594258" lon="13.7394984"><ele>132.66666666666666</ele><time>2026-04-05T15:08:38.701Z</time></trkpt><trkpt lat="43.1593493" lon="13.739246"><ele>134.0</ele><time>2026-04-05T15:08:39.709Z</time></trkpt><trkpt lat="43.1592626" lon="13.7389999"><ele>137.0</ele><time>2026-04-05T15:08:40.698Z</time></trkpt><trkpt lat="43.1591663" lon="13.7387586"><ele>140.0</ele><time>2026-04-05T15:08:41.702Z</time></trkpt><trkpt lat="43.159068" lon="13.7385202"><ele>143.0</ele><time>2026-04-05T15:08:42.703Z</time></trkpt><trkpt lat="43.158973" lon="13.7382835"><ele>147.0</ele><time>2026-04-05T15:08:43.706Z</time></trkpt><trkpt lat="43.1588826" lon="13.7380551"><ele>151.0</ele><time>2026-04-05T15:08:44.706Z</time></trkpt><trkpt lat="43.158803" lon="13.7378478"><ele>155.0</ele><time>2026-04-05T15:08:45.714Z</time></trkpt><trkpt lat="43.158734" lon="13.7376502"><ele>158.66666666666666</ele><time>2026-04-05T15:08:46.704Z</time></trkpt><trkpt lat="43.1586784" lon="13.7374389"><ele>162.33333333333334</ele><time>2026-04-05T15:08:47.717Z</time></trkpt><trkpt lat="43.1586369" lon="13.7372159"><ele>166.0</ele><time>2026-04-05T15:08:48.704Z</time></trkpt><trkpt lat="43.1586064" lon="13.7369847"><ele>168.66666666666669</ele><time>2026-04-05T15:08:49.704Z</time></trkpt><trkpt lat="43.1585849" lon="13.7367481"><ele>171.33333333333334</ele><time>2026-04-05T15:08:50.705Z</time></trkpt><trkpt lat="43.1585639" lon="13.736508"><ele>174.0</ele><time>2026-04-05T15:08:51.706Z</time></trkpt><trkpt lat="43.1585424" lon="13.7362652"><ele>174.66666666666666</ele><time>2026-04-05T15:08:52.706Z</time></trkpt><trkpt lat="43.1585201" lon="13.7360209"><ele>175.33333333333331</ele><time>2026-04-05T15:08:53.709Z</time></trkpt><trkpt lat="43.1584995" lon="13.7357754"><ele>176.0</ele><time>2026-04-05T15:08:54.702Z</time></trkpt><trkpt lat="43.158478" lon="13.7355306"><ele>176.0</ele><time>2026-04-05T15:08:55.722Z</time></trkpt><trkpt lat="43.1584543" lon="13.7352886"><ele>176.0</ele><time>2026-04-05T15:08:56.71Z</time></trkpt><trkpt lat="43.1584183" lon="13.735052"><ele>176.0</ele><time>2026-04-05T15:08:57.715Z</time></trkpt><trkpt lat="43.1583613" lon="13.7348243"><ele>177.0</ele><time>2026-04-05T15:08:58.705Z</time></trkpt><trkpt lat="43.1583" lon="13.7346044"><ele>178.0</ele><time>2026-04-05T15:08:59.707Z</time></trkpt><trkpt lat="43.158201" lon="13.7344021"><ele>179.0</ele><time>2026-04-05T15:09:00.705Z</time></trkpt><trkpt lat="43.1580889" lon="13.7342142"><ele>184.0</ele><time>2026-04-05T15:09:01.705Z</time></trkpt><trkpt lat="43.1579822" lon="13.7340159"><ele>189.0</ele><time>2026-04-05T15:09:02.701Z</time></trkpt><trkpt lat="43.1578698" lon="13.7338188"><ele>194.0</ele><time>2026-04-05T15:09:03.712Z</time></trkpt><trkpt lat="43.1577641" lon="13.7336136"><ele>192.66666666666669</ele><time>2026-04-05T15:09:04.703Z</time></trkpt><trkpt lat="43.1576539" lon="13.7334139"><ele>191.33333333333334</ele><time>2026-04-05T15:09:05.721Z</time></trkpt><trkpt lat="43.1575465" lon="13.7332218"><ele>190.0</ele><time>2026-04-05T15:09:06.699Z</time></trkpt><trkpt lat="43.1574511" lon="13.7330415"><ele>192.25</ele><time>2026-04-05T15:09:07.707Z</time></trkpt><trkpt lat="43.1573609" lon="13.7328794"><ele>194.5</ele><time>2026-04-05T15:09:08.701Z</time></trkpt><trkpt lat="43.1572793" lon="13.7327359"><ele>196.75</ele><time>2026-04-05T15:09:09.707Z</time></trkpt><trkpt lat="43.1572069" lon="13.732614"><ele>199.0</ele><time>2026-04-05T15:09:10.706Z</time></trkpt><trkpt lat="43.1571571" lon="13.7325048"><ele>198.99999999999997</ele><time>2026-04-05T15:09:11.701Z</time></trkpt><trkpt lat="43.1571314" lon="13.7324073"><ele>199.0</ele><time>2026-04-05T15:09:12.704Z</time></trkpt><trkpt lat="43.157109" lon="13.732316"><ele>199.0</ele><time>2026-04-05T15:09:13.702Z</time></trkpt><trkpt lat="43.1570661" lon="13.732227"><ele>199.0</ele><time>2026-04-05T15:09:14.706Z</time></trkpt><trkpt lat="43.1570088" lon="13.7321437"><ele>198.99999999999997</ele><time>2026-04-05T15:09:15.708Z</time></trkpt><trkpt lat="43.1569279" lon="13.7320517"><ele>199.0</ele><time>2026-04-05T15:09:16.702Z</time></trkpt><trkpt lat="43.1568602" lon="13.731925"><ele>198.25</ele><time>2026-04-05T15:09:17.699Z</time></trkpt><trkpt lat="43.1567905" lon="13.7317798"><ele>197.5</ele><time>2026-04-05T15:09:18.706Z</time></trkpt><trkpt lat="43.1567326" lon="13.7315961"><ele>196.75</ele><time>2026-04-05T15:09:19.708Z</time></trkpt><trkpt lat="43.1566823" lon="13.7313993"><ele>196.0</ele><time>2026-04-05T15:09:20.714Z</time></trkpt><trkpt lat="43.1566436" lon="13.7311834"><ele>196.33333333333331</ele><time>2026-04-05T15:09:21.713Z</time></trkpt><trkpt lat="43.15661" lon="13.7309543"><ele>196.66666666666669</ele><time>2026-04-05T15:09:22.702Z</time></trkpt><trkpt lat="43.1565805" lon="13.7307217"><ele>197.0</ele><time>2026-04-05T15:09:23.709Z</time></trkpt><trkpt lat="43.156548" lon="13.7304896"><ele>202.0</ele><time>2026-04-05T15:09:24.706Z</time></trkpt><trkpt lat="43.1565158" lon="13.7302668"><ele>207.0</ele><time>2026-04-05T15:09:25.705Z</time></trkpt><trkpt lat="43.1564827" lon="13.7300548"><ele>212.0</ele><time>2026-04-05T15:09:26.703Z</time></trkpt><trkpt lat="43.1564505" lon="13.729844"><ele>212.33333333333334</ele><time>2026-04-05T15:09:27.71Z</time></trkpt><trkpt lat="43.1564138" lon="13.7296325"><ele>212.66666666666669</ele><time>2026-04-05T15:09:28.705Z</time></trkpt><trkpt lat="43.1563779" lon="13.7294247"><ele>213.0</ele><time>2026-04-05T15:09:29.701Z</time></trkpt><trkpt lat="43.1563459" lon="13.7292293"><ele>213.25</ele><time>2026-04-05T15:09:30.707Z</time></trkpt><trkpt lat="43.1563272" lon="13.7290505"><ele>213.5</ele><time>2026-04-05T15:09:31.705Z</time></trkpt><trkpt lat="43.1562979" lon="13.7288908"><ele>213.75</ele><time>2026-04-05T15:09:32.705Z</time></trkpt><trkpt lat="43.1562757" lon="13.7287062"><ele>214.0</ele><time>2026-04-05T15:09:33.707Z</time></trkpt><trkpt lat="43.1562453" lon="13.7285262"><ele>213.0</ele><time>2026-04-05T15:09:34.709Z</time></trkpt><trkpt lat="43.1562089" lon="13.7283352"><ele>212.0</ele><time>2026-04-05T15:09:35.701Z</time></trkpt><trkpt lat="43.1561745" lon="13.7281507"><ele>211.0</ele><time>2026-04-05T15:09:36.702Z</time></trkpt><trkpt lat="43.1561456" lon="13.7279722"><ele>210.0</ele><time>2026-04-05T15:09:37.706Z</time></trkpt><trkpt lat="43.1561148" lon="13.7277919"><ele>208.5</ele><time>2026-04-05T15:09:38.702Z</time></trkpt><trkpt lat="43.1560856" lon="13.7276075"><ele>207.0</ele><time>2026-04-05T15:09:39.703Z</time></trkpt><trkpt lat="43.1560572" lon="13.7274177"><ele>205.5</ele><time>2026-04-05T15:09:40.704Z</time></trkpt><trkpt lat="43.1560358" lon="13.7272199"><ele>204.0</ele><time>2026-04-05T15:09:41.703Z</time></trkpt><trkpt lat="43.1560265" lon="13.7270146"><ele>202.0</ele><time>2026-04-05T15:09:42.708Z</time></trkpt><trkpt lat="43.1560282" lon="13.7268022"><ele>200.0</ele><time>2026-04-05T15:09:43.705Z</time></trkpt><trkpt lat="43.1560339" lon="13.7265897"><ele>198.0</ele><time>2026-04-05T15:09:44.706Z</time></trkpt><trkpt lat="43.1560461" lon="13.7263799"><ele>198.0</ele><time>2026-04-05T15:09:45.703Z</time></trkpt><trkpt lat="43.1560664" lon="13.7261806"><ele>198.0</ele><time>2026-04-05T15:09:46.707Z</time></trkpt><trkpt lat="43.1560969" lon="13.7259866"><ele>198.0</ele><time>2026-04-05T15:09:47.712Z</time></trkpt><trkpt lat="43.1561307" lon="13.7257888"><ele>198.0</ele><time>2026-04-05T15:09:48.702Z</time></trkpt><trkpt lat="43.1561664" lon="13.7255925"><ele>197.75</ele><time>2026-04-05T15:09:49.7Z</time></trkpt><trkpt lat="43.1561971" lon="13.7253994"><ele>197.5</ele><time>2026-04-05T15:09:50.705Z</time></trkpt><trkpt lat="43.1562284" lon="13.725213"><ele>197.25</ele><time>2026-04-05T15:09:51.713Z</time></trkpt><trkpt lat="43.1562651" lon="13.7250337"><ele>197.0</ele><time>2026-04-05T15:09:52.707Z</time></trkpt><trkpt lat="43.1563221" lon="13.7248704"><ele>197.5</ele><time>2026-04-05T15:09:53.699Z</time></trkpt><trkpt lat="43.1563998" lon="13.7247195"><ele>198.0</ele><time>2026-04-05T15:09:54.699Z</time></trkpt><trkpt lat="43.1564906" lon="13.7245781"><ele>198.5</ele><time>2026-04-05T15:09:55.708Z</time></trkpt><trkpt lat="43.156585" lon="13.7244487"><ele>199.0</ele><time>2026-04-05T15:09:56.701Z</time></trkpt><trkpt lat="43.1566726" lon="13.7243333"><ele>199.5</ele><time>2026-04-05T15:09:57.716Z</time></trkpt><trkpt lat="43.1567574" lon="13.7242263"><ele>200.0</ele><time>2026-04-05T15:09:58.702Z</time></trkpt><trkpt lat="43.1568396" lon="13.724121"><ele>200.5</ele><time>2026-04-05T15:09:59.706Z</time></trkpt><trkpt lat="43.1569225" lon="13.7240121"><ele>201.0</ele><time>2026-04-05T15:10:00.707Z</time></trkpt><trkpt lat="43.1570075" lon="13.7239026"><ele>201.0</ele><time>2026-04-05T15:10:01.704Z</time></trkpt><trkpt lat="43.1570916" lon="13.7237956"><ele>201.0</ele><time>2026-04-05T15:10:02.705Z</time></trkpt><trkpt lat="43.1571768" lon="13.7236932"><ele>201.0</ele><time>2026-04-05T15:10:03.701Z</time></trkpt><trkpt lat="43.1572571" lon="13.7235999"><ele>201.0</ele><time>2026-04-05T15:10:04.703Z</time></trkpt><trkpt lat="43.1573339" lon="13.7235181"><ele>201.0</ele><time>2026-04-05T15:10:05.704Z</time></trkpt><trkpt lat="43.1574104" lon="13.7234393"><ele>202.0</ele><time>2026-04-05T15:10:06.715Z</time></trkpt><trkpt lat="43.1574869" lon="13.7233619"><ele>203.0</ele><time>2026-04-05T15:10:07.704Z</time></trkpt><trkpt lat="43.1575631" lon="13.7232853"><ele>204.0</ele><time>2026-04-05T15:10:08.699Z</time></trkpt><trkpt lat="43.1576407" lon="13.7232092"><ele>205.0</ele><time>2026-04-05T15:10:09.706Z</time></trkpt><trkpt lat="43.1577199" lon="13.7231339"><ele>206.0</ele><time>2026-04-05T15:10:10.706Z</time></trkpt><trkpt lat="43.1577999" lon="13.7230615"><ele>206.00000000000003</ele><time>2026-04-05T15:10:11.708Z</time></trkpt><trkpt lat="43.1578735" lon="13.7230013"><ele>206.0</ele><time>2026-04-05T15:10:12.701Z</time></trkpt><trkpt lat="43.1579368" lon="13.722953"><ele>206.0</ele><time>2026-04-05T15:10:13.703Z</time></trkpt><trkpt lat="43.1580377" lon="13.7228881"><ele>206.0</ele><time>2026-04-05T15:10:15.709Z</time></trkpt><trkpt lat="43.1581118" lon="13.722848"><ele>206.00000000000003</ele><time>2026-04-05T15:10:17.704Z</time></trkpt><trkpt lat="43.158185" lon="13.7228427"><ele>206.0</ele><time>2026-04-05T15:10:19.702Z</time></trkpt><trkpt lat="43.1582848" lon="13.7227921"><ele>208.00000000000003</ele><time>2026-04-05T15:10:22.705Z</time></trkpt><trkpt lat="43.1582927" lon="13.722663"><ele>210.0</ele><time>2026-04-05T15:10:24.701Z</time></trkpt><trkpt lat="43.1582665" lon="13.7225813"><ele>212.0</ele><time>2026-04-05T15:10:25.706Z</time></trkpt><trkpt lat="43.1582466" lon="13.7224713"><ele>214.0</ele><time>2026-04-05T15:10:26.704Z</time></trkpt><trkpt lat="43.1582387" lon="13.7223388"><ele>216.00000000000003</ele><time>2026-04-05T15:10:27.702Z</time></trkpt><trkpt lat="43.1582419" lon="13.7221937"><ele>218.0</ele><time>2026-04-05T15:10:28.701Z</time></trkpt><trkpt lat="43.1582588" lon="13.7220239"><ele>217.33333333333334</ele><time>2026-04-05T15:10:29.704Z</time></trkpt><trkpt lat="43.1582941" lon="13.7218183"><ele>216.66666666666669</ele><time>2026-04-05T15:10:30.706Z</time></trkpt><trkpt lat="43.1583467" lon="13.7215925"><ele>216.0</ele><time>2026-04-05T15:10:31.705Z</time></trkpt><trkpt lat="43.1584134" lon="13.7213477"><ele>216.0</ele><time>2026-04-05T15:10:32.697Z</time></trkpt><trkpt lat="43.1584796" lon="13.7211143"><ele>216.0</ele><time>2026-04-05T15:10:33.703Z</time></trkpt><trkpt lat="43.1585377" lon="13.7208964"><ele>216.0</ele><time>2026-04-05T15:10:34.71Z</time></trkpt><trkpt lat="43.1585925" lon="13.720696"><ele>214.5</ele><time>2026-04-05T15:10:35.696Z</time></trkpt><trkpt lat="43.1586445" lon="13.7205123"><ele>213.0</ele><time>2026-04-05T15:10:36.714Z</time></trkpt><trkpt lat="43.158692" lon="13.7203437"><ele>211.5</ele><time>2026-04-05T15:10:37.701Z</time></trkpt><trkpt lat="43.1587358" lon="13.7201872"><ele>210.0</ele><time>2026-04-05T15:10:38.7Z</time></trkpt><trkpt lat="43.1587784" lon="13.7200331"><ele>207.75</ele><time>2026-04-05T15:10:39.705Z</time></trkpt><trkpt lat="43.1588224" lon="13.7198774"><ele>205.5</ele><time>2026-04-05T15:10:40.701Z</time></trkpt><trkpt lat="43.1588666" lon="13.7197172"><ele>203.25</ele><time>2026-04-05T15:10:41.705Z</time></trkpt><trkpt lat="43.1589082" lon="13.719551"><ele>201.0</ele><time>2026-04-05T15:10:42.706Z</time></trkpt><trkpt lat="43.1589431" lon="13.7193825"><ele>200.60000000000002</ele><time>2026-04-05T15:10:43.702Z</time></trkpt><trkpt lat="43.1589676" lon="13.7192227"><ele>200.2</ele><time>2026-04-05T15:10:44.701Z</time></trkpt><trkpt lat="43.1589788" lon="13.7190729"><ele>199.8</ele><time>2026-04-05T15:10:45.699Z</time></trkpt><trkpt lat="43.158976" lon="13.7189289"><ele>199.39999999999998</ele><time>2026-04-05T15:10:46.706Z</time></trkpt><trkpt lat="43.1589697" lon="13.7187835"><ele>199.0</ele><time>2026-04-05T15:10:47.703Z</time></trkpt><trkpt lat="43.1589625" lon="13.7186422"><ele>200.2</ele><time>2026-04-05T15:10:48.703Z</time></trkpt><trkpt lat="43.1589525" lon="13.7184963"><ele>201.39999999999998</ele><time>2026-04-05T15:10:49.699Z</time></trkpt><trkpt lat="43.1589427" lon="13.7183462"><ele>202.6</ele><time>2026-04-05T15:10:50.699Z</time></trkpt><trkpt lat="43.1589313" lon="13.7181922"><ele>203.8</ele><time>2026-04-05T15:10:51.698Z</time></trkpt><trkpt lat="43.1589179" lon="13.7180347"><ele>205.0</ele><time>2026-04-05T15:10:52.703Z</time></trkpt><trkpt lat="43.158902" lon="13.7178743"><ele>206.5</ele><time>2026-04-05T15:10:53.703Z</time></trkpt><trkpt lat="43.1588831" lon="13.7177117"><ele>208.0</ele><time>2026-04-05T15:10:54.707Z</time></trkpt><trkpt lat="43.1588619" lon="13.7175479"><ele>209.5</ele><time>2026-04-05T15:10:55.705Z</time></trkpt><trkpt lat="43.1588379" lon="13.7173839"><ele>211.0</ele><time>2026-04-05T15:10:56.704Z</time></trkpt><trkpt lat="43.1588111" lon="13.7172206"><ele>211.0</ele><time>2026-04-05T15:10:57.699Z</time></trkpt><trkpt lat="43.1587798" lon="13.7170597"><ele>211.0</ele><time>2026-04-05T15:10:58.708Z</time></trkpt><trkpt lat="43.1587438" lon="13.7169055"><ele>211.0</ele><time>2026-04-05T15:10:59.699Z</time></trkpt><trkpt lat="43.1587083" lon="13.7167645"><ele>211.0</ele><time>2026-04-05T15:11:00.697Z</time></trkpt><trkpt lat="43.1586732" lon="13.7166406"><ele>211.0</ele><time>2026-04-05T15:11:01.707Z</time></trkpt><trkpt lat="43.1586478" lon="13.7165331"><ele>213.0</ele><time>2026-04-05T15:11:02.701Z</time></trkpt><trkpt lat="43.158631" lon="13.7164392"><ele>215.0</ele><time>2026-04-05T15:11:03.702Z</time></trkpt><trkpt lat="43.1585895" lon="13.7162953"><ele>217.00000000000003</ele><time>2026-04-05T15:11:05.699Z</time></trkpt><trkpt lat="43.1585591" lon="13.716186"><ele>219.0</ele><time>2026-04-05T15:11:07.706Z</time></trkpt><trkpt lat="43.158523" lon="13.7160767"><ele>221.0</ele><time>2026-04-05T15:11:09.711Z</time></trkpt><trkpt lat="43.1584808" lon="13.7159248"><ele>221.66666666666669</ele><time>2026-04-05T15:11:11.704Z</time></trkpt><trkpt lat="43.1584595" lon="13.7158397"><ele>222.33333333333334</ele><time>2026-04-05T15:11:12.703Z</time></trkpt><trkpt lat="43.1584373" lon="13.7157511"><ele>223.0</ele><time>2026-04-05T15:11:13.706Z</time></trkpt><trkpt lat="43.1584106" lon="13.715658"><ele>223.66666666666669</ele><time>2026-04-05T15:11:14.698Z</time></trkpt><trkpt lat="43.1583828" lon="13.7155581"><ele>224.33333333333334</ele><time>2026-04-05T15:11:15.718Z</time></trkpt><trkpt lat="43.1583523" lon="13.7154535"><ele>225.0</ele><time>2026-04-05T15:11:16.701Z</time></trkpt><trkpt lat="43.15832" lon="13.7153435"><ele>226.6</ele><time>2026-04-05T15:11:17.705Z</time></trkpt><trkpt lat="43.1582884" lon="13.7152325"><ele>228.2</ele><time>2026-04-05T15:11:18.699Z</time></trkpt><trkpt lat="43.1582537" lon="13.7151092"><ele>229.8</ele><time>2026-04-05T15:11:19.704Z</time></trkpt><trkpt lat="43.1582214" lon="13.7149714"><ele>231.4</ele><time>2026-04-05T15:11:20.709Z</time></trkpt><trkpt lat="43.1581907" lon="13.7148132"><ele>233.0</ele><time>2026-04-05T15:11:21.711Z</time></trkpt><trkpt lat="43.158174" lon="13.714654"><ele>234.0</ele><time>2026-04-05T15:11:22.704Z</time></trkpt><trkpt lat="43.1581754" lon="13.7145042"><ele>235.0</ele><time>2026-04-05T15:11:23.699Z</time></trkpt><trkpt lat="43.1581951" lon="13.714356"><ele>236.0</ele><time>2026-04-05T15:11:24.712Z</time></trkpt><trkpt lat="43.1582357" lon="13.7142231"><ele>237.0</ele><time>2026-04-05T15:11:25.706Z</time></trkpt><trkpt lat="43.1582848" lon="13.7140939"><ele>238.0</ele><time>2026-04-05T15:11:26.725Z</time></trkpt><trkpt lat="43.1583269" lon="13.7139711"><ele>238.0</ele><time>2026-04-05T15:11:27.706Z</time></trkpt><trkpt lat="43.158379" lon="13.7138394"><ele>238.0</ele><time>2026-04-05T15:11:28.708Z</time></trkpt><trkpt lat="43.1584344" lon="13.7137071"><ele>238.0</ele><time>2026-04-05T15:11:29.705Z</time></trkpt><trkpt lat="43.1584886" lon="13.7135762"><ele>238.0</ele><time>2026-04-05T15:11:30.706Z</time></trkpt><trkpt lat="43.1585412" lon="13.7134408"><ele>238.0</ele><time>2026-04-05T15:11:31.707Z</time></trkpt><trkpt lat="43.1585946" lon="13.7133042"><ele>234.25</ele><time>2026-04-05T15:11:32.703Z</time></trkpt><trkpt lat="43.1586536" lon="13.7131714"><ele>230.5</ele><time>2026-04-05T15:11:33.703Z</time></trkpt><trkpt lat="43.1587093" lon="13.7130329"><ele>226.75</ele><time>2026-04-05T15:11:34.697Z</time></trkpt><trkpt lat="43.1587633" lon="13.7128934"><ele>223.0</ele><time>2026-04-05T15:11:35.712Z</time></trkpt><trkpt lat="43.1588171" lon="13.7127487"><ele>225.75</ele><time>2026-04-05T15:11:36.701Z</time></trkpt><trkpt lat="43.1588736" lon="13.7126033"><ele>228.5</ele><time>2026-04-05T15:11:37.709Z</time></trkpt><trkpt lat="43.1589343" lon="13.7124594"><ele>231.25</ele><time>2026-04-05T15:11:38.711Z</time></trkpt><trkpt lat="43.1589932" lon="13.7123127"><ele>234.0</ele><time>2026-04-05T15:11:39.699Z</time></trkpt><trkpt lat="43.1590493" lon="13.7121678"><ele>234.0</ele><time>2026-04-05T15:11:40.709Z</time></trkpt><trkpt lat="43.1591026" lon="13.712025"><ele>234.0</ele><time>2026-04-05T15:11:41.699Z</time></trkpt><trkpt lat="43.1591557" lon="13.7118829"><ele>234.0</ele><time>2026-04-05T15:11:42.702Z</time></trkpt><trkpt lat="43.1592072" lon="13.7117413"><ele>234.0</ele><time>2026-04-05T15:11:43.699Z</time></trkpt><trkpt lat="43.1592591" lon="13.7115997"><ele>231.79999999999998</ele><time>2026-04-05T15:11:44.7Z</time></trkpt><trkpt lat="43.1593129" lon="13.711461"><ele>229.59999999999997</ele><time>2026-04-05T15:11:45.698Z</time></trkpt><trkpt lat="43.1593674" lon="13.7113245"><ele>227.4</ele><time>2026-04-05T15:11:46.7Z</time></trkpt><trkpt lat="43.1594187" lon="13.7111942"><ele>225.2</ele><time>2026-04-05T15:11:47.707Z</time></trkpt><trkpt lat="43.1594663" lon="13.711074"><ele>223.0</ele><time>2026-04-05T15:11:48.701Z</time></trkpt><trkpt lat="43.1595092" lon="13.7109606"><ele>220.4</ele><time>2026-04-05T15:11:49.702Z</time></trkpt><trkpt lat="43.1595504" lon="13.7108501"><ele>217.8</ele><time>2026-04-05T15:11:50.707Z</time></trkpt><trkpt lat="43.1595875" lon="13.7107364"><ele>215.2</ele><time>2026-04-05T15:11:51.706Z</time></trkpt><trkpt lat="43.1596228" lon="13.7106194"><ele>212.6</ele><time>2026-04-05T15:11:52.701Z</time></trkpt><trkpt lat="43.1596523" lon="13.7104987"><ele>210.0</ele><time>2026-04-05T15:11:53.703Z</time></trkpt><trkpt lat="43.1596719" lon="13.7103792"><ele>210.0</ele><time>2026-04-05T15:11:54.711Z</time></trkpt><trkpt lat="43.1596837" lon="13.7102574"><ele>210.0</ele><time>2026-04-05T15:11:55.71Z</time></trkpt><trkpt lat="43.1596857" lon="13.7101287"><ele>210.0</ele><time>2026-04-05T15:11:56.704Z</time></trkpt><trkpt lat="43.1596766" lon="13.7099953"><ele>210.0</ele><time>2026-04-05T15:11:57.702Z</time></trkpt><trkpt lat="43.1596527" lon="13.7098623"><ele>210.0</ele><time>2026-04-05T15:11:58.711Z</time></trkpt><trkpt lat="43.1596171" lon="13.7097345"><ele>210.2</ele><time>2026-04-05T15:11:59.705Z</time></trkpt><trkpt lat="43.159575" lon="13.7096118"><ele>210.4</ele><time>2026-04-05T15:12:00.699Z</time></trkpt><trkpt lat="43.1595256" lon="13.7094935"><ele>210.60000000000002</ele><time>2026-04-05T15:12:01.708Z</time></trkpt><trkpt lat="43.1594738" lon="13.7093829"><ele>210.8</ele><time>2026-04-05T15:12:02.704Z</time></trkpt><trkpt lat="43.1594241" lon="13.709283"><ele>211.0</ele><time>2026-04-05T15:12:03.711Z</time></trkpt><trkpt lat="43.1593743" lon="13.7091847"><ele>212.60000000000002</ele><time>2026-04-05T15:12:04.705Z</time></trkpt><trkpt lat="43.1593227" lon="13.7090829"><ele>214.2</ele><time>2026-04-05T15:12:05.71Z</time></trkpt><trkpt lat="43.1592688" lon="13.7089742"><ele>215.79999999999998</ele><time>2026-04-05T15:12:06.706Z</time></trkpt><trkpt lat="43.1592114" lon="13.7088614"><ele>217.39999999999998</ele><time>2026-04-05T15:12:07.709Z</time></trkpt><trkpt lat="43.1591509" lon="13.7087483"><ele>219.0</ele><time>2026-04-05T15:12:08.713Z</time></trkpt><trkpt lat="43.1590946" lon="13.70864"><ele>219.5</ele><time>2026-04-05T15:12:09.711Z</time></trkpt><trkpt lat="43.1590461" lon="13.7085387"><ele>220.0</ele><time>2026-04-05T15:12:10.712Z</time></trkpt><trkpt lat="43.1590064" lon="13.7084483"><ele>220.5</ele><time>2026-04-05T15:12:11.714Z</time></trkpt><trkpt lat="43.1589753" lon="13.7083682"><ele>221.0</ele><time>2026-04-05T15:12:12.704Z</time></trkpt><trkpt lat="43.1589424" lon="13.70823"><ele>221.5</ele><time>2026-04-05T15:12:14.701Z</time></trkpt><trkpt lat="43.1589522" lon="13.7081213"><ele>222.0</ele><time>2026-04-05T15:12:16.718Z</time></trkpt><trkpt lat="43.1589814" lon="13.7079887"><ele>221.5</ele><time>2026-04-05T15:12:18.711Z</time></trkpt><trkpt lat="43.1589925" lon="13.7078251"><ele>221.0</ele><time>2026-04-05T15:12:20.704Z</time></trkpt><trkpt lat="43.1590076" lon="13.707727"><ele>220.5</ele><time>2026-04-05T15:12:21.707Z</time></trkpt><trkpt lat="43.159024" lon="13.7076326"><ele>220.0</ele><time>2026-04-05T15:12:22.712Z</time></trkpt><trkpt lat="43.1590713" lon="13.7075221"><ele>219.5</ele><time>2026-04-05T15:12:23.706Z</time></trkpt><trkpt lat="43.1591197" lon="13.7074227"><ele>219.0</ele><time>2026-04-05T15:12:24.706Z</time></trkpt><trkpt lat="43.1591745" lon="13.7073083"><ele>219.0</ele><time>2026-04-05T15:12:25.705Z</time></trkpt><trkpt lat="43.1592365" lon="13.7071993"><ele>218.99999999999997</ele><time>2026-04-05T15:12:26.706Z</time></trkpt><trkpt lat="43.1592851" lon="13.7070859"><ele>218.99999999999997</ele><time>2026-04-05T15:12:27.701Z</time></trkpt><trkpt lat="43.1593393" lon="13.7069832"><ele>219.0</ele><time>2026-04-05T15:12:28.704Z</time></trkpt><trkpt lat="43.1593958" lon="13.706884"><ele>219.0</ele><time>2026-04-05T15:12:29.704Z</time></trkpt><trkpt lat="43.159457" lon="13.7067887"><ele>218.16666666666666</ele><time>2026-04-05T15:12:30.708Z</time></trkpt><trkpt lat="43.159504" lon="13.7067031"><ele>217.33333333333331</ele><time>2026-04-05T15:12:31.699Z</time></trkpt><trkpt lat="43.1595454" lon="13.7066283"><ele>216.5</ele><time>2026-04-05T15:12:32.701Z</time></trkpt><trkpt lat="43.1595945" lon="13.7065694"><ele>215.66666666666666</ele><time>2026-04-05T15:12:33.704Z</time></trkpt><trkpt lat="43.1596662" lon="13.7064262"><ele>214.83333333333331</ele><time>2026-04-05T15:12:35.703Z</time></trkpt><trkpt lat="43.1597041" lon="13.7063492"><ele>214.0</ele><time>2026-04-05T15:12:36.702Z</time></trkpt><trkpt lat="43.1597474" lon="13.7062569"><ele>214.0</ele><time>2026-04-05T15:12:37.702Z</time></trkpt><trkpt lat="43.1597983" lon="13.7061518"><ele>213.99999999999997</ele><time>2026-04-05T15:12:38.702Z</time></trkpt><trkpt lat="43.1598536" lon="13.7060427"><ele>213.99999999999997</ele><time>2026-04-05T15:12:39.707Z</time></trkpt><trkpt lat="43.159913" lon="13.7059271"><ele>214.0</ele><time>2026-04-05T15:12:40.702Z</time></trkpt><trkpt lat="43.15997" lon="13.7058094"><ele>214.0</ele><time>2026-04-05T15:12:41.707Z</time></trkpt><trkpt lat="43.1600181" lon="13.705694"><ele>213.6</ele><time>2026-04-05T15:12:42.699Z</time></trkpt><trkpt lat="43.1600629" lon="13.7055788"><ele>213.2</ele><time>2026-04-05T15:12:43.708Z</time></trkpt><trkpt lat="43.1601052" lon="13.7054591"><ele>212.79999999999998</ele><time>2026-04-05T15:12:44.701Z</time></trkpt><trkpt lat="43.1601533" lon="13.7053322"><ele>212.39999999999998</ele><time>2026-04-05T15:12:45.708Z</time></trkpt><trkpt lat="43.1602081" lon="13.7051998"><ele>212.0</ele><time>2026-04-05T15:12:46.711Z</time></trkpt><trkpt lat="43.1602734" lon="13.7050676"><ele>208.0</ele><time>2026-04-05T15:12:47.708Z</time></trkpt><trkpt lat="43.1603488" lon="13.7049392"><ele>204.0</ele><time>2026-04-05T15:12:48.715Z</time></trkpt><trkpt lat="43.1604282" lon="13.7048085"><ele>200.0</ele><time>2026-04-05T15:12:49.705Z</time></trkpt><trkpt lat="43.1605133" lon="13.7046817"><ele>196.0</ele><time>2026-04-05T15:12:50.709Z</time></trkpt><trkpt lat="43.1605963" lon="13.7045616"><ele>196.0</ele><time>2026-04-05T15:12:51.702Z</time></trkpt><trkpt lat="43.1606754" lon="13.7044461"><ele>196.0</ele><time>2026-04-05T15:12:52.706Z</time></trkpt><trkpt lat="43.1607519" lon="13.7043344"><ele>196.0</ele><time>2026-04-05T15:12:53.708Z</time></trkpt><trkpt lat="43.1608271" lon="13.7042296"><ele>196.0</ele><time>2026-04-05T15:12:54.7Z</time></trkpt><trkpt lat="43.1609031" lon="13.7041263"><ele>196.0</ele><time>2026-04-05T15:12:55.719Z</time></trkpt><trkpt lat="43.1609796" lon="13.7040105"><ele>197.0</ele><time>2026-04-05T15:12:56.706Z</time></trkpt><trkpt lat="43.1610555" lon="13.7038824"><ele>198.0</ele><time>2026-04-05T15:12:57.699Z</time></trkpt><trkpt lat="43.1611289" lon="13.7037441"><ele>199.0</ele><time>2026-04-05T15:12:58.703Z</time></trkpt><trkpt lat="43.1611934" lon="13.7035942"><ele>200.0</ele><time>2026-04-05T15:12:59.704Z</time></trkpt><trkpt lat="43.1612434" lon="13.7034322"><ele>195.5</ele><time>2026-04-05T15:13:00.704Z</time></trkpt><trkpt lat="43.1612745" lon="13.7032637"><ele>191.0</ele><time>2026-04-05T15:13:01.705Z</time></trkpt><trkpt lat="43.161291" lon="13.7030976"><ele>186.5</ele><time>2026-04-05T15:13:02.698Z</time></trkpt><trkpt lat="43.161296" lon="13.7029362"><ele>182.0</ele><time>2026-04-05T15:13:03.705Z</time></trkpt><trkpt lat="43.1612948" lon="13.7027804"><ele>180.6</ele><time>2026-04-05T15:13:04.702Z</time></trkpt><trkpt lat="43.1612892" lon="13.7026292"><ele>179.2</ele><time>2026-04-05T15:13:05.708Z</time></trkpt><trkpt lat="43.1612829" lon="13.7024814"><ele>177.8</ele><time>2026-04-05T15:13:06.711Z</time></trkpt><trkpt lat="43.1612785" lon="13.702334"><ele>176.4</ele><time>2026-04-05T15:13:07.714Z</time></trkpt><trkpt lat="43.1612753" lon="13.7021965"><ele>175.0</ele><time>2026-04-05T15:13:08.706Z</time></trkpt><trkpt lat="43.1612996" lon="13.7020646"><ele>175.0</ele><time>2026-04-05T15:13:09.7Z</time></trkpt><trkpt lat="43.1613423" lon="13.7019424"><ele>175.0</ele><time>2026-04-05T15:13:10.703Z</time></trkpt><trkpt lat="43.1614028" lon="13.70183"><ele>175.0</ele><time>2026-04-05T15:13:11.706Z</time></trkpt><trkpt lat="43.1614709" lon="13.7017205"><ele>175.0</ele><time>2026-04-05T15:13:12.703Z</time></trkpt><trkpt lat="43.1615339" lon="13.7016116"><ele>175.0</ele><time>2026-04-05T15:13:13.714Z</time></trkpt><trkpt lat="43.1615904" lon="13.7015043"><ele>176.0</ele><time>2026-04-05T15:13:14.702Z</time></trkpt><trkpt lat="43.1616356" lon="13.7013967"><ele>177.0</ele><time>2026-04-05T15:13:15.71Z</time></trkpt><trkpt lat="43.1616703" lon="13.7012882"><ele>178.0</ele><time>2026-04-05T15:13:16.712Z</time></trkpt><trkpt lat="43.1616967" lon="13.7011824"><ele>179.0</ele><time>2026-04-05T15:13:17.704Z</time></trkpt><trkpt lat="43.1617147" lon="13.7010678"><ele>180.0</ele><time>2026-04-05T15:13:18.704Z</time></trkpt><trkpt lat="43.1617265" lon="13.700939"><ele>181.0</ele><time>2026-04-05T15:13:19.702Z</time></trkpt><trkpt lat="43.1617328" lon="13.7007966"><ele>181.0</ele><time>2026-04-05T15:13:20.706Z</time></trkpt><trkpt lat="43.161739" lon="13.7006493"><ele>181.0</ele><time>2026-04-05T15:13:21.71Z</time></trkpt><trkpt lat="43.161725" lon="13.7004907"><ele>181.0</ele><time>2026-04-05T15:13:22.704Z</time></trkpt><trkpt lat="43.1617023" lon="13.7003385"><ele>181.0</ele><time>2026-04-05T15:13:23.702Z</time></trkpt><trkpt lat="43.1616743" lon="13.7001931"><ele>181.0</ele><time>2026-04-05T15:13:24.723Z</time></trkpt><trkpt lat="43.1616396" lon="13.7000456"><ele>181.0</ele><time>2026-04-05T15:13:25.704Z</time></trkpt><trkpt lat="43.1615957" lon="13.6998921"><ele>181.0</ele><time>2026-04-05T15:13:26.723Z</time></trkpt><trkpt lat="43.1615415" lon="13.6997358"><ele>181.0</ele><time>2026-04-05T15:13:27.706Z</time></trkpt><trkpt lat="43.1614723" lon="13.6995806"><ele>181.0</ele><time>2026-04-05T15:13:28.702Z</time></trkpt><trkpt lat="43.1613882" lon="13.6994283"><ele>176.75</ele><time>2026-04-05T15:13:29.702Z</time></trkpt><trkpt lat="43.1612974" lon="13.6992862"><ele>172.5</ele><time>2026-04-05T15:13:30.707Z</time></trkpt><trkpt lat="43.1612062" lon="13.6991422"><ele>168.25</ele><time>2026-04-05T15:13:31.706Z</time></trkpt><trkpt lat="43.1611145" lon="13.6989956"><ele>164.0</ele><time>2026-04-05T15:13:32.699Z</time></trkpt><trkpt lat="43.1610437" lon="13.6988311"><ele>164.0</ele><time>2026-04-05T15:13:33.707Z</time></trkpt><trkpt lat="43.1609752" lon="13.6986748"><ele>164.0</ele><time>2026-04-05T15:13:34.709Z</time></trkpt><trkpt lat="43.1609289" lon="13.6985154"><ele>164.0</ele><time>2026-04-05T15:13:35.703Z</time></trkpt><trkpt lat="43.1608948" lon="13.6983426"><ele>164.0</ele><time>2026-04-05T15:13:36.712Z</time></trkpt><trkpt lat="43.1608602" lon="13.6981691"><ele>164.25</ele><time>2026-04-05T15:13:37.702Z</time></trkpt><trkpt lat="43.1608273" lon="13.6979993"><ele>164.5</ele><time>2026-04-05T15:13:38.705Z</time></trkpt><trkpt lat="43.1607941" lon="13.697833"><ele>164.75</ele><time>2026-04-05T15:13:39.704Z</time></trkpt><trkpt lat="43.1607605" lon="13.6976663"><ele>165.0</ele><time>2026-04-05T15:13:40.704Z</time></trkpt><trkpt lat="43.1607253" lon="13.6974892"><ele>158.75</ele><time>2026-04-05T15:13:41.702Z</time></trkpt><trkpt lat="43.1606917" lon="13.6973118"><ele>152.5</ele><time>2026-04-05T15:13:42.712Z</time></trkpt><trkpt lat="43.1606621" lon="13.6971426"><ele>146.25</ele><time>2026-04-05T15:13:43.705Z</time></trkpt><trkpt lat="43.1606368" lon="13.696975"><ele>140.0</ele><time>2026-04-05T15:13:44.704Z</time></trkpt><trkpt lat="43.1606224" lon="13.6968056"><ele>139.25</ele><time>2026-04-05T15:13:45.705Z</time></trkpt><trkpt lat="43.1606223" lon="13.6966348"><ele>138.5</ele><time>2026-04-05T15:13:46.706Z</time></trkpt><trkpt lat="43.1606465" lon="13.6964716"><ele>137.75</ele><time>2026-04-05T15:13:47.703Z</time></trkpt><trkpt lat="43.1606982" lon="13.6963272"><ele>137.0</ele><time>2026-04-05T15:13:48.708Z</time></trkpt><trkpt lat="43.160775" lon="13.6962059"><ele>140.75</ele><time>2026-04-05T15:13:49.707Z</time></trkpt><trkpt lat="43.1608707" lon="13.6960979"><ele>144.5</ele><time>2026-04-05T15:13:50.71Z</time></trkpt><trkpt lat="43.1609758" lon="13.6959887"><ele>148.25</ele><time>2026-04-05T15:13:51.712Z</time></trkpt><trkpt lat="43.1610835" lon="13.6958696"><ele>152.0</ele><time>2026-04-05T15:13:52.706Z</time></trkpt><trkpt lat="43.1611877" lon="13.6957367"><ele>152.0</ele><time>2026-04-05T15:13:53.701Z</time></trkpt><trkpt lat="43.1612822" lon="13.6955928"><ele>152.0</ele><time>2026-04-05T15:13:54.704Z</time></trkpt><trkpt lat="43.1613628" lon="13.6954339"><ele>152.0</ele><time>2026-04-05T15:13:55.704Z</time></trkpt><trkpt lat="43.1614301" lon="13.695264"><ele>152.0</ele><time>2026-04-05T15:13:56.701Z</time></trkpt><trkpt lat="43.1614888" lon="13.6950869"><ele>151.75</ele><time>2026-04-05T15:13:57.703Z</time></trkpt><trkpt lat="43.1615435" lon="13.6949051"><ele>151.5</ele><time>2026-04-05T15:13:58.712Z</time></trkpt><trkpt lat="43.1615968" lon="13.6947295"><ele>151.25</ele><time>2026-04-05T15:13:59.708Z</time></trkpt><trkpt lat="43.1616502" lon="13.69456"><ele>151.0</ele><time>2026-04-05T15:14:00.703Z</time></trkpt><trkpt lat="43.161702" lon="13.6943925"><ele>149.0</ele><time>2026-04-05T15:14:01.715Z</time></trkpt><trkpt lat="43.1617518" lon="13.6942296"><ele>147.0</ele><time>2026-04-05T15:14:02.707Z</time></trkpt><trkpt lat="43.1618005" lon="13.6940727"><ele>145.0</ele><time>2026-04-05T15:14:03.721Z</time></trkpt><trkpt lat="43.1618507" lon="13.6939221"><ele>143.0</ele><time>2026-04-05T15:14:04.701Z</time></trkpt><trkpt lat="43.1619025" lon="13.693783"><ele>143.0</ele><time>2026-04-05T15:14:05.709Z</time></trkpt><trkpt lat="43.1619635" lon="13.693666"><ele>143.0</ele><time>2026-04-05T15:14:06.7Z</time></trkpt><trkpt lat="43.1620386" lon="13.693573"><ele>143.0</ele><time>2026-04-05T15:14:07.707Z</time></trkpt><trkpt lat="43.1621113" lon="13.6934863"><ele>143.0</ele><time>2026-04-05T15:14:08.707Z</time></trkpt><trkpt lat="43.1622002" lon="13.6934668"><ele>143.0</ele><time>2026-04-05T15:14:09.704Z</time></trkpt><trkpt lat="43.1622972" lon="13.6934716"><ele>142.8</ele><time>2026-04-05T15:14:10.707Z</time></trkpt><trkpt lat="43.162401" lon="13.6934853"><ele>142.60000000000002</ele><time>2026-04-05T15:14:11.703Z</time></trkpt><trkpt lat="43.1624978" lon="13.6935616"><ele>142.39999999999998</ele><time>2026-04-05T15:14:12.719Z</time></trkpt><trkpt lat="43.1625712" lon="13.6936749"><ele>142.2</ele><time>2026-04-05T15:14:13.703Z</time></trkpt><trkpt lat="43.1626218" lon="13.6938176"><ele>142.0</ele><time>2026-04-05T15:14:14.709Z</time></trkpt><trkpt lat="43.1626507" lon="13.6939769"><ele>142.0</ele><time>2026-04-05T15:14:15.709Z</time></trkpt><trkpt lat="43.1626709" lon="13.6941455"><ele>142.0</ele><time>2026-04-05T15:14:16.702Z</time></trkpt><trkpt lat="43.1626907" lon="13.6943202"><ele>142.0</ele><time>2026-04-05T15:14:17.712Z</time></trkpt><trkpt lat="43.1627128" lon="13.6944948"><ele>142.0</ele><time>2026-04-05T15:14:18.713Z</time></trkpt><trkpt lat="43.1627428" lon="13.6946648"><ele>142.5</ele><time>2026-04-05T15:14:19.707Z</time></trkpt><trkpt lat="43.1627913" lon="13.6948254"><ele>143.0</ele><time>2026-04-05T15:14:20.711Z</time></trkpt><trkpt lat="43.1628536" lon="13.6949793"><ele>143.5</ele><time>2026-04-05T15:14:21.703Z</time></trkpt><trkpt lat="43.1629269" lon="13.695126"><ele>144.0</ele><time>2026-04-05T15:14:22.714Z</time></trkpt><trkpt lat="43.1630055" lon="13.6952632"><ele>145.5</ele><time>2026-04-05T15:14:23.715Z</time></trkpt><trkpt lat="43.1630906" lon="13.6953836"><ele>147.0</ele><time>2026-04-05T15:14:24.71Z</time></trkpt><trkpt lat="43.1631841" lon="13.6954788"><ele>148.5</ele><time>2026-04-05T15:14:25.701Z</time></trkpt><trkpt lat="43.1632847" lon="13.6955469"><ele>150.0</ele><time>2026-04-05T15:14:26.705Z</time></trkpt><trkpt lat="43.163394" lon="13.6955919"><ele>146.0</ele><time>2026-04-05T15:14:27.706Z</time></trkpt><trkpt lat="43.1635108" lon="13.6956336"><ele>142.0</ele><time>2026-04-05T15:14:28.709Z</time></trkpt><trkpt lat="43.1636297" lon="13.6956813"><ele>138.0</ele><time>2026-04-05T15:14:29.718Z</time></trkpt><trkpt lat="43.1637459" lon="13.6957418"><ele>134.0</ele><time>2026-04-05T15:14:30.702Z</time></trkpt><trkpt lat="43.1638548" lon="13.6958219"><ele>134.0</ele><time>2026-04-05T15:14:31.706Z</time></trkpt><trkpt lat="43.1639542" lon="13.6959222"><ele>134.0</ele><time>2026-04-05T15:14:32.708Z</time></trkpt><trkpt lat="43.1640459" lon="13.6960401"><ele>134.0</ele><time>2026-04-05T15:14:33.702Z</time></trkpt><trkpt lat="43.1641356" lon="13.6961648"><ele>134.0</ele><time>2026-04-05T15:14:34.711Z</time></trkpt><trkpt lat="43.1642199" lon="13.696284"><ele>133.6</ele><time>2026-04-05T15:14:35.706Z</time></trkpt><trkpt lat="43.1643005" lon="13.6963873"><ele>133.2</ele><time>2026-04-05T15:14:36.707Z</time></trkpt><trkpt lat="43.1643819" lon="13.6964687"><ele>132.79999999999998</ele><time>2026-04-05T15:14:37.706Z</time></trkpt><trkpt lat="43.1644629" lon="13.6965225"><ele>132.4</ele><time>2026-04-05T15:14:38.701Z</time></trkpt><trkpt lat="43.1645339" lon="13.69655"><ele>132.0</ele><time>2026-04-05T15:14:39.703Z</time></trkpt><trkpt lat="43.1646596" lon="13.6965801"><ele>132.0</ele><time>2026-04-05T15:14:41.712Z</time></trkpt><trkpt lat="43.1647404" lon="13.6966118"><ele>132.0</ele><time>2026-04-05T15:14:42.702Z</time></trkpt><trkpt lat="43.1648247" lon="13.6966464"><ele>132.0</ele><time>2026-04-05T15:14:43.703Z</time></trkpt><trkpt lat="43.1649011" lon="13.6966284"><ele>132.0</ele><time>2026-04-05T15:14:44.707Z</time></trkpt><trkpt lat="43.1649591" lon="13.6965692"><ele>132.0</ele><time>2026-04-05T15:14:45.703Z</time></trkpt><trkpt lat="43.1649978" lon="13.6964828"><ele>132.0</ele><time>2026-04-05T15:14:46.702Z</time></trkpt><trkpt lat="43.1650242" lon="13.6963951"><ele>130.83333333333334</ele><time>2026-04-05T15:14:47.703Z</time></trkpt><trkpt lat="43.165054" lon="13.6963154"><ele>129.66666666666666</ele><time>2026-04-05T15:14:48.704Z</time></trkpt><trkpt lat="43.1650955" lon="13.696243"><ele>128.5</ele><time>2026-04-05T15:14:49.704Z</time></trkpt><trkpt lat="43.1651513" lon="13.6961749"><ele>127.33333333333333</ele><time>2026-04-05T15:14:50.708Z</time></trkpt><trkpt lat="43.1652171" lon="13.6961047"><ele>126.16666666666666</ele><time>2026-04-05T15:14:51.711Z</time></trkpt><trkpt lat="43.1652792" lon="13.6960181"><ele>125.0</ele><time>2026-04-05T15:14:52.706Z</time></trkpt><trkpt lat="43.1653182" lon="13.6959053"><ele>123.6</ele><time>2026-04-05T15:14:53.721Z</time></trkpt><trkpt lat="43.165324" lon="13.6957715"><ele>122.2</ele><time>2026-04-05T15:14:54.706Z</time></trkpt><trkpt lat="43.1652999" lon="13.6956336"><ele>120.80000000000001</ele><time>2026-04-05T15:14:55.701Z</time></trkpt><trkpt lat="43.1652586" lon="13.695496"><ele>119.4</ele><time>2026-04-05T15:14:56.707Z</time></trkpt><trkpt lat="43.1652146" lon="13.6953559"><ele>118.0</ele><time>2026-04-05T15:14:57.71Z</time></trkpt><trkpt lat="43.1651752" lon="13.6952094"><ele>117.75</ele><time>2026-04-05T15:14:58.712Z</time></trkpt><trkpt lat="43.1651455" lon="13.6950553"><ele>117.5</ele><time>2026-04-05T15:14:59.708Z</time></trkpt><trkpt lat="43.1651352" lon="13.6948938"><ele>117.25</ele><time>2026-04-05T15:15:00.718Z</time></trkpt><trkpt lat="43.1651512" lon="13.6947304"><ele>117.0</ele><time>2026-04-05T15:15:01.708Z</time></trkpt><trkpt lat="43.1651935" lon="13.6945734"><ele>116.0</ele><time>2026-04-05T15:15:02.715Z</time></trkpt><trkpt lat="43.1652491" lon="13.6944182"><ele>115.0</ele><time>2026-04-05T15:15:03.711Z</time></trkpt><trkpt lat="43.1653068" lon="13.6942614"><ele>114.0</ele><time>2026-04-05T15:15:04.715Z</time></trkpt><trkpt lat="43.1653655" lon="13.6940951"><ele>113.0</ele><time>2026-04-05T15:15:05.71Z</time></trkpt><trkpt lat="43.165424" lon="13.6939228"><ele>113.0</ele><time>2026-04-05T15:15:06.706Z</time></trkpt><trkpt lat="43.1654814" lon="13.6937487"><ele>113.0</ele><time>2026-04-05T15:15:07.705Z</time></trkpt><trkpt lat="43.16553" lon="13.693567"><ele>113.0</ele><time>2026-04-05T15:15:08.709Z</time></trkpt><trkpt lat="43.1655646" lon="13.6933808"><ele>113.0</ele><time>2026-04-05T15:15:09.71Z</time></trkpt><trkpt lat="43.1655817" lon="13.6931912"><ele>111.5</ele><time>2026-04-05T15:15:10.7Z</time></trkpt><trkpt lat="43.1655882" lon="13.6930011"><ele>110.0</ele><time>2026-04-05T15:15:11.71Z</time></trkpt><trkpt lat="43.1655875" lon="13.6928127"><ele>108.5</ele><time>2026-04-05T15:15:12.708Z</time></trkpt><trkpt lat="43.1655803" lon="13.6926225"><ele>107.0</ele><time>2026-04-05T15:15:13.711Z</time></trkpt><trkpt lat="43.1655681" lon="13.692432"><ele>106.75</ele><time>2026-04-05T15:15:14.699Z</time></trkpt><trkpt lat="43.16556" lon="13.692239"><ele>106.5</ele><time>2026-04-05T15:15:15.709Z</time></trkpt><trkpt lat="43.1655575" lon="13.6920439"><ele>106.25</ele><time>2026-04-05T15:15:16.705Z</time></trkpt><trkpt lat="43.165562" lon="13.6918446"><ele>106.0</ele><time>2026-04-05T15:15:17.707Z</time></trkpt><trkpt lat="43.1655675" lon="13.6916473"><ele>105.25</ele><time>2026-04-05T15:15:18.705Z</time></trkpt><trkpt lat="43.1655901" lon="13.691445"><ele>104.5</ele><time>2026-04-05T15:15:19.705Z</time></trkpt><trkpt lat="43.1656221" lon="13.6912485"><ele>103.75</ele><time>2026-04-05T15:15:20.716Z</time></trkpt><trkpt lat="43.1656539" lon="13.6910552"><ele>103.0</ele><time>2026-04-05T15:15:21.711Z</time></trkpt><trkpt lat="43.1657019" lon="13.6908767"><ele>103.5</ele><time>2026-04-05T15:15:22.704Z</time></trkpt><trkpt lat="43.1657551" lon="13.6907033"><ele>104.0</ele><time>2026-04-05T15:15:23.706Z</time></trkpt><trkpt lat="43.1658136" lon="13.6905367"><ele>104.5</ele><time>2026-04-05T15:15:24.701Z</time></trkpt><trkpt lat="43.1658735" lon="13.6903694"><ele>105.0</ele><time>2026-04-05T15:15:25.703Z</time></trkpt><trkpt lat="43.1659317" lon="13.6902119"><ele>105.0</ele><time>2026-04-05T15:15:26.72Z</time></trkpt><trkpt lat="43.1659955" lon="13.6900614"><ele>105.0</ele><time>2026-04-05T15:15:27.712Z</time></trkpt><trkpt lat="43.1660604" lon="13.6899047"><ele>105.0</ele><time>2026-04-05T15:15:28.706Z</time></trkpt><trkpt lat="43.1661285" lon="13.6897438"><ele>105.0</ele><time>2026-04-05T15:15:29.698Z</time></trkpt><trkpt lat="43.1661996" lon="13.68958"><ele>103.5</ele><time>2026-04-05T15:15:30.706Z</time></trkpt><trkpt lat="43.1662699" lon="13.6894144"><ele>102.0</ele><time>2026-04-05T15:15:31.706Z</time></trkpt><trkpt lat="43.1663396" lon="13.6892485"><ele>100.5</ele><time>2026-04-05T15:15:32.706Z</time></trkpt><trkpt lat="43.1664089" lon="13.6890858"><ele>99.0</ele><time>2026-04-05T15:15:33.708Z</time></trkpt><trkpt lat="43.1664765" lon="13.6889267"><ele>99.75</ele><time>2026-04-05T15:15:34.711Z</time></trkpt><trkpt lat="43.1665426" lon="13.6887728"><ele>100.5</ele><time>2026-04-05T15:15:35.711Z</time></trkpt><trkpt lat="43.1666079" lon="13.6886215"><ele>101.25</ele><time>2026-04-05T15:15:36.706Z</time></trkpt><trkpt lat="43.1666738" lon="13.6884679"><ele>102.0</ele><time>2026-04-05T15:15:37.709Z</time></trkpt><trkpt lat="43.1667405" lon="13.6883101"><ele>102.0</ele><time>2026-04-05T15:15:38.718Z</time></trkpt><trkpt lat="43.1668065" lon="13.6881507"><ele>102.0</ele><time>2026-04-05T15:15:39.713Z</time></trkpt><trkpt lat="43.1668746" lon="13.68799"><ele>102.0</ele><time>2026-04-05T15:15:40.699Z</time></trkpt><trkpt lat="43.1669449" lon="13.6878272"><ele>102.0</ele><time>2026-04-05T15:15:41.715Z</time></trkpt><trkpt lat="43.1670179" lon="13.6876682"><ele>100.75</ele><time>2026-04-05T15:15:42.698Z</time></trkpt><trkpt lat="43.1670906" lon="13.6875114"><ele>99.5</ele><time>2026-04-05T15:15:43.711Z</time></trkpt><trkpt lat="43.1671654" lon="13.6873542"><ele>98.25</ele><time>2026-04-05T15:15:44.706Z</time></trkpt><trkpt lat="43.1672427" lon="13.6871958"><ele>97.0</ele><time>2026-04-05T15:15:45.707Z</time></trkpt><trkpt lat="43.1673221" lon="13.6870408"><ele>96.5</ele><time>2026-04-05T15:15:46.705Z</time></trkpt><trkpt lat="43.1674061" lon="13.686881"><ele>96.0</ele><time>2026-04-05T15:15:47.714Z</time></trkpt><trkpt lat="43.1674958" lon="13.6867265"><ele>95.5</ele><time>2026-04-05T15:15:48.699Z</time></trkpt><trkpt lat="43.1675899" lon="13.6865773"><ele>95.0</ele><time>2026-04-05T15:15:49.71Z</time></trkpt><trkpt lat="43.167688" lon="13.6864299"><ele>95.0</ele><time>2026-04-05T15:15:50.699Z</time></trkpt><trkpt lat="43.1677856" lon="13.6862807"><ele>95.0</ele><time>2026-04-05T15:15:51.708Z</time></trkpt><trkpt lat="43.167878" lon="13.6861359"><ele>95.0</ele><time>2026-04-05T15:15:52.715Z</time></trkpt><trkpt lat="43.1679637" lon="13.6859915"><ele>95.0</ele><time>2026-04-05T15:15:53.699Z</time></trkpt><trkpt lat="43.1680447" lon="13.6858442"><ele>95.5</ele><time>2026-04-05T15:15:54.724Z</time></trkpt><trkpt lat="43.1681179" lon="13.6856887"><ele>96.0</ele><time>2026-04-05T15:15:55.709Z</time></trkpt><trkpt lat="43.1681836" lon="13.6855256"><ele>96.5</ele><time>2026-04-05T15:15:56.702Z</time></trkpt><trkpt lat="43.1682442" lon="13.6853586"><ele>97.0</ele><time>2026-04-05T15:15:57.711Z</time></trkpt><trkpt lat="43.168303" lon="13.6851883"><ele>95.75</ele><time>2026-04-05T15:15:58.707Z</time></trkpt><trkpt lat="43.1683625" lon="13.6850175"><ele>94.5</ele><time>2026-04-05T15:15:59.704Z</time></trkpt><trkpt lat="43.1684214" lon="13.6848479"><ele>93.25</ele><time>2026-04-05T15:16:00.701Z</time></trkpt><trkpt lat="43.1684783" lon="13.684676"><ele>92.0</ele><time>2026-04-05T15:16:01.71Z</time></trkpt><trkpt lat="43.1685358" lon="13.6845038"><ele>90.0</ele><time>2026-04-05T15:16:02.708Z</time></trkpt><trkpt lat="43.1685941" lon="13.6843296"><ele>88.0</ele><time>2026-04-05T15:16:03.706Z</time></trkpt><trkpt lat="43.1686552" lon="13.6841577"><ele>86.0</ele><time>2026-04-05T15:16:04.713Z</time></trkpt><trkpt lat="43.168717" lon="13.6839906"><ele>84.0</ele><time>2026-04-05T15:16:05.698Z</time></trkpt><trkpt lat="43.1687811" lon="13.6838245"><ele>84.0</ele><time>2026-04-05T15:16:06.703Z</time></trkpt><trkpt lat="43.1688506" lon="13.6836635"><ele>84.0</ele><time>2026-04-05T15:16:07.699Z</time></trkpt><trkpt lat="43.1689286" lon="13.6835094"><ele>84.0</ele><time>2026-04-05T15:16:08.706Z</time></trkpt><trkpt lat="43.1690137" lon="13.6833626"><ele>84.0</ele><time>2026-04-05T15:16:09.703Z</time></trkpt><trkpt lat="43.1691012" lon="13.6832288"><ele>84.75</ele><time>2026-04-05T15:16:10.711Z</time></trkpt><trkpt lat="43.1691904" lon="13.683106"><ele>85.5</ele><time>2026-04-05T15:16:11.706Z</time></trkpt><trkpt lat="43.1692798" lon="13.6829945"><ele>86.25</ele><time>2026-04-05T15:16:12.709Z</time></trkpt><trkpt lat="43.1693693" lon="13.6828962"><ele>87.0</ele><time>2026-04-05T15:16:13.711Z</time></trkpt><trkpt lat="43.169455" lon="13.6828062"><ele>85.19999999999999</ele><time>2026-04-05T15:16:14.708Z</time></trkpt><trkpt lat="43.1695333" lon="13.6827192"><ele>83.39999999999999</ele><time>2026-04-05T15:16:15.723Z</time></trkpt><trkpt lat="43.1696035" lon="13.6826343"><ele>81.6</ele><time>2026-04-05T15:16:16.706Z</time></trkpt><trkpt lat="43.1696661" lon="13.6825535"><ele>79.8</ele><time>2026-04-05T15:16:17.709Z</time></trkpt><trkpt lat="43.1697299" lon="13.6824818"><ele>78.0</ele><time>2026-04-05T15:16:18.707Z</time></trkpt><trkpt lat="43.1698041" lon="13.6824191"><ele>78.8</ele><time>2026-04-05T15:16:19.71Z</time></trkpt><trkpt lat="43.1698898" lon="13.6823576"><ele>79.6</ele><time>2026-04-05T15:16:20.698Z</time></trkpt><trkpt lat="43.1699814" lon="13.6822948"><ele>80.39999999999999</ele><time>2026-04-05T15:16:21.702Z</time></trkpt><trkpt lat="43.1700799" lon="13.6822378"><ele>81.19999999999999</ele><time>2026-04-05T15:16:22.702Z</time></trkpt><trkpt lat="43.170189" lon="13.682202"><ele>82.0</ele><time>2026-04-05T15:16:23.706Z</time></trkpt><trkpt lat="43.1703079" lon="13.6821919"><ele>82.0</ele><time>2026-04-05T15:16:24.703Z</time></trkpt><trkpt lat="43.1704301" lon="13.6822069"><ele>82.0</ele><time>2026-04-05T15:16:25.71Z</time></trkpt><trkpt lat="43.1705476" lon="13.6822372"><ele>82.0</ele><time>2026-04-05T15:16:26.698Z</time></trkpt><trkpt lat="43.170667" lon="13.6822729"><ele>82.0</ele><time>2026-04-05T15:16:27.7Z</time></trkpt><trkpt lat="43.1707911" lon="13.6823111"><ele>80.5</ele><time>2026-04-05T15:16:28.702Z</time></trkpt><trkpt lat="43.1709189" lon="13.6823539"><ele>79.0</ele><time>2026-04-05T15:16:29.711Z</time></trkpt><trkpt lat="43.1710497" lon="13.6824022"><ele>77.5</ele><time>2026-04-05T15:16:30.714Z</time></trkpt><trkpt lat="43.1711834" lon="13.6824552"><ele>76.0</ele><time>2026-04-05T15:16:31.702Z</time></trkpt><trkpt lat="43.1713186" lon="13.6825177"><ele>76.0</ele><time>2026-04-05T15:16:32.713Z</time></trkpt><trkpt lat="43.1714532" lon="13.6825944"><ele>76.0</ele><time>2026-04-05T15:16:33.699Z</time></trkpt><trkpt lat="43.1715817" lon="13.6826857"><ele>76.0</ele><time>2026-04-05T15:16:34.708Z</time></trkpt><trkpt lat="43.1717042" lon="13.6827866"><ele>76.0</ele><time>2026-04-05T15:16:35.699Z</time></trkpt><trkpt lat="43.1718211" lon="13.6828888"><ele>76.6</ele><time>2026-04-05T15:16:36.709Z</time></trkpt><trkpt lat="43.1719305" lon="13.682983"><ele>77.19999999999999</ele><time>2026-04-05T15:16:37.716Z</time></trkpt><trkpt lat="43.1720294" lon="13.6830702"><ele>77.80000000000001</ele><time>2026-04-05T15:16:38.705Z</time></trkpt><trkpt lat="43.1721192" lon="13.6831479"><ele>78.4</ele><time>2026-04-05T15:16:39.701Z</time></trkpt><trkpt lat="43.1721961" lon="13.6832138"><ele>79.0</ele><time>2026-04-05T15:16:40.706Z</time></trkpt><trkpt lat="43.1722616" lon="13.6832748"><ele>79.00000000000001</ele><time>2026-04-05T15:16:41.708Z</time></trkpt><trkpt lat="43.1723122" lon="13.6833422"><ele>79.0</ele><time>2026-04-05T15:16:42.716Z</time></trkpt><trkpt lat="43.1723469" lon="13.683424"><ele>79.0</ele><time>2026-04-05T15:16:43.71Z</time></trkpt><trkpt lat="43.1723774" lon="13.6835067"><ele>79.0</ele><time>2026-04-05T15:16:44.709Z</time></trkpt><trkpt lat="43.1724188" lon="13.6835761"><ele>79.0</ele><time>2026-04-05T15:16:45.711Z</time></trkpt><trkpt lat="43.1724765" lon="13.6836175"><ele>79.00000000000001</ele><time>2026-04-05T15:16:46.71Z</time></trkpt><trkpt lat="43.1725395" lon="13.6836241"><ele>79.0</ele><time>2026-04-05T15:16:47.697Z</time></trkpt><trkpt lat="43.1725993" lon="13.6835947"><ele>77.5</ele><time>2026-04-05T15:16:48.719Z</time></trkpt><trkpt lat="43.1726532" lon="13.6835328"><ele>76.0</ele><time>2026-04-05T15:16:49.7Z</time></trkpt><trkpt lat="43.172712" lon="13.6834615"><ele>74.5</ele><time>2026-04-05T15:16:50.706Z</time></trkpt><trkpt lat="43.1727749" lon="13.6833887"><ele>73.0</ele><time>2026-04-05T15:16:51.703Z</time></trkpt><trkpt lat="43.1728592" lon="13.6833416"><ele>71.5</ele><time>2026-04-05T15:16:52.702Z</time></trkpt><trkpt lat="43.1729503" lon="13.6832947"><ele>70.0</ele><time>2026-04-05T15:16:53.704Z</time></trkpt><trkpt lat="43.1730415" lon="13.6832491"><ele>70.0</ele><time>2026-04-05T15:16:54.701Z</time></trkpt><trkpt lat="43.1731366" lon="13.6832024"><ele>70.0</ele><time>2026-04-05T15:16:55.701Z</time></trkpt><trkpt lat="43.1732365" lon="13.6831486"><ele>70.0</ele><time>2026-04-05T15:16:56.709Z</time></trkpt><trkpt lat="43.1733425" lon="13.6830926"><ele>70.0</ele><time>2026-04-05T15:16:57.704Z</time></trkpt><trkpt lat="43.1734555" lon="13.6830356"><ele>70.0</ele><time>2026-04-05T15:16:58.707Z</time></trkpt><trkpt lat="43.1735719" lon="13.6829777"><ele>68.25</ele><time>2026-04-05T15:16:59.71Z</time></trkpt><trkpt lat="43.1736863" lon="13.6829202"><ele>66.5</ele><time>2026-04-05T15:17:00.709Z</time></trkpt><trkpt lat="43.1738073" lon="13.6828559"><ele>64.75</ele><time>2026-04-05T15:17:01.712Z</time></trkpt><trkpt lat="43.173934" lon="13.6827878"><ele>63.0</ele><time>2026-04-05T15:17:02.712Z</time></trkpt><trkpt lat="43.1740629" lon="13.6827184"><ele>63.0</ele><time>2026-04-05T15:17:03.721Z</time></trkpt><trkpt lat="43.1741914" lon="13.682651"><ele>63.0</ele><time>2026-04-05T15:17:04.702Z</time></trkpt><trkpt lat="43.1743209" lon="13.6825843"><ele>63.0</ele><time>2026-04-05T15:17:05.702Z</time></trkpt><trkpt lat="43.1744465" lon="13.6825203"><ele>63.0</ele><time>2026-04-05T15:17:06.706Z</time></trkpt><trkpt lat="43.1745688" lon="13.6824594"><ele>63.0</ele><time>2026-04-05T15:17:07.711Z</time></trkpt><trkpt lat="43.1746896" lon="13.6823985"><ele>63.0</ele><time>2026-04-05T15:17:08.703Z</time></trkpt><trkpt lat="43.1748084" lon="13.6823362"><ele>63.0</ele><time>2026-04-05T15:17:09.709Z</time></trkpt><trkpt lat="43.1749274" lon="13.6822722"><ele>63.0</ele><time>2026-04-05T15:17:10.704Z</time></trkpt><trkpt lat="43.1750494" lon="13.6822073"><ele>63.5</ele><time>2026-04-05T15:17:11.705Z</time></trkpt><trkpt lat="43.1751738" lon="13.6821416"><ele>64.0</ele><time>2026-04-05T15:17:12.7Z</time></trkpt><trkpt lat="43.1753021" lon="13.6820758"><ele>64.5</ele><time>2026-04-05T15:17:13.705Z</time></trkpt><trkpt lat="43.1754331" lon="13.6820078"><ele>65.0</ele><time>2026-04-05T15:17:14.697Z</time></trkpt><trkpt lat="43.1755665" lon="13.6819416"><ele>64.75</ele><time>2026-04-05T15:17:15.705Z</time></trkpt><trkpt lat="43.1757013" lon="13.6818741"><ele>64.5</ele><time>2026-04-05T15:17:16.706Z</time></trkpt><trkpt lat="43.1758381" lon="13.6818055"><ele>64.25</ele><time>2026-04-05T15:17:17.731Z</time></trkpt><trkpt lat="43.1759761" lon="13.6817356"><ele>64.0</ele><time>2026-04-05T15:17:18.703Z</time></trkpt><trkpt lat="43.1761121" lon="13.6816573"><ele>64.0</ele><time>2026-04-05T15:17:19.701Z</time></trkpt><trkpt lat="43.1762476" lon="13.6815714"><ele>64.0</ele><time>2026-04-05T15:17:20.706Z</time></trkpt><trkpt lat="43.1763775" lon="13.6814694"><ele>64.0</ele><time>2026-04-05T15:17:21.703Z</time></trkpt><trkpt lat="43.1764985" lon="13.6813543"><ele>64.0</ele><time>2026-04-05T15:17:22.696Z</time></trkpt><trkpt lat="43.1766111" lon="13.6812294"><ele>64.0</ele><time>2026-04-05T15:17:23.698Z</time></trkpt><trkpt lat="43.1767151" lon="13.6810962"><ele>64.0</ele><time>2026-04-05T15:17:24.703Z</time></trkpt><trkpt lat="43.1768126" lon="13.6809574"><ele>64.0</ele><time>2026-04-05T15:17:25.701Z</time></trkpt><trkpt lat="43.1769053" lon="13.6808202"><ele>64.0</ele><time>2026-04-05T15:17:26.7Z</time></trkpt><trkpt lat="43.1769948" lon="13.6806837"><ele>64.0</ele><time>2026-04-05T15:17:27.701Z</time></trkpt><trkpt lat="43.1770814" lon="13.6805461"><ele>64.0</ele><time>2026-04-05T15:17:28.7Z</time></trkpt><trkpt lat="43.1771662" lon="13.6804079"><ele>64.0</ele><time>2026-04-05T15:17:29.706Z</time></trkpt><trkpt lat="43.1772511" lon="13.6802708"><ele>64.0</ele><time>2026-04-05T15:17:30.712Z</time></trkpt><trkpt lat="43.1773362" lon="13.6801349"><ele>64.25</ele><time>2026-04-05T15:17:31.71Z</time></trkpt><trkpt lat="43.177422" lon="13.6799998"><ele>64.5</ele><time>2026-04-05T15:17:32.7Z</time></trkpt><trkpt lat="43.1775074" lon="13.6798644"><ele>64.75</ele><time>2026-04-05T15:17:33.707Z</time></trkpt><trkpt lat="43.1775875" lon="13.6797347"><ele>65.0</ele><time>2026-04-05T15:17:34.705Z</time></trkpt><trkpt lat="43.1776636" lon="13.6796101"><ele>65.0</ele><time>2026-04-05T15:17:35.727Z</time></trkpt><trkpt lat="43.1777374" lon="13.6794903"><ele>65.0</ele><time>2026-04-05T15:17:36.707Z</time></trkpt><trkpt lat="43.1778109" lon="13.6793727"><ele>65.0</ele><time>2026-04-05T15:17:37.706Z</time></trkpt><trkpt lat="43.1778839" lon="13.679255"><ele>65.0</ele><time>2026-04-05T15:17:38.707Z</time></trkpt><trkpt lat="43.1779586" lon="13.6791372"><ele>65.0</ele><time>2026-04-05T15:17:39.711Z</time></trkpt><trkpt lat="43.1780355" lon="13.6790161"><ele>65.0</ele><time>2026-04-05T15:17:40.704Z</time></trkpt><trkpt lat="43.178114" lon="13.6788925"><ele>65.0</ele><time>2026-04-05T15:17:41.722Z</time></trkpt><trkpt lat="43.1781914" lon="13.6787687"><ele>65.0</ele><time>2026-04-05T15:17:42.701Z</time></trkpt><trkpt lat="43.1782666" lon="13.6786478"><ele>65.6</ele><time>2026-04-05T15:17:43.709Z</time></trkpt><trkpt lat="43.1783357" lon="13.678535"><ele>66.2</ele><time>2026-04-05T15:17:44.71Z</time></trkpt><trkpt lat="43.1783984" lon="13.6784314"><ele>66.8</ele><time>2026-04-05T15:17:45.714Z</time></trkpt><trkpt lat="43.1784555" lon="13.6783377"><ele>67.4</ele><time>2026-04-05T15:17:46.704Z</time></trkpt><trkpt lat="43.1785115" lon="13.6782471"><ele>68.0</ele><time>2026-04-05T15:17:47.705Z</time></trkpt><trkpt lat="43.1785716" lon="13.6781538"><ele>68.0</ele><time>2026-04-05T15:17:48.699Z</time></trkpt><trkpt lat="43.178636" lon="13.6780558"><ele>68.0</ele><time>2026-04-05T15:17:49.71Z</time></trkpt><trkpt lat="43.1787034" lon="13.6779519"><ele>68.0</ele><time>2026-04-05T15:17:50.702Z</time></trkpt><trkpt lat="43.1787723" lon="13.6778422"><ele>68.0</ele><time>2026-04-05T15:17:51.711Z</time></trkpt><trkpt lat="43.1788431" lon="13.6777271"><ele>68.0</ele><time>2026-04-05T15:17:52.703Z</time></trkpt><trkpt lat="43.178916" lon="13.6776081"><ele>67.5</ele><time>2026-04-05T15:17:53.709Z</time></trkpt><trkpt lat="43.1789913" lon="13.6774857"><ele>67.0</ele><time>2026-04-05T15:17:54.709Z</time></trkpt><trkpt lat="43.1790679" lon="13.6773607"><ele>66.5</ele><time>2026-04-05T15:17:55.703Z</time></trkpt><trkpt lat="43.1791447" lon="13.6772324"><ele>66.0</ele><time>2026-04-05T15:17:56.72Z</time></trkpt><trkpt lat="43.1792211" lon="13.6770996"><ele>65.75</ele><time>2026-04-05T15:17:57.706Z</time></trkpt><trkpt lat="43.1792971" lon="13.676963"><ele>65.5</ele><time>2026-04-05T15:17:58.705Z</time></trkpt><trkpt lat="43.1793714" lon="13.6768248"><ele>65.25</ele><time>2026-04-05T15:17:59.717Z</time></trkpt><trkpt lat="43.1794417" lon="13.676695"><ele>65.0</ele><time>2026-04-05T15:18:00.71Z</time></trkpt><trkpt lat="43.1795054" lon="13.6765837"><ele>65.0</ele><time>2026-04-05T15:18:01.714Z</time></trkpt><trkpt lat="43.179562" lon="13.6764961"><ele>65.0</ele><time>2026-04-05T15:18:02.704Z</time></trkpt><trkpt lat="43.1796168" lon="13.6764301"><ele>65.0</ele><time>2026-04-05T15:18:03.705Z</time></trkpt><trkpt lat="43.1796819" lon="13.6763799"><ele>65.0</ele><time>2026-04-05T15:18:04.707Z</time></trkpt><trkpt lat="43.179761" lon="13.6763453"><ele>65.0</ele><time>2026-04-05T15:18:05.703Z</time></trkpt><trkpt lat="43.1798488" lon="13.6763337"><ele>65.0</ele><time>2026-04-05T15:18:06.711Z</time></trkpt><trkpt lat="43.1799374" lon="13.6763578"><ele>65.2</ele><time>2026-04-05T15:18:07.702Z</time></trkpt><trkpt lat="43.1800204" lon="13.6764175"><ele>65.4</ele><time>2026-04-05T15:18:08.704Z</time></trkpt><trkpt lat="43.1800978" lon="13.6765046"><ele>65.6</ele><time>2026-04-05T15:18:09.716Z</time></trkpt><trkpt lat="43.1801757" lon="13.6766074"><ele>65.8</ele><time>2026-04-05T15:18:10.706Z</time></trkpt><trkpt lat="43.1802583" lon="13.6767204"><ele>66.0</ele><time>2026-04-05T15:18:11.7Z</time></trkpt><trkpt lat="43.1803439" lon="13.6768377"><ele>66.0</ele><time>2026-04-05T15:18:12.708Z</time></trkpt><trkpt lat="43.1804318" lon="13.6769588"><ele>66.0</ele><time>2026-04-05T15:18:13.71Z</time></trkpt><trkpt lat="43.1805218" lon="13.6770827"><ele>66.0</ele><time>2026-04-05T15:18:14.707Z</time></trkpt><trkpt lat="43.1806114" lon="13.6772032"><ele>66.0</ele><time>2026-04-05T15:18:15.704Z</time></trkpt><trkpt lat="43.1807017" lon="13.6773242"><ele>66.0</ele><time>2026-04-05T15:18:16.706Z</time></trkpt><trkpt lat="43.1807936" lon="13.6774489"><ele>66.0</ele><time>2026-04-05T15:18:17.706Z</time></trkpt><trkpt lat="43.1808882" lon="13.6775766"><ele>66.0</ele><time>2026-04-05T15:18:18.706Z</time></trkpt><trkpt lat="43.180983" lon="13.6777031"><ele>66.0</ele><time>2026-04-05T15:18:19.704Z</time></trkpt><trkpt lat="43.181082" lon="13.677832"><ele>65.5</ele><time>2026-04-05T15:18:20.704Z</time></trkpt><trkpt lat="43.1811832" lon="13.6779665"><ele>65.0</ele><time>2026-04-05T15:18:21.704Z</time></trkpt><trkpt lat="43.1812846" lon="13.6781059"><ele>64.5</ele><time>2026-04-05T15:18:22.709Z</time></trkpt><trkpt lat="43.1813788" lon="13.6782562"><ele>64.0</ele><time>2026-04-05T15:18:23.717Z</time></trkpt><trkpt lat="43.181457" lon="13.6784225"><ele>63.5</ele><time>2026-04-05T15:18:24.703Z</time></trkpt><trkpt lat="43.1815146" lon="13.6786045"><ele>63.0</ele><time>2026-04-05T15:18:25.711Z</time></trkpt><trkpt lat="43.1815503" lon="13.6787987"><ele>62.5</ele><time>2026-04-05T15:18:26.697Z</time></trkpt><trkpt lat="43.1815663" lon="13.6790025"><ele>62.0</ele><time>2026-04-05T15:18:27.709Z</time></trkpt><trkpt lat="43.1815683" lon="13.6792126"><ele>62.0</ele><time>2026-04-05T15:18:28.703Z</time></trkpt><trkpt lat="43.1815645" lon="13.6794219"><ele>62.0</ele><time>2026-04-05T15:18:29.709Z</time></trkpt><trkpt lat="43.1815596" lon="13.6796278"><ele>62.0</ele><time>2026-04-05T15:18:30.701Z</time></trkpt><trkpt lat="43.1815573" lon="13.6798335"><ele>61.5</ele><time>2026-04-05T15:18:31.704Z</time></trkpt><trkpt lat="43.1815633" lon="13.6800365"><ele>61.0</ele><time>2026-04-05T15:18:32.705Z</time></trkpt><trkpt lat="43.1815889" lon="13.6802309"><ele>60.5</ele><time>2026-04-05T15:18:33.704Z</time></trkpt><trkpt lat="43.1816365" lon="13.6804085"><ele>60.0</ele><time>2026-04-05T15:18:34.702Z</time></trkpt><trkpt lat="43.1817026" lon="13.6805684"><ele>61.0</ele><time>2026-04-05T15:18:35.707Z</time></trkpt><trkpt lat="43.1817831" lon="13.6807125"><ele>62.0</ele><time>2026-04-05T15:18:36.711Z</time></trkpt><trkpt lat="43.1818723" lon="13.6808464"><ele>63.0</ele><time>2026-04-05T15:18:37.713Z</time></trkpt><trkpt lat="43.1819645" lon="13.6809745"><ele>64.0</ele><time>2026-04-05T15:18:38.703Z</time></trkpt><trkpt lat="43.1820581" lon="13.6810993"><ele>64.0</ele><time>2026-04-05T15:18:39.711Z</time></trkpt><trkpt lat="43.1821515" lon="13.6812207"><ele>64.0</ele><time>2026-04-05T15:18:40.708Z</time></trkpt><trkpt lat="43.1822441" lon="13.6813409"><ele>64.0</ele><time>2026-04-05T15:18:41.705Z</time></trkpt><trkpt lat="43.1823357" lon="13.6814636"><ele>64.0</ele><time>2026-04-05T15:18:42.71Z</time></trkpt><trkpt lat="43.1824294" lon="13.6815881"><ele>63.75</ele><time>2026-04-05T15:18:43.706Z</time></trkpt><trkpt lat="43.1825252" lon="13.6817127"><ele>63.5</ele><time>2026-04-05T15:18:44.7Z</time></trkpt><trkpt lat="43.1826217" lon="13.681841"><ele>63.25</ele><time>2026-04-05T15:18:45.702Z</time></trkpt><trkpt lat="43.1827199" lon="13.6819725"><ele>63.0</ele><time>2026-04-05T15:18:46.709Z</time></trkpt><trkpt lat="43.1828215" lon="13.6821067"><ele>62.5</ele><time>2026-04-05T15:18:47.703Z</time></trkpt><trkpt lat="43.1829257" lon="13.682244"><ele>62.0</ele><time>2026-04-05T15:18:48.702Z</time></trkpt><trkpt lat="43.1830318" lon="13.6823845"><ele>61.5</ele><time>2026-04-05T15:18:49.702Z</time></trkpt><trkpt lat="43.18314" lon="13.6825274"><ele>61.0</ele><time>2026-04-05T15:18:50.709Z</time></trkpt><trkpt lat="43.1832499" lon="13.6826723"><ele>61.5</ele><time>2026-04-05T15:18:51.708Z</time></trkpt><trkpt lat="43.1833584" lon="13.6828145"><ele>62.0</ele><time>2026-04-05T15:18:52.702Z</time></trkpt><trkpt lat="43.1834605" lon="13.6829476"><ele>62.5</ele><time>2026-04-05T15:18:53.711Z</time></trkpt><trkpt lat="43.1835556" lon="13.6830724"><ele>63.0</ele><time>2026-04-05T15:18:54.708Z</time></trkpt><trkpt lat="43.1836449" lon="13.683184"><ele>63.0</ele><time>2026-04-05T15:18:55.704Z</time></trkpt><trkpt lat="43.1837258" lon="13.6832917"><ele>63.0</ele><time>2026-04-05T15:18:56.698Z</time></trkpt><trkpt lat="43.1838002" lon="13.6833944"><ele>63.0</ele><time>2026-04-05T15:18:57.702Z</time></trkpt><trkpt lat="43.1838727" lon="13.6834892"><ele>63.0</ele><time>2026-04-05T15:18:58.704Z</time></trkpt><trkpt lat="43.1839409" lon="13.6835828"><ele>63.0</ele><time>2026-04-05T15:18:59.705Z</time></trkpt><trkpt lat="43.183989" lon="13.6836569"><ele>62.666666666666664</ele><time>2026-04-05T15:19:00.701Z</time></trkpt><trkpt lat="43.1840274" lon="13.6837322"><ele>62.33333333333333</ele><time>2026-04-05T15:19:01.711Z</time></trkpt><trkpt lat="43.18405" lon="13.6838199"><ele>62.0</ele><time>2026-04-05T15:19:02.705Z</time></trkpt><trkpt lat="43.1841208" lon="13.6839615"><ele>61.666666666666664</ele><time>2026-04-05T15:19:04.706Z</time></trkpt><trkpt lat="43.1842318" lon="13.6839777"><ele>61.33333333333333</ele><time>2026-04-05T15:19:06.711Z</time></trkpt><trkpt lat="43.1842906" lon="13.6839085"><ele>61.0</ele><time>2026-04-05T15:19:07.706Z</time></trkpt><trkpt lat="43.1843456" lon="13.683804"><ele>61.0</ele><time>2026-04-05T15:19:08.701Z</time></trkpt><trkpt lat="43.1844217" lon="13.6836844"><ele>61.0</ele><time>2026-04-05T15:19:09.709Z</time></trkpt><trkpt lat="43.184515" lon="13.6835643"><ele>61.0</ele><time>2026-04-05T15:19:10.702Z</time></trkpt><trkpt lat="43.1846182" lon="13.6834253"><ele>61.0</ele><time>2026-04-05T15:19:11.702Z</time></trkpt><trkpt lat="43.1847281" lon="13.68328"><ele>61.0</ele><time>2026-04-05T15:19:12.702Z</time></trkpt><trkpt lat="43.1848485" lon="13.683131"><ele>61.0</ele><time>2026-04-05T15:19:13.706Z</time></trkpt><trkpt lat="43.1849651" lon="13.682988"><ele>61.0</ele><time>2026-04-05T15:19:14.706Z</time></trkpt><trkpt lat="43.1850718" lon="13.6828573"><ele>61.5</ele><time>2026-04-05T15:19:15.713Z</time></trkpt><trkpt lat="43.1851715" lon="13.6827366"><ele>62.0</ele><time>2026-04-05T15:19:16.715Z</time></trkpt><trkpt lat="43.1852719" lon="13.6826225"><ele>62.5</ele><time>2026-04-05T15:19:17.705Z</time></trkpt><trkpt lat="43.1853826" lon="13.6825035"><ele>63.0</ele><time>2026-04-05T15:19:18.701Z</time></trkpt><trkpt lat="43.1855061" lon="13.6823864"><ele>63.0</ele><time>2026-04-05T15:19:19.703Z</time></trkpt><trkpt lat="43.185641" lon="13.6822707"><ele>63.0</ele><time>2026-04-05T15:19:20.701Z</time></trkpt><trkpt lat="43.1857847" lon="13.6821556"><ele>63.0</ele><time>2026-04-05T15:19:21.71Z</time></trkpt><trkpt lat="43.1859316" lon="13.6820368"><ele>62.33333333333333</ele><time>2026-04-05T15:19:22.701Z</time></trkpt><trkpt lat="43.1860828" lon="13.681912"><ele>61.666666666666664</ele><time>2026-04-05T15:19:23.702Z</time></trkpt><trkpt lat="43.1862373" lon="13.6817826"><ele>61.0</ele><time>2026-04-05T15:19:24.719Z</time></trkpt><trkpt lat="43.1863972" lon="13.6816518"><ele>61.33333333333333</ele><time>2026-04-05T15:19:25.71Z</time></trkpt><trkpt lat="43.1865593" lon="13.6815193"><ele>61.66666666666667</ele><time>2026-04-05T15:19:26.706Z</time></trkpt><trkpt lat="43.186715" lon="13.6813896"><ele>62.0</ele><time>2026-04-05T15:19:27.702Z</time></trkpt><trkpt lat="43.1868639" lon="13.6812732"><ele>62.0</ele><time>2026-04-05T15:19:28.71Z</time></trkpt><trkpt lat="43.1870119" lon="13.6811524"><ele>62.0</ele><time>2026-04-05T15:19:29.698Z</time></trkpt><trkpt lat="43.1871639" lon="13.6810249"><ele>62.0</ele><time>2026-04-05T15:19:30.706Z</time></trkpt><trkpt lat="43.1873177" lon="13.6808993"><ele>64.0</ele><time>2026-04-05T15:19:31.707Z</time></trkpt><trkpt lat="43.1874717" lon="13.6807671"><ele>66.0</ele><time>2026-04-05T15:19:32.706Z</time></trkpt><trkpt lat="43.1876287" lon="13.6806289"><ele>68.0</ele><time>2026-04-05T15:19:33.706Z</time></trkpt><trkpt lat="43.1877821" lon="13.6804793"><ele>68.0</ele><time>2026-04-05T15:19:34.701Z</time></trkpt><trkpt lat="43.1879319" lon="13.680327"><ele>68.0</ele><time>2026-04-05T15:19:35.704Z</time></trkpt><trkpt lat="43.1880695" lon="13.6801819"><ele>68.0</ele><time>2026-04-05T15:19:36.703Z</time></trkpt><trkpt lat="43.1881904" lon="13.680055"><ele>70.0</ele><time>2026-04-05T15:19:37.698Z</time></trkpt><trkpt lat="43.1882934" lon="13.6799522"><ele>72.0</ele><time>2026-04-05T15:19:38.701Z</time></trkpt><trkpt lat="43.1883859" lon="13.679869"><ele>74.0</ele><time>2026-04-05T15:19:39.703Z</time></trkpt><trkpt lat="43.1884642" lon="13.6798052"><ele>76.0</ele><time>2026-04-05T15:19:40.702Z</time></trkpt><trkpt lat="43.1885293" lon="13.679765"><ele>78.0</ele><time>2026-04-05T15:19:41.7Z</time></trkpt><trkpt lat="43.1886207" lon="13.679715"><ele>78.0</ele><time>2026-04-05T15:19:43.707Z</time></trkpt><trkpt lat="43.1886527" lon="13.6796018"><ele>78.0</ele><time>2026-04-05T15:19:45.713Z</time></trkpt><trkpt lat="43.188641" lon="13.6795104"><ele>78.0</ele><time>2026-04-05T15:19:46.711Z</time></trkpt><trkpt lat="43.1886217" lon="13.6793979"><ele>78.0</ele><time>2026-04-05T15:19:47.698Z</time></trkpt><trkpt lat="43.1886004" lon="13.6792719"><ele>78.0</ele><time>2026-04-05T15:19:48.701Z</time></trkpt><trkpt lat="43.188608" lon="13.6791318"><ele>78.0</ele><time>2026-04-05T15:19:49.7Z</time></trkpt><trkpt lat="43.188641" lon="13.6789953"><ele>79.25</ele><time>2026-04-05T15:19:50.703Z</time></trkpt><trkpt lat="43.1886993" lon="13.6788614"><ele>80.5</ele><time>2026-04-05T15:19:51.703Z</time></trkpt><trkpt lat="43.1887777" lon="13.6787388"><ele>81.75</ele><time>2026-04-05T15:19:52.705Z</time></trkpt><trkpt lat="43.1888746" lon="13.6786313"><ele>83.0</ele><time>2026-04-05T15:19:53.705Z</time></trkpt><trkpt lat="43.1889838" lon="13.6785383"><ele>83.75</ele><time>2026-04-05T15:19:54.703Z</time></trkpt><trkpt lat="43.1891031" lon="13.6784536"><ele>84.5</ele><time>2026-04-05T15:19:55.703Z</time></trkpt><trkpt lat="43.1892226" lon="13.6783757"><ele>85.25</ele><time>2026-04-05T15:19:56.706Z</time></trkpt><trkpt lat="43.1893437" lon="13.6782934"><ele>86.0</ele><time>2026-04-05T15:19:57.706Z</time></trkpt><trkpt lat="43.1894659" lon="13.6782064"><ele>86.0</ele><time>2026-04-05T15:19:58.717Z</time></trkpt><trkpt lat="43.1895914" lon="13.6781195"><ele>86.0</ele><time>2026-04-05T15:19:59.707Z</time></trkpt><trkpt lat="43.1897174" lon="13.6780314"><ele>86.0</ele><time>2026-04-05T15:20:00.698Z</time></trkpt><trkpt lat="43.1898455" lon="13.6779412"><ele>86.0</ele><time>2026-04-05T15:20:01.708Z</time></trkpt><trkpt lat="43.1899753" lon="13.6778473"><ele>87.75</ele><time>2026-04-05T15:20:02.712Z</time></trkpt><trkpt lat="43.1901054" lon="13.67775"><ele>89.5</ele><time>2026-04-05T15:20:03.696Z</time></trkpt><trkpt lat="43.190236" lon="13.6776503"><ele>91.25</ele><time>2026-04-05T15:20:04.701Z</time></trkpt><trkpt lat="43.1903685" lon="13.6775509"><ele>93.0</ele><time>2026-04-05T15:20:05.697Z</time></trkpt><trkpt lat="43.1905022" lon="13.6774528"><ele>93.0</ele><time>2026-04-05T15:20:06.7Z</time></trkpt><trkpt lat="43.190637" lon="13.677356"><ele>93.0</ele><time>2026-04-05T15:20:07.704Z</time></trkpt><trkpt lat="43.1907727" lon="13.6772573"><ele>93.0</ele><time>2026-04-05T15:20:08.703Z</time></trkpt><trkpt lat="43.190908" lon="13.6771566"><ele>94.66666666666666</ele><time>2026-04-05T15:20:09.702Z</time></trkpt><trkpt lat="43.1910448" lon="13.6770559"><ele>96.33333333333333</ele><time>2026-04-05T15:20:10.707Z</time></trkpt><trkpt lat="43.191182" lon="13.6769562"><ele>98.0</ele><time>2026-04-05T15:20:11.707Z</time></trkpt><trkpt lat="43.1913189" lon="13.6768566"><ele>98.5</ele><time>2026-04-05T15:20:12.7Z</time></trkpt><trkpt lat="43.1914545" lon="13.6767579"><ele>99.0</ele><time>2026-04-05T15:20:13.715Z</time></trkpt><trkpt lat="43.1915838" lon="13.6766645"><ele>99.5</ele><time>2026-04-05T15:20:14.706Z</time></trkpt><trkpt lat="43.191697" lon="13.6765858"><ele>100.0</ele><time>2026-04-05T15:20:15.702Z</time></trkpt><trkpt lat="43.1917938" lon="13.6765223"><ele>101.00000000000001</ele><time>2026-04-05T15:20:16.707Z</time></trkpt><trkpt lat="43.191875" lon="13.676472"><ele>102.0</ele><time>2026-04-05T15:20:17.699Z</time></trkpt><trkpt lat="43.1919342" lon="13.6764375"><ele>103.0</ele><time>2026-04-05T15:20:18.702Z</time></trkpt><trkpt lat="43.1919941" lon="13.6764006"><ele>104.0</ele><time>2026-04-05T15:20:20.699Z</time></trkpt><trkpt lat="43.192032" lon="13.6763209"><ele>105.00000000000001</ele><time>2026-04-05T15:20:22.714Z</time></trkpt><trkpt lat="43.1920222" lon="13.6761385"><ele>106.0</ele><time>2026-04-05T15:20:24.706Z</time></trkpt><trkpt lat="43.1920014" lon="13.6760115"><ele>107.0</ele><time>2026-04-05T15:20:25.705Z</time></trkpt><trkpt lat="43.1919739" lon="13.6758553"><ele>108.0</ele><time>2026-04-05T15:20:26.702Z</time></trkpt><trkpt lat="43.1919443" lon="13.6756805"><ele>109.0</ele><time>2026-04-05T15:20:27.733Z</time></trkpt><trkpt lat="43.191912" lon="13.6754826"><ele>110.0</ele><time>2026-04-05T15:20:28.697Z</time></trkpt><trkpt lat="43.1918803" lon="13.6752719"><ele>112.0</ele><time>2026-04-05T15:20:29.699Z</time></trkpt><trkpt lat="43.1918464" lon="13.675044"><ele>114.0</ele><time>2026-04-05T15:20:30.706Z</time></trkpt><trkpt lat="43.1918111" lon="13.6748048"><ele>116.0</ele><time>2026-04-05T15:20:31.703Z</time></trkpt><trkpt lat="43.1917759" lon="13.6745633"><ele>118.66666666666666</ele><time>2026-04-05T15:20:32.697Z</time></trkpt><trkpt lat="43.19174" lon="13.6743148"><ele>121.33333333333334</ele><time>2026-04-05T15:20:33.702Z</time></trkpt><trkpt lat="43.1917047" lon="13.6740609"><ele>124.0</ele><time>2026-04-05T15:20:34.697Z</time></trkpt><trkpt lat="43.1916692" lon="13.6738164"><ele>127.0</ele><time>2026-04-05T15:20:35.704Z</time></trkpt><trkpt lat="43.1916365" lon="13.6735965"><ele>130.0</ele><time>2026-04-05T15:20:36.698Z</time></trkpt><trkpt lat="43.1916139" lon="13.673387"><ele>133.0</ele><time>2026-04-05T15:20:37.713Z</time></trkpt><trkpt lat="43.1916217" lon="13.6731852"><ele>133.0</ele><time>2026-04-05T15:20:38.697Z</time></trkpt><trkpt lat="43.1916678" lon="13.673003"><ele>133.0</ele><time>2026-04-05T15:20:39.702Z</time></trkpt><trkpt lat="43.1917504" lon="13.6728506"><ele>133.0</ele><time>2026-04-05T15:20:40.709Z</time></trkpt><trkpt lat="43.191866" lon="13.6727278"><ele>133.0</ele><time>2026-04-05T15:20:41.702Z</time></trkpt><trkpt lat="43.192003" lon="13.6726155"><ele>133.0</ele><time>2026-04-05T15:20:42.716Z</time></trkpt><trkpt lat="43.1921517" lon="13.672491"><ele>133.0</ele><time>2026-04-05T15:20:43.697Z</time></trkpt><trkpt lat="43.1923104" lon="13.6723542"><ele>133.0</ele><time>2026-04-05T15:20:44.7Z</time></trkpt><trkpt lat="43.1924774" lon="13.6722094"><ele>133.0</ele><time>2026-04-05T15:20:45.706Z</time></trkpt><trkpt lat="43.192647" lon="13.6720616"><ele>133.0</ele><time>2026-04-05T15:20:46.702Z</time></trkpt><trkpt lat="43.1928216" lon="13.6719097"><ele>133.0</ele><time>2026-04-05T15:20:47.706Z</time></trkpt><trkpt lat="43.1929984" lon="13.6717572"><ele>134.66666666666669</ele><time>2026-04-05T15:20:48.708Z</time></trkpt><trkpt lat="43.1931775" lon="13.6716083"><ele>136.33333333333334</ele><time>2026-04-05T15:20:49.715Z</time></trkpt><trkpt lat="43.1933612" lon="13.6714735"><ele>138.0</ele><time>2026-04-05T15:20:50.718Z</time></trkpt><trkpt lat="43.1935505" lon="13.6713662"><ele>138.0</ele><time>2026-04-05T15:20:51.699Z</time></trkpt><trkpt lat="43.1937421" lon="13.6712838"><ele>138.0</ele><time>2026-04-05T15:20:52.71Z</time></trkpt><trkpt lat="43.193933" lon="13.6712172"><ele>138.0</ele><time>2026-04-05T15:20:53.7Z</time></trkpt><trkpt lat="43.1941198" lon="13.6711618"><ele>139.66666666666666</ele><time>2026-04-05T15:20:54.719Z</time></trkpt><trkpt lat="43.1943009" lon="13.6711181"><ele>141.33333333333331</ele><time>2026-04-05T15:20:55.7Z</time></trkpt><trkpt lat="43.1944781" lon="13.6711139"><ele>143.0</ele><time>2026-04-05T15:20:56.703Z</time></trkpt><trkpt lat="43.1946488" lon="13.6711578"><ele>143.0</ele><time>2026-04-05T15:20:57.701Z</time></trkpt><trkpt lat="43.1948124" lon="13.6712358"><ele>143.0</ele><time>2026-04-05T15:20:58.702Z</time></trkpt><trkpt lat="43.194974" lon="13.671328"><ele>143.0</ele><time>2026-04-05T15:20:59.705Z</time></trkpt><trkpt lat="43.1951378" lon="13.6714211"><ele>145.66666666666666</ele><time>2026-04-05T15:21:00.7Z</time></trkpt><trkpt lat="43.1953045" lon="13.6715125"><ele>148.33333333333334</ele><time>2026-04-05T15:21:01.702Z</time></trkpt><trkpt lat="43.1954728" lon="13.6716101"><ele>151.0</ele><time>2026-04-05T15:21:02.703Z</time></trkpt><trkpt lat="43.1956388" lon="13.6716967"><ele>150.66666666666669</ele><time>2026-04-05T15:21:03.698Z</time></trkpt><trkpt lat="43.1957933" lon="13.6717898"><ele>150.33333333333334</ele><time>2026-04-05T15:21:04.707Z</time></trkpt><trkpt lat="43.1959398" lon="13.671893"><ele>150.0</ele><time>2026-04-05T15:21:05.7Z</time></trkpt><trkpt lat="43.1960711" lon="13.6720108"><ele>150.0</ele><time>2026-04-05T15:21:06.722Z</time></trkpt><trkpt lat="43.1961836" lon="13.6721264"><ele>150.0</ele><time>2026-04-05T15:21:07.703Z</time></trkpt><trkpt lat="43.1962846" lon="13.6722351"><ele>150.0</ele><time>2026-04-05T15:21:08.703Z</time></trkpt><trkpt lat="43.1963694" lon="13.6723313"><ele>150.0</ele><time>2026-04-05T15:21:09.758Z</time></trkpt><trkpt lat="43.196436" lon="13.6724105"><ele>150.0</ele><time>2026-04-05T15:21:10.712Z</time></trkpt><trkpt lat="43.1964731" lon="13.6724841"><ele>150.0</ele><time>2026-04-05T15:21:11.704Z</time></trkpt><trkpt lat="43.1964621" lon="13.6726366"><ele>150.0</ele><time>2026-04-05T15:21:13.702Z</time></trkpt><trkpt lat="43.1964217" lon="13.672725"><ele>150.0</ele><time>2026-04-05T15:21:14.703Z</time></trkpt><trkpt lat="43.1963786" lon="13.6728186"><ele>150.0</ele><time>2026-04-05T15:21:15.708Z</time></trkpt><trkpt lat="43.1963357" lon="13.672903"><ele>150.0</ele><time>2026-04-05T15:21:16.702Z</time></trkpt><trkpt lat="43.196272" lon="13.673037"><ele>149.6</ele><time>2026-04-05T15:21:18.701Z</time></trkpt><trkpt lat="43.1963029" lon="13.6731364"><ele>149.2</ele><time>2026-04-05T15:21:20.707Z</time></trkpt><trkpt lat="43.1964026" lon="13.6731918"><ele>148.8</ele><time>2026-04-05T15:21:22.702Z</time></trkpt><trkpt lat="43.1964919" lon="13.6732658"><ele>148.4</ele><time>2026-04-05T15:21:24.709Z</time></trkpt><trkpt lat="43.1964754" lon="13.6733687"><ele>148.0</ele><time>2026-04-05T15:21:27.719Z</time></trkpt><trkpt lat="43.1964255" lon="13.6735121"><ele>148.0</ele><time>2026-04-05T15:21:31.708Z</time></trkpt></trkseg></trk></gpx>